[[{"header":{"parameterUnit":"m.s-1","parameterCategory":1,"la1":30.6,"la2":29.2853,"lo1":-89.7004,"lo2":-87.6739,"dy":0.0162,"dx":0.0183,"nx":112,"ny":82,"refTime":"2026-05-01T12:00:00:Z","depth":0,"parameterNumber":2,"parameterNumberName":"U-component_of_WINDS"},"data":[0.0,0.0,0.0,0.0,0.0,0.0,0.0,0.0,0.0,0.0,0.0,0.0,0.0,0.0,0.0,0.0,0.0,0.0,0.0,0.0,0.0,0.0,0.0,0.0,0.0,0.0,0.0,0.0,0.0,0.0,0.0,0.0,0.0,0.0,0.0,0.0,0.0,0.0,0.0,0.0,0.0,0.0,0.0,0.0,0.0,0.0,0.0,0.0,0.0,0.0,0.0,0.0,0.0,0.0,0.0,0.0,0.0,0.0,0.0,0.0,0.0,0.0,0.0,0.0,0.0,0.0,0.0,0.0,0.0,0.0,0.0,0.0,0.0,0.0,0.0,0.0,0.0,0.0,0.0,0.0,0.0,0.0,0.0,0.0,0.0,0.0,0.0,0.0,0.0,0.0,0.0,4.423,4.9706,5.2616,5.1865,5.0559,4.7406,4.1741,0.0,0.0,0.0,0.0,0.0,0.0,0.0,0.0,0.0,0.0,0.0,0.0,0.0,0.0,0.0,0.0,0.0,0.0,0.0,0.0,0.0,0.0,0.0,0.0,0.0,0.0,0.0,0.0,0.0,0.0,0.0,0.0,0.0,0.0,0.0,0.0,0.0,0.0,0.0,0.0,0.0,0.0,0.0,0.0,0.0,0.0,0.0,0.0,0.0,0.0,0.0,0.0,0.0,0.0,0.0,0.0,0.0,0.0,0.0,0.0,0.0,0.0,0.0,0.0,0.0,0.0,0.0,0.0,0.0,0.0,0.0,0.0,0.0,0.0,0.0,0.0,0.0,0.0,0.0,0.0,0.0,0.0,0.0,0.0,0.0,0.0,0.0,0.0,0.0,0.0,0.0,0.0,0.0,0.0,0.0,0.0,0.0,0.0,0.0,0.0,0.0,0.0,0.0,0.0,3.8825,4.9136,5.2382,5.3725,5.356,5.0738,4.7029,4.2419,0.0,0.0,0.0,0.0,0.0,0.0,0.0,0.0,0.0,0.0,0.0,0.0,0.0,0.0,0.0,0.0,0.0,0.0,0.0,0.0,0.0,0.0,0.0,0.0,0.0,0.0,0.0,0.0,0.0,0.0,0.0,0.0,0.0,0.0,0.0,0.0,0.0,0.0,0.0,0.0,0.0,0.0,0.0,0.0,0.0,0.0,0.0,0.0,0.0,0.0,0.0,0.0,0.0,0.0,0.0,0.0,0.0,0.0,0.0,0.0,0.0,0.0,0.0,0.0,0.0,0.0,0.0,0.0,0.0,0.0,0.0,0.0,0.0,0.0,0.0,0.0,0.0,0.0,0.0,0.0,0.0,0.0,0.0,0.0,0.0,0.0,0.0,0.0,0.0,0.0,0.0,0.0,0.0,0.0,0.0,0.0,0.0,0.0,0.0,0.0,0.0,0.0,0.0,3.8472,4.332,5.125,5.3672,5.4498,5.3955,5.1586,4.8048,4.3247,3.8447,0.0,0.0,0.0,0.0,0.0,0.0,0.0,0.0,0.0,0.0,0.0,0.0,0.0,0.0,0.0,0.0,0.0,0.0,0.0,0.0,0.0,0.0,0.0,0.0,0.0,0.0,0.0,0.0,0.0,0.0,0.0,0.0,0.0,0.0,0.0,0.0,0.0,0.0,0.0,0.0,0.0,0.0,0.0,0.0,0.0,0.0,0.0,0.0,0.0,0.0,0.0,0.0,0.0,0.0,0.0,0.0,0.0,0.0,0.0,0.0,0.0,0.0,0.0,0.0,0.0,0.0,0.0,0.0,0.0,0.0,0.0,0.0,0.0,0.0,0.0,0.0,0.0,0.0,0.0,0.0,0.0,0.0,0.0,0.0,0.0,0.0,0.0,0.0,0.0,0.0,0.0,0.0,0.0,0.0,0.0,0.0,0.0,0.0,0.0,0.0,0.0,0.0,4.4531,4.8044,5.2784,5.4654,5.5092,5.3925,5.1842,4.8537,4.3737,3.8171,0.0,0.0,0.0,0.0,0.0,0.0,0.0,0.0,0.0,0.0,0.0,0.0,0.0,0.0,0.0,0.0,0.0,0.0,0.0,0.0,0.0,0.0,0.0,0.0,0.0,0.0,0.0,0.0,0.0,0.0,0.0,0.0,0.0,0.0,0.0,0.0,0.0,0.0,0.0,0.0,0.0,0.0,0.0,0.0,0.0,0.0,0.0,0.0,0.0,0.0,0.0,0.0,0.0,0.0,0.0,0.0,0.0,0.0,0.0,0.0,0.0,0.0,0.0,0.0,0.0,0.0,0.0,0.0,0.0,0.0,0.0,0.0,0.0,0.0,0.0,0.0,0.0,0.0,0.0,0.0,0.0,0.0,0.0,0.0,0.0,0.0,0.0,0.0,0.0,0.0,0.0,0.0,0.0,0.0,0.0,0.0,0.0,0.0,0.0,0.0,0.0,0.0,4.6289,5.1176,5.4653,5.5846,5.5652,5.3785,5.0596,4.7124,4.354,3.7011,0.0,0.0,0.0,0.0,0.0,0.0,0.0,0.0,0.0,0.0,0.0,0.0,0.0,0.0,0.0,0.0,0.0,0.0,0.0,0.0,0.0,0.0,0.0,0.0,0.0,0.0,0.0,0.0,0.0,0.0,0.0,0.0,0.0,0.0,0.0,0.0,0.0,0.0,0.0,0.0,0.0,0.0,0.0,0.0,0.0,0.0,0.0,0.0,0.0,0.0,0.0,0.0,0.0,0.0,0.0,0.0,0.0,0.0,0.0,0.0,0.0,0.0,0.0,0.0,0.0,0.0,0.0,0.0,0.0,0.0,0.0,0.0,0.0,0.0,0.0,0.0,0.0,0.0,0.0,0.0,0.0,0.0,0.0,0.0,0.0,0.0,0.0,0.0,0.0,0.0,0.0,0.0,0.0,0.0,0.0,0.0,0.0,0.0,0.0,0.0,0.0,0.0,4.5806,5.0442,0.0,5.6188,5.6033,5.5225,5.2034,4.8114,4.3525,0.0,0.0,0.0,0.0,0.0,0.0,0.0,0.0,0.0,0.0,0.0,0.0,0.0,0.0,0.0,0.0,0.0,0.0,0.0,0.0,0.0,0.0,0.0,0.0,0.0,0.0,0.0,0.0,0.0,0.0,0.0,0.0,0.0,0.0,0.0,0.0,0.0,0.0,0.0,0.0,0.0,0.0,0.0,0.0,0.0,0.0,0.0,0.0,0.0,0.0,0.0,0.0,0.0,0.0,0.0,0.0,0.0,0.0,0.0,0.0,0.0,0.0,0.0,0.0,0.0,0.0,0.0,0.0,0.0,0.0,0.0,0.0,0.0,0.0,0.0,0.0,0.0,0.0,0.0,0.0,0.0,0.0,0.0,0.0,0.0,0.0,0.0,0.0,0.0,0.0,0.0,0.0,0.0,0.0,0.0,0.0,0.0,0.0,0.0,0.0,0.0,0.0,4.193,4.6707,5.1488,0.0,5.7312,5.7273,5.6888,5.3451,4.9109,4.3921,0.0,0.0,0.0,0.0,0.0,0.0,0.0,0.0,0.0,0.0,0.0,0.0,0.0,0.0,0.0,0.0,0.0,0.0,0.0,0.0,0.0,0.0,0.0,0.0,0.0,0.0,0.0,0.0,0.0,0.0,0.0,0.0,0.0,0.0,0.0,0.0,0.0,0.0,0.0,0.0,0.0,0.0,0.0,0.0,0.0,0.0,0.0,0.0,0.0,0.0,0.0,0.0,0.0,0.0,0.0,0.0,0.0,0.0,0.0,0.0,0.0,0.0,0.0,0.0,0.0,0.0,0.0,0.0,0.0,0.0,0.0,0.0,0.0,0.0,0.0,0.0,0.0,0.0,0.0,0.0,0.0,0.0,0.0,0.0,0.0,0.0,0.0,0.0,0.0,0.0,0.0,0.0,0.0,0.0,0.0,0.0,0.0,0.0,0.0,0.0,0.0,0.0,4.3073,4.9661,5.5152,5.8374,5.9437,5.9513,5.8588,5.4535,4.9854,0.0,0.0,0.0,0.0,0.0,0.0,0.0,0.0,0.0,0.0,0.0,0.0,0.0,0.0,0.0,0.0,0.0,0.0,0.0,0.0,0.0,0.0,0.0,0.0,0.0,0.0,0.0,0.0,0.0,0.0,0.0,0.0,0.0,0.0,0.0,0.0,0.0,0.0,0.0,0.0,0.0,0.0,0.0,0.0,0.0,0.0,0.0,0.0,0.0,0.0,0.0,0.0,0.0,0.0,0.0,0.0,0.0,0.0,0.0,0.0,0.0,0.0,0.0,0.0,0.0,0.0,0.0,0.0,0.0,0.0,0.0,0.0,0.0,0.0,0.0,0.0,0.0,0.0,0.0,0.0,0.0,0.0,0.0,0.0,0.0,0.0,0.0,0.0,0.0,0.0,0.0,0.0,0.0,0.0,0.0,0.0,0.0,0.0,0.0,0.0,0.0,0.0,0.0,0.0,5.1375,5.6831,6.0112,6.0596,6.0517,6.0222,5.6231,5.1086,4.479,0.0,0.0,0.0,0.0,0.0,0.0,0.0,0.0,0.0,0.0,0.0,0.0,0.0,0.0,0.0,0.0,0.0,0.0,0.0,0.0,0.0,0.0,0.0,0.0,0.0,0.0,0.0,0.0,0.0,0.0,0.0,0.0,0.0,0.0,0.0,0.0,0.0,0.0,0.0,0.0,0.0,0.0,0.0,0.0,0.0,0.0,0.0,0.0,0.0,0.0,0.0,0.0,0.0,0.0,0.0,0.0,0.0,0.0,0.0,0.0,0.0,0.0,0.0,0.0,0.0,0.0,0.0,0.0,0.0,0.0,0.0,0.0,0.0,0.0,0.0,0.0,0.0,0.0,0.0,0.0,0.0,0.0,0.0,0.0,0.0,0.0,0.0,0.0,0.0,0.0,0.0,0.0,0.0,0.0,0.0,0.0,0.0,0.0,0.0,0.0,0.0,0.0,4.6003,5.285,5.853,6.1852,6.2411,6.2523,6.2458,5.8792,5.3589,4.6796,0.0,0.0,0.0,0.0,0.0,0.0,0.0,0.0,0.0,0.0,0.0,0.0,0.0,0.0,0.0,0.0,0.0,0.0,0.0,0.0,0.0,0.0,0.0,0.0,0.0,0.0,0.0,0.0,0.0,0.0,0.0,0.0,0.0,0.0,0.0,0.0,0.0,0.0,0.0,0.0,0.0,0.0,0.0,0.0,0.0,0.0,0.0,0.0,0.0,0.0,0.0,0.0,0.0,0.0,0.0,0.0,0.0,0.0,0.0,0.0,0.0,0.0,0.0,0.0,0.0,0.0,0.0,0.0,0.0,0.0,0.0,0.0,0.0,0.0,0.0,0.0,0.0,0.0,0.0,0.0,0.0,0.0,0.0,0.0,0.0,0.0,0.0,0.0,0.0,0.0,0.0,0.0,0.0,0.0,0.0,0.0,0.0,0.0,0.0,0.0,0.0,0.0,4.6896,5.4258,6.0268,6.3458,6.4458,6.4855,6.4701,6.1543,5.6742,4.9933,0.0,0.0,0.0,0.0,0.0,0.0,0.0,0.0,0.0,0.0,0.0,0.0,0.0,0.0,0.0,0.0,0.0,0.0,0.0,0.0,0.0,0.0,0.0,0.0,0.0,0.0,0.0,0.0,0.0,0.0,0.0,0.0,0.0,0.0,0.0,0.0,0.0,0.0,0.0,0.0,0.0,0.0,0.0,0.0,0.0,0.0,0.0,0.0,0.0,0.0,0.0,0.0,0.0,0.0,0.0,0.0,0.0,0.0,0.0,0.0,3.6906,0.0,0.0,0.0,0.0,0.0,0.0,0.0,0.0,0.0,0.0,0.0,0.0,0.0,0.0,0.0,0.0,0.0,0.0,0.0,0.0,0.0,0.0,0.0,0.0,0.0,0.0,0.0,0.0,0.0,0.0,0.0,0.0,0.0,0.0,0.0,0.0,0.0,0.0,0.0,0.0,0.0,4.8616,5.6518,6.2452,6.4359,6.5241,6.5157,6.3753,6.1728,5.7627,5.0856,0.0,0.0,0.0,0.0,0.0,0.0,0.0,0.0,0.0,0.0,0.0,0.0,0.0,0.0,0.0,0.0,0.0,0.0,0.0,0.0,0.0,0.0,0.0,0.0,0.0,0.0,0.0,0.0,0.0,0.0,0.0,0.0,0.0,0.0,0.0,0.0,0.0,0.0,0.0,0.0,0.0,0.0,0.0,0.0,0.0,0.0,0.0,0.0,0.0,0.0,0.0,0.0,0.0,0.0,0.0,0.0,0.0,0.0,0.0,0.0,0.0,3.9882,0.0,0.0,0.0,0.0,0.0,0.0,0.0,0.0,0.0,0.0,0.0,0.0,0.0,0.0,0.0,0.0,0.0,0.0,0.0,0.0,0.0,0.0,0.0,0.0,0.0,0.0,0.0,0.0,0.0,0.0,0.0,0.0,0.0,0.0,0.0,0.0,0.0,0.0,0.0,0.0,5.025,5.7332,6.2741,6.517,6.5781,6.5635,6.4677,6.2998,5.9819,5.4664,4.9586,0.0,0.0,0.0,0.0,0.0,0.0,0.0,0.0,0.0,0.0,0.0,0.0,0.0,0.0,0.0,0.0,0.0,0.0,0.0,0.0,0.0,0.0,0.0,0.0,0.0,0.0,0.0,0.0,0.0,0.0,0.0,0.0,0.0,0.0,0.0,0.0,0.0,0.0,0.0,0.0,0.0,0.0,0.0,0.0,0.0,0.0,0.0,0.0,0.0,0.0,0.0,0.0,0.0,0.0,5.2145,5.0724,5.1552,5.2237,5.2723,5.0085,4.8083,4.6458,0.0,0.0,0.0,0.0,0.0,0.0,0.0,0.0,0.0,0.0,0.0,0.0,0.0,0.0,0.0,0.0,0.0,0.0,0.0,0.0,0.0,0.0,0.0,0.0,0.0,4.8762,4.8106,0.0,0.0,0.0,0.0,0.0,0.0,0.0,0.0,0.0,0.0,0.0,0.0,5.185,5.7815,6.2643,6.5771,6.6029,6.5919,6.5765,6.4383,6.205,5.8511,5.3549,4.8432,0.0,0.0,0.0,0.0,0.0,0.0,0.0,0.0,0.0,0.0,0.0,0.0,0.0,0.0,0.0,0.0,0.0,0.0,0.0,0.0,0.0,0.0,0.0,0.0,0.0,0.0,0.0,0.0,0.0,0.0,0.0,0.0,3.1261,3.248,0.0,0.0,0.0,0.0,0.0,0.0,0.0,0.0,0.0,0.0,0.0,0.0,0.0,0.0,5.1601,5.6575,5.9847,6.1369,6.0403,5.9788,5.955,6.0304,6.0704,6.0796,6.0958,0.0,5.0207,4.971,0.0,0.0,0.0,0.0,0.0,0.0,0.0,0.0,0.0,0.0,0.0,0.0,0.0,0.0,0.0,0.0,0.0,0.0,0.0,0.0,0.0,0.0,5.2305,5.3404,5.4332,5.4542,0.0,4.6868,4.1181,3.8873,0.0,0.0,0.0,0.0,0.0,0.0,0.0,0.0,5.3605,5.9573,6.3973,6.5812,6.602,6.5664,6.4845,6.4551,6.2666,5.855,5.6857,5.3703,4.8625,4.4355,0.0,0.0,0.0,0.0,0.0,0.0,0.0,0.0,0.0,0.0,0.0,0.0,0.0,0.0,0.0,0.0,0.0,0.0,0.0,0.0,0.0,0.0,0.0,0.0,0.0,0.0,0.0,0.0,0.0,3.2154,3.5679,3.5547,3.6852,3.6879,0.0,0.0,0.0,0.0,0.0,0.0,0.0,0.0,0.0,4.9926,4.9751,5.2806,5.9404,6.195,6.3456,6.4,6.3544,6.3507,6.3844,6.4205,6.4564,6.4987,6.532,6.3368,5.9699,5.5441,5.2008,4.9241,0.0,0.0,0.0,0.0,0.0,4.6425,4.95,0.0,0.0,0.0,0.0,0.0,0.0,0.0,0.0,0.0,0.0,0.0,0.0,0.0,0.0,5.725,5.8294,5.8642,5.783,5.4353,5.0185,0.0,4.466,4.2421,3.6942,0.0,0.0,0.0,0.0,0.0,5.5382,6.0015,6.3576,6.5789,6.5972,6.5769,6.5359,6.4897,6.3589,6.1281,5.9396,5.678,5.3087,4.8894,4.4624,0.0,0.0,0.0,0.0,0.0,0.0,0.0,0.0,0.0,0.0,0.0,0.0,0.0,0.0,0.0,0.0,0.0,0.0,0.0,0.0,0.0,0.0,0.0,0.0,0.0,0.0,0.0,0.0,3.6016,3.9396,3.8976,4.1388,4.1895,0.0,0.0,0.0,0.0,0.0,0.0,4.8585,5.1183,5.3569,5.5655,5.745,6.0577,6.5303,6.5953,6.6221,6.614,6.6357,6.6704,6.7179,6.7423,6.7821,6.8398,6.8398,6.8282,6.7552,6.0894,5.7097,5.528,5.2394,5.1008,5.0798,5.2319,5.2759,5.3053,5.6544,5.7258,5.6489,5.584,0.0,5.1544,4.8154,0.0,0.0,0.0,0.0,5.0912,5.4554,0.0,5.795,6.0249,6.1273,6.1544,6.0983,6.0171,5.7889,0.0,5.1122,4.8879,4.2253,0.0,0.0,0.0,0.0,5.291,5.7545,6.0839,6.3584,6.5741,6.5923,6.5897,6.5897,6.5089,6.4128,6.3051,6.1204,5.9011,5.6472,5.2933,4.9125,0.0,0.0,0.0,0.0,0.0,0.0,0.0,0.0,0.0,0.0,0.0,0.0,0.0,0.0,0.0,0.0,0.0,0.0,0.0,0.0,0.0,0.0,0.0,0.0,0.0,0.0,0.0,0.0,0.0,0.0,4.3202,4.6202,0.0,0.0,0.0,0.0,4.5676,4.8837,5.2222,5.5608,5.8209,6.0745,6.3261,6.3877,6.5211,6.7331,6.9566,7.0298,6.9579,7.035,7.0709,7.0667,7.1514,7.1898,7.1937,7.1937,7.1475,7.036,6.5974,6.3166,6.1497,5.9733,5.8038,5.6767,5.7615,5.7461,5.7054,5.8781,5.8858,5.8588,6.0896,5.888,5.5399,5.4408,5.1875,0.0,0.0,5.3682,5.534,5.9451,6.065,6.119,6.2926,6.3351,6.3411,6.3436,6.2741,6.0829,0.0,5.5011,5.3275,4.9628,0.0,5.0383,5.0254,5.3299,5.6811,6.0256,6.2991,6.4932,6.5807,6.5897,6.5897,6.5897,6.5089,6.3897,6.2243,6.205,6.0819,5.828,5.6395,5.378,5.0356,4.4509,0.0,0.0,0.0,0.0,0.0,0.0,0.0,0.0,0.0,0.0,0.0,0.0,0.0,0.0,0.0,0.0,0.0,0.0,0.0,0.0,0.0,0.0,0.0,0.0,0.0,0.0,0.0,0.0,4.686,5.0336,0.0,0.0,5.0248,5.2027,5.2578,5.5791,5.8729,6.1009,6.2993,6.4971,6.6923,6.76,6.8809,7.0555,7.1428,7.1941,7.2195,7.2519,7.2635,7.2591,7.2899,7.3053,7.3053,7.3053,7.286,7.2476,7.0937,6.8359,6.5205,6.4075,6.3306,6.2805,6.3075,6.3344,6.3614,6.4166,6.4205,6.3935,6.3743,6.232,6.0473,5.9681,5.8204,5.711,5.8572,5.921,5.9926,6.2017,6.3389,6.4393,6.4971,6.555,6.5781,6.5264,6.4492,6.3295,6.1232,5.9321,5.7137,5.4203,5.4434,5.4553,5.3417,5.6135,5.9314,6.2121,6.3753,6.496,6.582,6.5897,6.5897,6.5897,6.4589,6.3512,6.2897,6.1858,6.0358,5.8396,5.7165,5.5203,5.2356,4.8048,4.3355,0.0,0.0,0.0,0.0,0.0,0.0,0.0,0.0,0.0,0.0,0.0,0.0,0.0,0.0,0.0,0.0,0.0,0.0,0.0,0.0,0.0,0.0,0.0,0.0,0.0,0.0,5.0202,5.0741,5.4529,5.6209,5.3896,5.5961,5.7834,5.8703,6.1368,6.3685,6.5308,6.7,6.8521,6.9856,7.067,7.1595,7.2685,7.3262,7.384,7.4361,7.4956,7.5225,7.5207,7.5207,7.5207,7.5168,7.4899,7.463,7.4322,7.4053,7.2091,6.9167,6.8359,6.7859,6.759,6.759,6.7936,6.8321,6.8052,6.7782,6.7359,6.6244,6.5282,6.4474,6.3935,6.3166,6.2704,6.3561,6.3815,6.4008,6.4941,6.5982,6.683,6.683,6.7253,6.7523,6.6969,6.6429,6.5874,6.5357,6.2969,6.0441,5.8394,5.8741,5.8721,5.6963,5.9331,6.1928,6.3599,6.4537,6.5359,6.6205,6.6051,6.5897,6.5897,6.4051,6.2897,6.2897,6.105,5.9319,5.7934,5.6742,5.5088,5.2818,4.8586,4.4316,4.0085,0.0,0.0,0.0,0.0,0.0,0.0,0.0,0.0,0.0,0.0,0.0,0.0,0.0,0.0,0.0,0.0,0.0,0.0,0.0,0.0,0.0,0.0,0.0,4.6244,5.0048,5.3358,5.5017,5.8837,6.0691,5.9109,6.1079,6.2818,6.3685,6.5329,6.6985,6.8613,7.0271,7.1557,7.2327,7.3239,7.3674,7.363,7.5245,7.6092,7.6092,7.7707,7.8477,7.8477,7.8477,7.8477,7.8438,7.7669,7.6861,7.6015,7.5168,7.4361,7.3553,7.2591,7.1706,7.0975,7.0975,7.0975,7.086,7.009,6.9283,6.8552,6.8552,6.7975,6.7244,6.7205,6.6667,6.6167,6.6936,6.7128,6.7321,6.8167,6.8436,6.8436,6.8436,6.8436,6.8436,6.8514,6.8539,6.85,6.8574,6.589,6.3261,6.2375,6.2876,6.2852,6.1228,6.3137,0.0,6.4705,6.5474,6.6282,6.7013,6.6397,6.5936,6.5897,6.3589,6.2127,6.2089,5.9742,5.7934,5.7049,5.5434,5.3741,5.1972,4.624,4.2047,3.9431,0.0,0.0,0.0,0.0,0.0,0.0,0.0,0.0,0.0,0.0,0.0,0.0,0.0,0.0,0.0,0.0,0.0,0.0,0.0,0.0,0.0,0.0,4.9605,4.9874,5.3455,5.7139,6.0094,6.2488,6.3917,6.4054,6.5209,6.6306,6.717,6.8776,7.018,7.1299,7.2367,7.3304,7.4087,7.4917,7.562,7.6245,7.7284,7.7823,7.7823,7.8284,7.8477,7.8477,7.8477,7.8477,7.8477,7.8246,7.8015,7.7784,7.7553,7.7323,7.6861,7.4207,7.3014,7.2783,7.2783,7.2783,7.2745,7.2552,7.2322,7.2091,7.2091,7.1514,7.0667,7.0052,6.9283,6.8552,6.8167,6.8052,6.809,6.8359,6.8859,6.936,6.936,6.936,6.936,6.9386,6.8886,6.8424,6.845,6.7654,6.6602,6.5187,6.407,6.3661,6.4383,0.0,0.0,6.7205,6.7552,6.7552,6.7128,6.6898,6.6513,6.5936,6.3871,6.2464,0.0,6.0035,5.8284,5.7049,5.6549,5.5203,5.2895,4.9433,4.6086,0.0,0.0,0.0,0.0,0.0,0.0,0.0,0.0,0.0,0.0,0.0,0.0,0.0,0.0,0.0,0.0,0.0,0.0,0.0,0.0,0.0,0.0,5.1622,5.488,5.6323,5.8564,6.1018,6.3706,6.544,6.6885,6.8066,6.8598,6.9359,7.0593,7.1596,7.2675,7.3856,7.4329,7.5148,7.6303,7.6813,7.7284,7.7784,7.8631,7.9054,7.9054,7.94,7.9492,7.9292,7.9492,7.9492,0.0,7.9107,7.9054,7.9015,7.8631,7.8477,0.0,0.0,0.0,0.0,0.0,7.4861,7.4514,7.413,7.3783,7.3514,7.3514,7.3168,7.2668,7.2129,7.1668,7.1206,7.0667,7.0552,7.0552,7.0552,7.0898,7.1283,7.1283,7.1283,7.1206,7.0821,7.036,6.9898,6.9513,0.0,0.0,6.7718,6.6409,6.5716,6.6282,6.6705,6.7321,0.0,6.8398,6.8359,6.8205,6.7859,6.7384,6.6748,6.4585,0.0,0.0,0.0,5.8068,5.6049,0.0,0.0,0.0,0.0,0.0,0.0,0.0,0.0,0.0,4.314,4.2986,0.0,0.0,0.0,0.0,0.0,0.0,0.0,0.0,0.0,0.0,0.0,0.0,0.0,0.0,0.0,0.0,5.6521,6.0383,6.3522,6.4193,6.491,6.635,6.788,6.945,7.1081,7.1262,7.1941,7.3625,7.3817,7.456,7.6053,0.0,0.0,0.0,0.0,7.8631,7.8631,7.9592,8.0092,8.0092,8.0907,8.1095,8.0697,8.1022,8.095,8.0468,8.0064,7.9851,7.9736,7.8929,7.8622,7.8615,7.8492,7.8416,7.8339,7.7578,7.6878,0.0,0.0,0.0,0.0,7.3976,7.3937,7.3899,7.3707,7.363,7.363,7.3553,7.3447,7.3418,7.3418,7.3389,7.336,7.336,7.336,7.3129,7.2361,7.2237,7.2035,7.1266,7.0563,7.0129,7.0129,6.9167,6.8167,6.7475,6.8052,0.0,6.8614,6.8641,6.891,6.9509,0.0,0.0,6.7757,6.5518,6.3638,6.2391,6.0327,5.7927,5.5253,5.3605,5.2433,5.1702,5.2318,5.301,5.378,5.4549,5.4972,5.4895,4.7817,4.6932,0.0,0.0,0.0,0.0,0.0,0.0,0.0,0.0,0.0,0.0,0.0,0.0,0.0,0.0,0.0,5.5822,5.9958,6.3428,6.5363,6.7378,6.8757,6.9099,6.9976,7.0928,7.1994,7.2646,7.3427,7.4427,7.5159,7.6005,7.6976,7.7669,0.0,7.8477,7.9169,7.9554,7.9554,8.1054,8.1823,8.1823,0.0,0.0,8.2378,8.206,8.1512,8.0824,8.0718,8.0342,7.9695,7.9543,7.9467,7.9394,7.833,7.7938,7.7865,7.7341,7.7523,7.7946,7.739,7.7374,7.7438,7.6784,7.6553,7.6284,7.4899,7.4476,0.0,7.3668,7.3231,7.2931,7.2931,7.2688,7.2434,7.2434,7.2434,7.2396,7.2244,7.2459,7.2625,7.2472,7.2609,7.2783,7.2783,7.036,6.859,6.9129,6.936,6.9585,6.9896,7.022,6.997,6.878,6.8864,6.8521,6.7385,6.5993,6.4558,6.3265,6.1164,5.9693,5.9125,5.8434,5.7973,5.778,5.7319,5.7165,5.7319,5.7473,5.7896,5.8434,5.4895,5.378,0.0,0.0,0.0,0.0,0.0,0.0,0.0,0.0,0.0,0.0,0.0,4.7456,4.9988,0.0,5.6752,6.0557,6.3257,6.5566,6.7672,6.9373,7.0388,7.0439,7.1159,7.2107,7.3378,7.4273,7.5091,7.5938,7.6784,7.763,7.8515,7.8938,7.9361,7.9785,8.0208,8.0631,8.1054,8.1628,8.2173,8.2633,8.2527,8.239,8.2172,8.2127,8.1763,8.116,8.0976,8.0877,8.0839,8.046,7.9955,7.932,7.8674,7.8546,7.8671,7.7969,7.8022,7.8368,7.7684,7.7608,7.7755,7.7335,7.7184,7.7031,7.6153,7.5618,7.5198,7.4816,7.4252,7.3763,7.3763,7.3611,7.3414,7.3414,7.3414,7.33,7.2884,7.2927,7.2965,7.2584,7.2691,7.283,7.283,7.1417,7.0592,7.1458,7.141,7.1306,7.1527,7.1733,7.1445,7.0422,7.0497,7.0156,6.886,6.6903,6.5357,6.4406,6.2591,6.1538,6.1459,6.0862,6.0405,6.0165,6.0165,6.0204,6.0204,6.0627,6.1012,6.1396,6.055,5.9704,0.0,0.0,0.0,0.0,0.0,0.0,0.0,0.0,4.4013,4.66,4.9776,5.2877,5.5576,5.8122,6.0955,6.4535,6.6036,6.7509,6.9733,7.0709,7.1364,7.1672,7.2272,7.3206,7.4591,7.563,7.6553,7.7246,7.8207,7.9054,7.9746,7.9977,8.0407,8.1189,8.1228,8.1541,8.228,8.2072,8.2299,8.2985,8.2633,8.2254,8.1895,8.2195,8.2021,8.1477,8.1016,8.1245,8.1774,8.1132,8.0252,7.9341,7.9341,7.9553,7.9781,7.8716,7.8511,7.8528,7.776,7.7495,7.7581,7.7392,7.7354,7.7316,7.7164,7.652,7.5918,7.5918,7.5229,7.4544,7.4544,7.4497,7.4455,7.4455,7.4455,7.4266,7.3544,7.359,7.3519,7.2724,7.2768,7.2884,7.2694,7.2614,7.2737,7.3176,7.2931,7.2653,7.2581,7.2653,7.247,7.1999,7.2041,7.1652,7.0496,6.8073,6.6379,6.5951,6.4462,6.3578,6.3454,6.2811,6.2366,6.2145,6.2757,6.3128,6.332,6.3974,6.4282,6.432,6.5013,6.4436,3.7251,3.7058,3.8528,4.1661,4.2512,4.4407,0.0,0.0,5.2785,5.5358,5.795,5.9862,6.0248,6.2408,6.4508,6.5666,6.7856,6.9733,7.0735,7.1568,7.2619,7.4091,7.4361,7.4476,7.4668,7.6207,7.7207,7.7284,7.8746,7.9708,7.9785,8.0516,8.1124,8.1499,8.1537,8.1726,8.2152,8.2867,8.324,8.3354,8.3552,8.3674,8.3622,8.321,8.2648,8.1884,8.1047,8.0805,8.0879,8.0768,8.0638,8.0507,8.0507,8.0563,8.0432,7.8905,7.8853,7.9513,7.8982,7.9047,7.9291,7.8533,7.8268,7.8116,7.7316,7.652,7.5918,7.5918,7.5016,7.4101,7.4101,7.3811,7.354,7.354,7.354,7.354,7.3429,7.4298,7.4853,7.3989,7.4714,7.5274,7.4553,7.4067,7.3446,7.2508,7.2281,7.2122,7.1783,7.2041,7.1958,7.113,7.1424,7.1433,7.0871,6.9211,6.8208,6.8145,6.6918,6.6162,6.6131,6.6049,6.6292,6.7011,6.6688,6.6936,6.7705,6.7782,6.7821,6.7821,6.7936,6.709,4.3595,4.3866,4.4949,0.0,4.9629,5.1083,5.5243,5.6307,5.6964,5.8974,6.1039,6.2755,6.372,6.5141,6.6791,0.0,6.9746,7.0914,7.2234,7.2734,7.3206,7.3937,7.4399,7.5091,7.6092,7.7284,7.8207,7.8707,7.9862,8.0651,8.0838,8.1183,8.1537,8.1901,8.1901,8.219,8.2847,8.2906,8.3175,8.3665,8.3597,8.3508,8.3508,8.3297,8.2734,8.1991,8.2103,8.1583,8.0728,8.1248,8.1137,8.0691,8.0691,8.0691,8.0617,7.9948,7.9684,7.9566,7.9343,7.9112,7.8816,7.8441,7.8329,7.8254,7.7917,7.7242,7.6605,7.6605,7.5857,7.5072,7.5072,7.4904,7.4784,7.4784,7.4784,7.4784,7.4784,7.5254,7.5482,7.5146,7.5483,7.5593,7.4768,7.4473,7.4001,7.3035,7.3086,7.322,7.2996,7.3176,7.2996,7.2434,7.2125,7.1876,7.1663,7.0586,6.9917,6.9917,6.9405,6.9004,6.8784,6.8291,6.8184,6.8515,6.7867,6.7784,6.8398,6.8398,6.8667,6.9167,6.9629,6.9744,4.7618,4.8879,0.0,5.3442,5.5165,5.6578,5.8201,5.9224,6.0267,6.1692,6.3174,6.4563,6.5797,6.6844,6.8206,7.0324,7.1002,7.186,7.3591,7.3543,7.3437,7.3667,7.3883,7.4696,7.6421,7.777,7.8715,7.9236,8.0471,8.1259,8.1382,8.1649,8.1901,8.2246,8.2199,8.2567,8.3337,8.2969,8.3056,8.3692,8.3376,8.318,8.318,8.318,8.2883,8.2363,8.2957,8.2511,8.1434,8.2066,8.1954,8.1397,8.1397,8.1397,8.1397,8.1397,8.0728,7.9837,7.9837,7.9428,7.8945,7.8945,7.8796,7.8611,7.8611,7.7905,7.7087,7.7087,7.6456,7.5787,7.5787,7.5787,7.5787,7.5787,7.5787,7.5787,7.5787,7.5973,7.6084,7.5824,7.5973,7.5899,7.5044,7.4933,7.471,7.4153,7.4325,7.4346,7.3896,7.4046,7.4051,7.3759,7.3187,7.2741,7.2518,7.1738,7.1255,7.1255,7.1032,7.0772,7.0471,7.0009,6.9841,6.9874,6.9437,6.9391,6.9821,6.9821,7.0129,7.0783,7.136,7.1975,4.7347,5.014,5.3644,5.5382,5.7699,5.9973,6.1692,6.2734,6.3621,6.4508,6.535,6.5919,6.5996,6.7295,6.8667,6.959,7.1091,7.2745,7.4437,7.3667,7.3204,7.3968,7.3001,7.2926,0.0,7.705,7.8315,7.7905,8.0162,8.1382,8.0921,8.1634,8.2199,8.2571,8.2571,8.2794,8.3202,8.3202,8.3239,8.3239,8.318,8.318,8.318,8.318,8.318,8.3143,8.318,8.3143,8.3106,8.3143,8.3143,8.3106,8.3106,8.3106,8.3106,8.3106,8.2066,8.0654,8.0654,8.0654,8.0617,8.0617,8.0097,7.9465,7.9465,7.8351,7.7087,7.7087,7.6456,7.5787,7.5787,7.5787,7.5787,7.5787,7.5787,7.5787,7.5787,7.6456,7.679,7.5936,7.6456,7.6753,7.5899,7.575,7.575,7.5713,7.5713,7.5209,7.3647,7.4131,7.4614,7.4561,7.4524,7.419,7.341,7.2592,7.2146,7.2146,7.1366,7.092,7.0883,7.1294,7.1713,7.209,7.2465,7.2876,7.336,7.336,7.336,7.3399,7.3399,7.3437,5.2249,5.4784,5.7525,6.0941,6.2849,6.4332,6.5982,6.6174,6.6059,6.628,6.5216,6.4537,6.5692,6.5923,6.6898,6.9975,7.1437,7.2976,7.5245,7.4938,7.4201,7.3395,7.3611,0.0,0.0,0.0,0.0,7.8098,7.954,8.058,8.1167,8.1995,8.2608,8.3004,8.2985,8.3077,8.318,8.318,8.318,8.318,8.318,8.318,8.3217,8.3737,8.3997,8.4035,8.4555,8.4778,8.4778,8.48,8.48,8.4763,8.4168,8.3982,8.3982,8.396,8.3292,8.2288,8.1731,8.1174,8.0691,8.0691,8.0505,8.0208,7.9651,7.9465,7.9354,7.8833,7.8462,7.8239,7.8239,7.783,7.7459,7.7459,7.7459,7.7459,7.7459,7.7682,7.7793,7.7496,7.7682,7.7608,7.679,7.6642,7.6456,7.5899,7.5787,7.5601,7.5044,7.523,7.5378,7.5378,7.5378,7.5267,7.5007,7.4747,7.4561,7.4561,7.4301,7.393,7.3372,7.2968,7.2715,7.2617,7.2507,7.2617,7.3029,7.336,7.4091,7.5168,7.5168,7.5745,5.6367,5.8893,6.1456,6.481,6.6251,6.7113,6.8244,6.7795,6.7064,6.6769,6.4628,6.3205,6.432,6.3589,6.4359,6.9206,7.0744,7.2486,7.5749,7.5574,7.4637,7.3422,7.3552,7.3439,0.0,0.0,0.0,7.7552,7.9328,8.0527,8.1147,8.2216,8.2949,8.318,8.3477,8.3477,8.318,8.3775,8.4035,8.4035,8.4035,8.4035,8.4072,8.4592,8.4815,8.4852,8.5372,8.5595,8.5595,8.5558,8.5618,8.5544,8.5046,8.4823,8.4844,8.4837,8.448,8.396,8.3143,8.2288,8.1583,8.1583,8.1397,8.0988,8.0171,8.0282,8.0505,7.9725,7.9688,7.9911,7.9911,7.9539,7.9168,7.9168,7.9168,7.9056,7.8796,7.8722,7.8611,7.8351,7.8276,7.8128,7.7608,7.7533,7.731,7.6753,7.6679,7.6567,7.6307,7.6233,7.6233,7.6233,7.6233,7.6121,7.5824,7.5787,7.5787,7.5787,7.5787,7.5564,7.5044,7.4524,7.4225,7.4113,7.3866,7.4025,7.4587,7.4861,7.5664,7.6899,7.6899,7.7476,5.9472,6.2359,6.5279,6.6896,6.7949,6.8552,6.8552,6.7782,6.6859,6.6013,6.3705,6.182,0.0,0.0,6.1358,6.7244,6.9102,7.1372,7.5956,7.5589,7.4653,0.0,0.0,0.0,0.0,0.0,0.0,7.6541,0.0,8.1185,8.0822,8.2326,8.3254,8.3254,8.4035,8.4072,8.3329,8.4852,8.5595,8.5595,8.5595,8.5595,8.5595,8.5632,8.5669,8.5669,8.5706,8.5743,8.5743,8.5743,8.5706,8.573,8.5693,8.5641,8.5626,8.5678,8.5632,8.5534,8.4778,8.396,8.3254,8.3254,8.2697,8.188,8.1025,8.0802,8.0654,7.9837,8.0171,8.0765,8.0765,8.0728,8.0691,8.0691,8.0691,8.0468,7.9725,7.9539,7.9316,7.8573,7.8425,7.8425,7.8425,7.8425,7.8388,7.8351,7.8388,7.809,7.7273,7.7162,7.7162,7.7162,7.7162,7.6827,7.5973,7.5936,7.5936,7.5936,7.5936,7.5899,7.5861,7.5861,7.6051,7.6477,7.6477,7.691,7.772,7.7757,7.8045,7.8523,7.8592,7.8669,6.2606,6.537,6.7731,6.8809,6.9667,7.0244,7.0244,6.8629,6.6667,6.5243,6.1396,5.8088,0.0,0.0,0.0,6.482,6.8637,0.0,7.6112,7.6786,0.0,7.5098,0.0,7.6307,7.5267,7.705,0.0,0.0,7.9501,8.0489,8.1583,8.3217,8.4072,8.4072,8.4852,8.5186,8.5,8.5409,8.5595,8.5595,8.5595,8.5595,8.5632,8.6226,8.6486,8.6524,8.7192,8.7452,8.7452,8.7452,8.7452,8.7378,8.6733,8.651,8.6524,8.6473,8.6078,8.5683,8.6091,8.5237,8.4072,8.4072,8.3552,8.2734,8.1917,8.2066,8.2363,8.1583,8.1508,8.1657,8.1657,8.1174,8.0691,8.0691,8.0691,8.0617,8.0431,8.0394,8.032,8.0134,8.0097,8.0097,8.0097,8.0097,7.9874,7.9279,7.9688,7.9576,7.8165,7.7979,7.7979,7.7979,7.7979,7.7905,7.7682,7.7645,7.7645,7.7645,7.7645,7.7385,7.679,7.6753,7.651,7.5999,7.6331,7.6583,7.6821,7.7493,7.8211,7.8968,7.9966,8.0746,6.6294,6.8732,7.0667,7.0783,7.1129,7.086,6.8629,6.6744,6.4436,6.0896,5.728,0.0,5.3164,5.4664,0.0,0.0,0.0,0.0,7.5509,7.7002,7.7479,0.0,7.7638,0.0,7.7459,7.8982,8.0171,0.0,8.058,8.1137,8.2437,8.37,8.4555,8.4926,8.5706,8.6301,8.6672,8.6301,8.6301,8.6709,8.6709,8.6709,8.6709,8.7155,8.7378,8.7378,0.0,8.8084,8.8084,8.8084,8.8084,8.8047,8.7551,8.7155,8.6771,8.6821,8.6301,8.5645,8.6128,8.5683,8.4926,8.4926,8.4629,8.4109,8.3292,8.3626,8.4072,8.3254,8.3032,8.3032,8.3032,8.2437,8.1806,8.1806,8.1806,8.1694,8.1323,8.1248,8.1137,8.0765,8.0691,8.0691,8.0691,8.0691,8.0542,8.0097,8.0394,8.0357,7.9465,7.9056,7.8833,7.8833,7.8833,7.8833,7.8833,7.9131,7.9354,7.9354,7.9354,7.9131,7.8685,7.8685,7.8425,7.7942,7.8229,7.8452,7.8666,7.9109,7.9765,8.0423,8.1194,8.1915,6.9898,7.1822,7.3255,7.2342,7.2035,7.0651,6.5654,6.3617,6.1118,5.5357,0.0,5.0779,4.9356,5.1241,5.4633,5.9578,0.0,7.0421,7.4816,7.6852,7.799,7.8406,7.8648,7.9056,7.9762,8.0542,8.1397,8.2251,8.2326,8.2623,8.3329,8.422,8.5075,8.5892,8.6598,8.7341,8.8084,8.7341,8.7341,8.8084,8.8084,8.8084,8.8084,8.8084,8.8084,8.8084,0.0,0.0,8.8084,8.8084,8.8084,8.8084,8.8084,8.7613,8.6957,8.6945,8.6524,8.5892,8.5966,8.5966,8.5892,8.5669,8.5595,8.5483,8.4778,8.5038,8.5446,8.474,8.4555,8.4555,8.4555,8.4035,8.3477,8.3366,8.3366,8.3143,8.2326,8.214,8.1917,8.1174,8.1025,8.1025,8.1025,8.1025,8.0988,8.0877,8.0951,8.0988,8.0877,8.0134,7.9651,7.9651,7.9651,7.9651,7.9651,8.0282,8.0691,8.0691,8.0691,8.0691,8.0691,8.0691,8.0691,8.0691,8.0691,8.0935,8.1342,8.1356,8.1607,8.2036,8.2248,8.2585,7.2245,7.3168,7.3226,7.1995,7.1204,6.952,6.5091,6.1812,0.0,0.0,4.9933,4.7702,4.7394,4.9971,5.4134,6.0199,6.5255,7.0264,7.5558,7.7401,7.8461,0.0,0.0,0.0,0.0,0.0,0.0,0.0,0.0,0.0,8.4183,8.5595,8.6784,8.7638,8.7787,8.7935,8.8084,8.7935,8.7935,8.8084,8.8084,8.8084,8.8084,8.8084,8.8084,8.8084,0.0,0.0,8.8084,8.8084,8.8084,8.8084,8.8084,8.801,8.7861,8.7846,8.7794,8.7637,8.7674,8.7687,8.7415,8.6041,8.5595,8.5558,8.5409,8.5483,8.5558,8.5409,8.5372,8.5372,8.5372,8.5298,8.5,8.4332,8.4183,8.396,8.3143,8.2994,8.2957,8.2771,8.2771,8.2771,8.2771,8.2771,8.2549,8.1843,8.2326,8.2511,8.1843,8.1025,8.0468,8.0468,8.0468,8.0468,8.0468,8.0617,8.0691,8.0691,8.0691,8.0691,8.0691,8.0691,8.0691,8.0691,8.0691,8.0748,8.0824,8.1185,8.1457,8.1558,8.3074,8.3586,7.3207,7.432,7.432,7.2421,7.1159,6.8661,6.2033,0.0,0.0,0.0,4.5936,4.4778,4.4316,4.774,5.1902,5.5893,6.0648,6.5953,7.2069,7.4197,0.0,7.9725,8.1211,0.0,0.0,0.0,0.0,0.0,0.0,0.0,8.5,8.6152,8.7192,8.8047,8.8084,8.8084,8.8084,8.8084,8.8084,8.8084,8.8084,8.8084,8.8084,8.8084,8.8084,8.8084,8.8084,0.0,8.8084,8.8084,8.8084,8.8084,8.8084,8.7824,8.739,8.7427,8.7204,8.6821,8.6821,8.7081,8.7267,8.6486,8.6226,8.6152,8.5743,8.5595,8.5669,8.6115,8.5632,8.5149,8.6004,8.5298,8.4443,8.4926,8.5,8.4926,8.4518,8.4443,8.4443,8.4443,8.4443,8.4295,8.3886,8.3812,8.3552,8.2734,8.2957,8.3032,8.266,8.2251,8.1843,8.1397,8.136,8.136,8.136,8.1768,8.1991,8.1991,8.1991,8.2177,8.2586,8.2623,8.2623,8.2623,8.3032,8.3032,8.2623,8.3284,8.3583,8.3639,8.4478,8.4921,7.3556,7.5025,7.5365,7.2737,7.1104,6.7859,5.9171,5.5122,0.0,4.4166,4.2639,4.2431,4.2162,4.5589,4.9362,5.1982,5.6285,6.1733,6.8714,7.1441,7.4673,0.0,8.1768,0.0,0.0,0.0,0.0,0.0,0.0,0.0,8.5855,8.6635,8.7304,8.7787,8.801,8.8084,8.8084,8.8084,8.8084,8.8084,8.8084,8.8084,8.8084,8.8084,8.8084,8.8084,8.8084,0.0,0.0,8.8084,8.8195,8.8307,8.8158,8.7824,8.7316,8.7167,8.6697,8.6152,8.6152,8.6573,8.7044,8.6858,8.6932,8.6969,8.6338,8.6152,8.6264,8.6895,8.6152,8.5483,8.6747,8.5669,8.4518,8.5595,8.5743,8.5595,8.5595,8.5595,8.5595,8.5595,8.5595,8.5409,8.4778,8.4666,8.4443,8.3812,8.37,8.37,8.37,8.37,8.3477,8.2846,8.2437,8.2251,8.2251,8.2846,8.318,8.318,8.3366,8.3737,8.4369,8.4555,8.4666,8.4666,8.5261,8.5298,8.4666,8.5298,8.5595,8.5595,8.5715,8.5972,7.3334,7.498,7.5236,7.2353,7.0423,6.6999,5.8653,0.0,4.9484,4.3857,4.1642,4.12,4.2701,4.4403,4.7289,5.2445,5.6011,6.0862,6.8628,7.2406,7.5936,8.0208,0.0,0.0,8.3254,0.0,0.0,0.0,0.0,0.0,0.0,8.749,8.7638,8.6932,8.7675,8.8084,8.8084,8.8084,8.8084,8.8084,8.8084,8.8084,8.8084,8.8084,8.8084,8.8084,0.0,0.0,0.0,8.8084,8.8555,8.9138,8.8406,8.8518,8.8964,8.8233,8.7935,8.7898,8.7898,8.7935,8.7824,8.7044,8.7341,8.7973,8.7898,8.7861,8.7898,8.7935,8.7861,8.7787,8.7935,8.7824,8.749,8.6821,8.6115,8.5595,8.5595,8.5595,8.5595,8.5595,8.5595,8.5558,8.5483,8.5483,8.5446,8.5372,8.5372,8.5372,8.5372,8.5372,8.5335,8.5261,8.396,8.3069,8.3069,8.3143,8.318,8.318,8.3886,8.4295,8.4406,8.5112,8.5483,8.5483,8.5558,8.5558,8.5483,8.5558,8.5595,8.5595,8.6106,8.605,7.2951,7.4585,7.4653,7.2501,6.9776,6.5824,5.8758,5.3412,4.8415,4.329,4.1081,4.0597,4.2314,4.3069,4.4962,4.9483,5.0836,5.4086,6.1974,6.5088,6.9137,7.6196,7.9651,0.0,0.0,0.0,0.0,0.0,0.0,0.0,0.0,8.7118,8.7378,8.7564,8.7898,8.8084,8.8084,8.8084,8.8084,8.8084,8.8084,8.8084,8.8084,8.8084,8.8084,8.8084,0.0,0.0,0.0,8.8084,8.827,8.8592,8.8228,8.8329,8.8555,8.8195,8.8084,8.8084,8.8084,8.8084,8.8047,8.7712,8.7824,8.7898,8.6895,8.6598,8.6709,8.7192,8.6969,8.6821,8.7824,8.8084,8.7861,8.7007,8.6969,8.7081,8.7081,8.7081,8.7081,8.7081,8.7081,8.6932,8.6412,8.6301,8.6152,8.5669,8.5595,8.5595,8.5595,8.5595,8.5595,8.5595,8.5038,8.4629,8.4629,8.4629,8.4629,8.4629,8.4926,8.5335,8.5818,8.6152,8.6301,8.6301,8.6821,8.6858,8.6301,8.6858,8.7081,8.7081,8.7325,8.7325,7.1524,7.3771,7.4222,7.2274,6.9127,6.4865,5.8557,5.2862,4.7634,4.3192,4.1165,4.0631,4.2048,4.2456,4.3542,4.6523,4.7454,5.0318,5.7364,6.0407,6.4716,7.2258,0.0,0.0,0.0,0.0,0.0,0.0,0.0,0.0,0.0,8.7192,8.7341,8.7712,8.7973,8.8084,8.8084,8.8084,8.8084,8.8084,8.8084,8.8084,8.8084,8.8084,8.8084,8.8084,0.0,0.0,0.0,8.8084,8.8233,8.8418,8.8164,8.8228,8.8444,8.8158,8.8084,8.8084,8.8084,8.8084,8.8084,8.8084,8.8084,8.7898,8.6969,8.6672,8.6747,8.7081,8.6784,8.6598,8.7787,8.8084,8.7935,8.7341,8.7638,8.8084,8.8084,8.8084,8.8084,8.8084,8.8084,8.7898,8.7304,8.7192,8.6969,8.6412,8.6338,8.6412,8.6672,8.6672,8.6784,8.7007,8.7044,8.6672,8.5669,8.5595,8.5595,8.5595,8.5818,8.6189,8.6784,8.7044,8.7192,8.7192,8.7787,8.7787,8.7192,8.8047,8.8307,8.8084,8.8567,8.879,6.8884,7.2432,7.4004,7.1552,6.8468,6.4308,5.7806,5.2004,4.7072,4.3867,4.207,4.1329,4.2162,4.2775,4.3455,4.429,4.7602,5.1825,5.6803,6.1001,6.5125,0.0,0.0,0.0,0.0,0.0,0.0,0.0,0.0,0.0,0.0,8.8084,8.7712,8.6821,8.7638,8.8084,8.8084,8.8084,8.8084,8.8084,8.8084,8.8084,8.8084,8.8084,8.8084,0.0,0.0,0.0,0.0,8.8084,8.8592,8.9212,8.8444,8.8592,8.9212,8.8406,8.8084,8.8084,8.8084,8.8084,8.8084,8.8084,8.8084,8.8233,8.9013,8.9273,8.9087,8.8307,8.8084,8.8084,8.8084,8.8084,8.8084,8.8084,8.8084,8.8084,8.8084,8.8084,8.8084,8.8084,8.8084,8.8084,8.8084,8.8084,8.8084,8.8084,8.8047,8.8344,8.9161,8.9273,8.957,9.035,9.0462,8.9124,8.5892,8.5595,8.5595,8.5595,8.6338,8.6784,8.6784,8.7638,8.8084,8.8084,8.8084,8.8084,8.8084,8.8901,8.8864,8.8121,8.9719,9.0462,6.2337,6.4704,6.5794,6.3862,6.1781,5.9069,5.476,5.067,4.6866,4.3618,4.2109,4.1707,4.2464,4.2818,4.4326,4.8505,5.0224,5.2531,5.6878,6.1484,0.0,6.8543,7.5267,0.0,0.0,0.0,0.0,0.0,0.0,0.0,0.0,8.8084,8.7973,8.7712,8.7935,8.8084,8.8084,8.8084,8.8084,8.8084,8.8084,8.8084,8.8084,8.8084,0.0,0.0,0.0,0.0,0.0,8.8084,8.8233,8.8481,8.8195,8.8233,8.8481,8.8158,8.8084,8.8084,8.8084,8.8493,8.8912,8.8938,8.8901,8.8976,8.9198,8.931,8.9236,8.8976,8.8901,8.879,8.8233,8.8084,8.8084,8.8084,8.8084,8.8084,8.8084,8.8084,8.8084,8.8084,8.853,8.8901,8.8901,8.9384,8.9756,8.9756,8.9756,8.983,9.009,9.0127,9.0202,9.0462,9.0499,9.009,8.905,8.8938,8.8716,8.8158,8.8381,8.827,8.7712,8.7935,8.8084,8.8084,8.8641,8.8901,8.8901,8.9719,8.9979,8.9756,9.0276,9.0499,5.7441,5.9961,6.1224,6.0184,5.8215,5.58,5.2828,4.9373,4.6104,4.3726,4.2612,4.2277,4.3095,4.3243,4.4432,4.8036,4.9633,5.1676,5.5169,6.0147,0.0,6.9806,0.0,0.0,0.0,0.0,0.0,0.0,0.0,0.0,0.0,0.0,8.8084,8.8084,8.8084,8.8084,8.8084,8.8084,8.8084,8.8084,8.8084,8.8084,8.8084,8.8084,0.0,0.0,0.0,0.0,0.0,8.8084,8.8084,8.8084,8.8084,8.827,8.8567,8.8592,8.8741,8.9038,8.9013,8.9321,8.9766,8.9756,8.9942,9.0202,9.0202,8.957,8.8976,8.957,8.931,8.8716,8.8233,8.8084,8.8084,8.8084,8.8084,8.8084,8.8084,8.8084,8.8084,8.8084,8.8493,8.8827,8.8827,8.9496,9.0053,9.0053,9.0053,9.0164,9.0462,9.0499,9.061,9.0907,9.1242,9.1428,9.1362,9.0806,9.0276,8.9793,8.9756,8.9533,8.9013,8.9013,8.9013,8.9013,8.9496,8.9756,8.9756,9.0276,9.0833,9.1428,9.1093,9.113,0.0,5.7138,5.8995,5.8884,5.6617,5.3794,5.1491,4.8036,0.0,4.4172,4.3392,4.3132,4.4023,4.4098,4.4135,4.4618,4.733,5.0228,5.2754,5.8252,0.0,0.0,0.0,0.0,0.0,0.0,0.0,0.0,0.0,0.0,0.0,0.0,8.8084,8.8084,8.8084,8.8084,8.8084,8.8084,8.8084,8.8084,8.8084,8.8084,8.8084,8.8084,0.0,0.0,0.0,0.0,0.0,8.8084,8.8084,8.8084,8.8158,8.8641,8.931,8.9373,8.9856,9.0488,9.0499,9.0509,9.062,9.061,9.1093,9.1688,9.1688,9.0164,8.8753,9.0164,8.9496,8.8344,8.827,8.827,8.827,8.827,8.827,8.827,8.827,8.827,8.827,8.827,8.8307,8.8344,8.8344,8.9013,8.957,8.957,8.957,8.983,9.0573,9.0685,9.088,9.1659,9.2439,9.2855,9.2684,9.1408,9.0647,9.0546,9.0573,9.0573,9.0499,9.0499,9.0499,9.0499,9.0573,9.061,9.0685,9.0685,9.1465,9.2988,9.2171,9.2245,4.5356,0.0,5.0265,4.9039,4.8593,4.8184,0.0,4.5992,4.5026,4.4172,4.3838,4.4172,4.5621,4.4878,4.5658,5.0673,5.2679,5.4648,5.7769,0.0,0.0,0.0,0.0,0.0,0.0,0.0,0.0,0.0,0.0,0.0,0.0,0.0,8.8084,8.8084,8.8084,8.8084,8.8084,8.8084,8.8084,8.8084,8.8084,8.8084,8.8084,8.8084,0.0,0.0,0.0,0.0,8.8084,8.8084,8.8084,8.8158,8.879,8.9161,8.9358,8.9962,9.037,9.0518,9.049,9.0926,9.1371,9.1428,9.1539,9.1688,9.1688,9.1762,9.1799,9.1502,9.1167,9.0722,9.009,8.9942,8.9942,8.9942,8.9942,8.9942,8.9942,8.9942,8.9942,8.9942,9.0424,9.0833,9.0833,9.1539,9.2133,9.2133,9.1965,9.1973,9.2158,9.2023,9.203,9.2215,9.2436,9.2547,9.2479,9.2417,9.2002,9.1068,9.1202,9.0972,9.0304,9.0267,9.0332,9.0499,9.1093,9.1762,9.2393,9.2393,9.2616,9.2988,9.2802,9.2802,4.2463,4.5212,4.759,4.707,4.6995,4.6921,4.6513,4.5509,4.4581,4.4098,4.3986,4.4395,4.5695,4.5509,4.655,5.0859,5.32,5.6803,0.0,0.0,0.0,0.0,0.0,0.0,0.0,0.0,0.0,0.0,0.0,0.0,0.0,0.0,8.8084,8.8084,8.8084,8.8084,8.8084,8.8084,8.8084,8.8084,8.8084,8.8084,8.8084,8.8084,0.0,0.0,0.0,0.0,8.8121,8.8493,8.8641,8.8716,8.9533,9.009,9.0462,9.0917,9.1297,9.1631,9.1631,9.1956,9.2291,9.2319,9.2282,9.2282,9.2282,9.2616,9.2802,9.1948,9.1428,9.1056,9.061,9.0499,9.0499,9.0499,9.0499,9.0499,9.0499,9.0499,9.0499,9.0499,9.0833,9.1167,9.1167,9.1836,9.2393,9.2299,9.2232,9.2128,9.1993,9.2257,9.2409,9.2409,9.3074,9.3447,9.3339,9.3657,9.3245,9.1819,9.1813,9.1697,9.1216,9.1283,9.1416,9.165,9.2059,9.2542,9.2988,9.2988,9.2988,9.2988,9.2988,9.2988,4.2686,4.5584,4.8073,4.8147,4.785,4.7441,4.7181,4.5509,4.3986,4.3986,4.4098,4.4544,4.5658,4.6513,0.0,4.9856,5.3311,0.0,0.0,0.0,0.0,0.0,0.0,0.0,0.0,0.0,0.0,0.0,0.0,0.0,0.0,0.0,0.0,8.8084,8.8084,8.8084,8.8021,8.8021,8.8021,8.8021,8.8021,8.8021,8.8021,8.8084,8.8084,0.0,0.0,0.0,8.8344,8.9013,8.9347,8.957,9.0387,9.1093,9.1725,9.1836,9.2356,9.2988,9.2988,9.2988,9.2988,9.2988,9.2988,9.2988,9.2988,9.2988,9.2839,9.2096,9.1428,9.087,9.087,9.087,9.087,9.087,9.087,9.087,9.087,9.087,9.087,9.087,9.087,9.087,9.0806,9.1362,9.1779,9.1683,9.1616,9.1512,9.1375,9.1934,9.227,9.227,9.3558,9.4298,9.4081,9.4337,9.3927,9.2414,9.2451,9.2451,9.234,9.2547,9.2751,9.2922,9.2922,9.2922,9.2922,9.3099,9.3174,9.3174,9.3322,9.3359,4.4098,4.7256,4.8927,4.5584,4.5732,4.629,4.4878,4.4283,4.3986,4.3986,4.4581,4.5769,4.7961,4.9002,5.1008,0.0,0.0,0.0,0.0,0.0,0.0,0.0,0.0,0.0,0.0,0.0,0.0,0.0,0.0,0.0,0.0,0.0,0.0,8.8084,8.8084,8.8021,8.7895,8.7895,8.7895,8.7895,8.7895,8.7895,8.7858,8.8021,8.8084,0.0,0.0,8.8493,8.9124,8.9236,8.9681,9.0387,9.1205,9.1576,9.1799,9.2505,9.2876,9.2988,9.2988,9.2988,9.2988,9.2988,9.2988,9.2988,9.2988,9.2988,9.2951,9.2839,9.2691,9.2616,9.2616,9.2616,9.2616,9.2616,9.2616,9.2616,9.2616,9.2616,9.2616,9.2616,9.2616,9.255,9.238,9.2492,9.2498,9.2294,9.2155,9.1978,9.1978,9.1946,9.1876,9.1876,9.2096,9.2243,9.2243,9.2905,9.2941,9.1913,9.2682,9.2828,9.2199,9.2303,9.2479,9.2479,9.2684,9.2788,9.2788,9.359,9.4028,9.4028,9.4697,9.5031,4.2649,4.5026,4.6773,4.6661,4.889,5.0673,4.9039,4.7961,4.7293,4.7293,4.7256,4.785,4.9893,0.0,0.0,0.0,0.0,0.0,0.0,0.0,0.0,0.0,0.0,0.0,0.0,0.0,0.0,0.0,0.0,0.0,0.0,0.0,0.0,0.0,8.7958,8.7858,8.7628,8.7534,8.76,8.7794,8.7794,8.7895,8.7958,8.8084,8.8084,8.8084,0.0,8.8567,8.931,8.9756,9.0424,9.1242,9.2059,9.2393,9.2431,9.2839,9.2988,9.2988,9.2988,9.2988,9.2988,9.2988,9.2988,9.2988,9.2988,9.2988,9.2988,9.2988,9.2988,9.2988,9.2988,9.2988,9.3099,9.3545,9.3322,9.3099,9.3545,9.3322,9.2988,9.2988,9.2988,9.2922,9.2751,9.2684,9.2616,9.2303,9.2162,9.2091,9.1948,9.228,9.2501,9.2501,9.2905,9.3345,9.3749,9.4189,9.3859,9.2574,9.2941,9.3051,9.2791,9.2826,9.3118,9.3702,9.3504,9.335,9.335,9.437,9.4622,9.4214,9.5031,9.5403,4.2129,4.3652,4.5361,4.8667,5.1416,5.3311,5.346,5.2011,5.0896,5.1676,5.1342,5.1305,5.2605,5.6134,0.0,0.0,0.0,0.0,0.0,0.0,0.0,0.0,0.0,0.0,0.0,0.0,0.0,0.0,0.0,0.0,0.0,0.0,0.0,0.0,8.773,8.7665,8.7431,8.7335,8.7439,8.7665,8.773,8.7794,8.7958,8.8084,8.8084,8.8084,8.8307,8.8827,8.9644,9.0462,9.1242,9.2059,9.2728,9.2988,9.2988,9.2988,9.2988,9.2988,9.2988,9.2988,9.2988,9.2988,9.2988,9.2988,9.2988,9.2988,9.2988,9.2988,9.3136,9.3248,9.3062,9.2988,9.3136,9.3768,9.3582,9.3434,9.4065,9.3842,9.3545,9.3479,9.3545,9.3479,9.3171,9.3171,9.3033,9.2681,9.2609,9.2537,9.2391,9.2978,9.3382,9.3382,9.3932,9.463,9.5437,9.5327,9.4777,9.3712,9.3675,9.3566,9.3271,9.3271,9.3638,9.4409,9.3994,9.3911,9.4133,9.5155,9.5365,9.4771,9.5588,9.5997,4.5064,4.6215,4.7107,5.0413,4.9707,4.9596,5.4834,5.4166,5.3274,5.6357,5.6915,0.0,0.0,6.2264,0.0,0.0,0.0,0.0,0.0,0.0,0.0,0.0,0.0,0.0,0.0,0.0,0.0,0.0,0.0,0.0,0.0,0.0,0.0,0.0,0.0,8.7431,8.7305,8.7305,8.7305,8.7372,8.7431,8.7563,8.7563,8.7958,8.8084,8.8121,8.8901,8.9681,9.0462,9.1279,9.2133,9.2914,9.2988,9.2988,9.2988,9.2988,9.2988,9.2988,9.2988,9.2988,9.2988,9.2988,9.2988,9.2988,9.2988,9.2988,9.2988,9.2988,9.3545,9.3954,9.3174,9.2988,9.2988,9.3062,9.3619,9.414,9.4177,9.4734,9.5149,9.5012,9.5081,9.5081,9.4482,9.4482,9.4519,9.419,9.4116,9.4116,9.4116,9.4153,9.4189,9.4189,9.4263,9.463,9.5437,9.4813,9.4666,9.529,9.5327,9.4666,9.3161,9.3088,9.3125,9.3272,9.3524,9.3961,9.4736,9.5902,9.648,9.6443,9.7334,9.7706,4.2909,4.4581,4.6773,5.1082,5.1825,5.2717,5.7472,5.8624,5.9627,6.2933,6.3156,0.0,0.0,0.0,0.0,0.0,0.0,0.0,0.0,0.0,0.0,0.0,0.0,0.0,0.0,0.0,0.0,0.0,0.0,0.0,0.0,0.0,0.0,0.0,0.0,8.7268,8.71,8.7064,8.7064,8.71,8.7268,8.7468,8.7497,8.7628,8.8053,8.8636,8.8933,8.9887,9.1279,9.1576,9.2208,9.2988,9.2988,9.2988,9.2988,9.2988,9.2988,9.2988,9.2988,9.2988,9.2988,9.2988,9.2988,9.2988,9.2988,9.2988,9.3099,9.3619,9.3954,9.414,9.3842,9.4102,9.4622,9.5105,9.5105,9.5068,9.5588,9.5551,9.5335,9.5161,9.5161,9.5091,9.4594,9.4594,9.4522,9.4374,9.4299,9.4299,9.4299,9.4299,9.4299,9.4299,9.474,9.518,9.5474,9.5694,9.5914,9.6208,9.5768,9.5254,9.463,9.4593,9.485,9.5327,9.5111,9.5146,9.5549,9.6684,9.6973,9.6629,9.7483,9.7892,4.2203,4.3801,4.6401,5.1045,5.3423,5.5949,6.1076,6.3119,6.5125,6.9137,6.8914,6.806,6.8394,0.0,0.0,0.0,0.0,0.0,0.0,0.0,0.0,0.0,0.0,0.0,0.0,0.0,0.0,0.0,0.0,0.0,0.0,0.0,0.0,0.0,0.0,8.7169,8.6995,8.6995,8.6995,8.6995,8.7169,8.7268,8.7468,8.7756,8.8265,8.8951,8.9469,9.0424,9.1659,9.1919,9.2365,9.2988,9.2988,9.2988,9.2988,9.2988,9.2988,9.2988,9.2988,9.2988,9.2988,9.2988,9.2988,9.2988,9.2988,9.3174,9.3471,9.4065,9.4585,9.4957,9.4957,9.518,9.5551,9.6108,9.5997,9.5923,9.648,9.6369,9.6114,9.5836,9.5869,9.5728,9.5295,9.5221,9.5221,9.5034,9.507,9.507,9.507,9.507,9.507,9.507,9.5547,9.5878,9.5878,9.6392,9.6685,9.6685,9.6171,9.5768,9.5511,9.5511,9.5768,9.6318,9.5994,9.5958,9.6363,9.7134,9.7348,9.6931,9.7632,9.7892,4.3986,4.4655,4.6327,5.0413,5.3905,5.8289,6.5682,6.7354,6.8989,7.4673,7.393,7.1998,7.1143,0.0,0.0,0.0,0.0,0.0,0.0,0.0,0.0,0.0,0.0,0.0,0.0,0.0,0.0,0.0,0.0,0.0,0.0,0.0,0.0,0.0,0.0,0.0,8.6995,8.6995,8.6995,8.6995,8.6995,8.7064,8.7305,8.828,8.8716,8.8827,9.0452,9.1327,9.1572,9.235,9.2818,9.2988,9.2988,9.2988,9.2988,9.2988,9.2988,9.2988,9.2988,9.2988,9.2988,9.2988,9.2988,9.2988,9.2988,9.3582,9.4214,9.4214,9.5365,9.6591,9.6629,9.6034,9.544,9.544,9.6034,9.6629,9.6629,9.7297,9.7752,9.7358,9.743,9.743,9.6762,9.6838,9.6914,9.6685,9.6685,9.6685,9.6685,9.6685,9.6685,9.6685,9.6685,9.6685,9.6685,9.6685,9.6685,9.6685,9.6685,9.6355,9.5547,9.5511,9.5511,9.5511,9.5736,9.6179,9.6989,9.743,9.7573,9.7573,9.7822,9.7892,4.2797,4.5026,4.8816,5.2902,5.7732,6.3379,7.0735,7.1998,7.3038,7.8165,7.7756,7.6233,7.5416,0.0,0.0,0.0,0.0,0.0,0.0,0.0,0.0,0.0,0.0,0.0,0.0,0.0,0.0,0.0,0.0,0.0,0.0,0.0,0.0,0.0,0.0,0.0,8.6995,8.6995,8.6995,8.6995,8.6995,8.6995,8.71,8.7389,8.8157,8.9399,8.9915,9.09,9.2146,9.2368,9.2547,9.2547,9.2547,9.2684,9.2788,9.2788,9.2855,9.2988,9.2988,9.2988,9.2988,9.2988,9.2988,9.3099,9.3657,9.3991,9.4437,9.5588,9.622,9.674,9.7372,9.7334,9.7149,9.7149,9.7334,9.752,9.752,9.7636,9.7573,9.7358,9.7211,9.7063,9.6762,9.6762,9.6762,9.6685,9.6685,9.6685,9.6685,9.6685,9.6685,9.6685,9.6685,9.6685,9.6685,9.6685,9.6685,9.6685,9.6685,9.6575,9.6355,9.6355,9.6355,9.6355,9.6431,9.6617,9.6989,9.7138,9.7358,9.7573,9.7644,9.7752,4.5138,4.811,5.2382,5.684,6.1521,6.7094,7.4784,0.0,0.0,0.0,0.0,7.9094,0.0,0.0,0.0,0.0,0.0,0.0,0.0,0.0,0.0,0.0,0.0,0.0,0.0,0.0,0.0,0.0,0.0,0.0,0.0,0.0,0.0,0.0,8.6995,8.6995,8.6995,8.6995,8.6995,8.6995,8.6995,8.6995,8.7031,8.7325,8.8092,8.915,8.9882,9.0983,9.2303,9.2409,9.2409,9.2409,9.2409,9.2479,9.2547,9.2547,9.2684,9.2751,9.2855,9.2855,9.2855,9.2855,9.2922,9.3099,9.3479,9.4005,9.471,9.5712,9.6454,9.7014,9.7533,9.7681,9.7681,9.7892,9.7892,9.7892,9.7892,9.7752,9.7502,9.7358,9.7138,9.6914,9.6685,9.6685,9.6685,9.6685,9.6685,9.6685,9.6685,9.6685,9.6685,9.6685,9.6685,9.6685,9.6685,9.6685,9.6685,9.6685,9.6685,9.6685,9.6685,9.6685,9.6685,9.6685,9.6685,9.6762,9.6914,9.6989,9.7138,9.7358,9.7502,9.7644,4.9373,5.2531,5.6432,6.1484,6.5608,0.0,7.7979,8.0951,8.2326,8.3032,0.0,0.0,0.0,0.0,0.0,0.0,0.0,0.0,0.0,0.0,0.0,0.0,0.0,0.0,0.0,0.0,0.0,0.0,0.0,0.0,0.0,0.0,0.0,0.0,8.6995,8.6995,8.6995,8.7068,8.7068,0.0,8.7068,8.6999,8.6892,8.7766,8.8169,8.839,9.018,9.1355,9.2091,9.2233,9.234,9.234,9.234,9.234,9.2373,9.2373,9.2373,9.2409,9.2616,9.2684,9.2684,9.2684,9.2825,9.3033,9.2906,9.398,9.5203,9.5314,9.6283,9.7285,9.7285,9.7285,9.7358,9.7752,9.7822,9.7822,9.7822,9.7681,9.7502,9.7285,9.7138,9.6914,9.6685,9.6685,9.6685,9.6685,9.6685,9.6685,9.6685,9.6685,9.6685,9.6685,9.6685,9.6685,9.6685,9.6685,9.6685,9.6685,9.6979,9.7016,9.6722,9.6685,9.6685,9.6685,9.6685,9.6685,9.6685,9.6914,9.6989,9.6989,9.7358,9.761,4.8073,5.2531,5.8326,6.3899,7.1143,7.7682,8.0765,8.2214,8.2994,8.3143,0.0,0.0,0.0,0.0,0.0,0.0,0.0,0.0,0.0,0.0,0.0,0.0,0.0,0.0,0.0,0.0,0.0,0.0,0.0,0.0,0.0,0.0,0.0,8.6995,8.6995,8.6995,8.6995,8.7619,8.7619,0.0,8.7655,8.7264,8.6027,8.6862,8.7949,8.9197,9.0188,9.1141,9.1876,9.1948,9.1948,9.1948,9.1948,9.202,9.2162,9.2162,9.2233,9.2409,9.2479,9.2479,9.2479,9.2479,9.2922,9.3551,9.4179,9.5066,9.5953,9.6655,9.7026,9.7285,9.7285,9.7285,9.7285,9.7358,9.743,9.743,9.743,9.7285,9.7138,9.7063,9.6914,9.6762,9.6685,9.6685,9.6685,9.6685,9.6685,9.6685,9.6685,9.6685,9.6685,9.6685,9.6685,9.6685,9.6685,9.6685,9.6685,9.6685,9.9071,9.9328,9.6795,9.6685,9.6685,9.6685,9.6685,9.6685,9.6685,9.6762,9.6838,9.6989,9.7211,9.78,4.9782,5.4871,6.1038,6.832,7.5156,8.0282,8.1174,8.2326,8.318,8.318,0.0,0.0,0.0,0.0,0.0,0.0,0.0,0.0,0.0,0.0,0.0,0.0,0.0,0.0,0.0,0.0,0.0,0.0,0.0,0.0,0.0,8.6995,8.6995,8.6995,8.6608,8.6356,8.6356,8.6352,8.6202,8.5803,8.6202,8.5938,8.5117,8.554,8.6824,8.8763,8.92,9.0114,9.1209,9.162,9.1546,9.1209,9.162,9.1876,9.1948,9.1948,9.202,9.2091,9.2233,9.2233,9.2307,9.2712,9.3189,9.3705,9.4409,9.5257,9.5994,9.6437,9.6769,9.6989,9.6989,9.6989,9.6989,9.6989,9.7138,9.7285,9.7358,9.7211,9.7063,9.7138,9.6914,9.6685,9.6685,9.6685,9.6685,9.6685,9.6685,9.7273,9.8778,9.8998,9.8998,9.8998,9.8998,9.8998,9.8998,9.8998,9.8998,9.8998,10.0576,10.0686,9.9071,9.8998,9.8521,9.7493,9.7713,9.786,9.786,9.786,9.7937,9.8014,9.8206,9.8688,5.0785,5.71,6.4085,7.2666,7.7645,8.058,8.084,8.1991,8.3069,8.3329,0.0,0.0,0.0,0.0,0.0,0.0,0.0,0.0,0.0,0.0,0.0,0.0,0.0,0.0,0.0,0.0,0.0,0.0,0.0,0.0,8.6749,8.6925,8.6925,8.6749,8.6101,8.5616,8.5463,8.4864,8.4538,8.4396,8.4231,8.4148,8.4148,8.4016,8.5417,8.789,8.789,8.8873,9.0552,9.1285,9.1209,9.0825,9.1546,9.1803,9.1803,9.1803,9.1803,9.1803,9.2204,9.2241,9.2388,9.3197,9.371,9.404,9.4522,9.5258,9.592,9.592,9.6323,9.6685,9.6685,9.6685,9.6685,9.6685,9.6914,9.7211,9.7358,9.7211,9.7063,9.7138,9.6914,9.6685,9.6685,9.6685,9.6685,9.6685,9.7163,9.8484,10.12,10.1494,10.1494,10.1494,10.1494,10.1494,10.1494,10.1494,10.1494,10.1494,10.1494,10.1494,10.1494,10.1494,10.0686,9.8888,9.9035,9.9108,9.9108,9.9108,9.9108,9.9108,9.9342,9.9532,4.5807,5.5726,6.7094,7.393,7.7645,8.0022,8.1471,0.0,8.2549,0.0,0.0,0.0,0.0,0.0,0.0,0.0,0.0,0.0,0.0,0.0,0.0,0.0,0.0,0.0,0.0,0.0,0.0,0.0,0.0,0.0,8.5917,8.6608,8.6679,8.5953,8.5767,8.5386,8.4559,8.5156,8.5074,8.4396,8.3677,8.3244,8.3244,8.2453,8.3856,8.6883,8.6883,8.8275,9.0473,9.0631,9.1057,9.162,9.173,9.1803,9.1803,9.1803,9.1803,9.1913,9.2684,9.2941,9.3125,9.3933,9.4668,9.5292,9.529,9.5878,9.6615,9.6615,9.6612,9.6685,9.6685,9.6685,9.6685,9.6685,9.6762,9.6799,9.6762,9.6762,9.6762,9.6762,9.6722,9.6685,9.6685,9.6685,9.6685,9.6685,9.9071,10.098,10.1384,10.1494,10.1494,10.1494,10.1494,10.1494,10.1494,10.1494,10.1494,10.1494,10.1494,10.1494,10.1494,10.1494,10.1384,10.109,9.9769,9.9108,9.9108,9.9108,9.9108,9.9108,9.9342,9.9904,4.9373,5.8624,6.7503,7.3595,7.6976,7.9242,8.0877,8.162,8.2326,8.3477,0.0,0.0,0.0,0.0,0.0,0.0,0.0,0.0,0.0,0.0,0.0,0.0,0.0,0.0,0.0,0.0,0.0,0.0,0.0,8.5299,8.4391,8.555,8.5842,8.496,8.4477,8.4065,8.3677,8.3508,8.3276,8.2961,8.2509,8.2361,8.2361,8.1965,8.362,8.6715,8.6715,8.8229,9.0552,9.1057,9.1133,9.1133,9.162,9.1803,9.1803,9.1803,9.2097,9.2574,9.2978,9.3418,9.3896,9.4703,9.5217,9.5584,9.6061,9.6428,9.6685,9.6685,9.6685,9.6685,9.6685,9.6685,9.6685,9.6685,9.6685,9.6685,9.6685,9.6685,9.6685,9.6685,9.6685,9.6685,9.6685,9.6685,9.6685,9.6685,9.7897,9.9438,10.1274,10.1494,10.1494,10.1494,10.1494,10.1494,10.1494,10.1494,10.1494,10.1494,10.1494,10.1494,10.1494,10.1494,10.1494,10.1494,10.0796,10.0393,10.0393,10.0393,10.0393,10.0393,10.0472,10.0887,5.1045,5.8252,6.4122,7.0512,7.4598,7.7533,7.9354,0.0,8.188,0.0,0.0,0.0,0.0,0.0,0.0,0.0,0.0,0.0,0.0,0.0,0.0,0.0,0.0,0.0,0.0,0.0,0.0,0.0,0.0,8.3888,8.3009,8.445,8.496,8.4065,8.3418,8.3015,8.2781,8.2118,8.181,8.181,8.181,8.181,8.181,8.181,8.3529,8.6411,8.6151,8.7472,8.9868,9.0516,9.0552,9.0231,9.1133,9.1472,9.1472,9.173,9.2207,9.2831,9.3272,9.3786,9.4483,9.5474,9.5804,9.5914,9.6539,9.6685,9.6685,9.6685,9.6685,9.6685,9.6685,9.6685,9.6685,9.6685,9.6685,9.6685,9.6685,9.6685,9.6685,9.6685,9.6685,9.6942,9.7787,9.7933,9.7933,9.7933,9.7933,9.8778,10.12,10.1494,10.1494,10.1494,10.1494,10.1494,10.1494,10.1494,10.1494,10.1494,10.1494,10.1494,10.1494,10.1494,10.1494,10.1494,10.1494,10.1494,10.1494,10.1494,10.1494,10.1494,10.1494,10.1574,4.5881,5.0673,5.5243,6.3305,6.9509,7.4264,7.6716,0.0,0.0,0.0,0.0,0.0,0.0,0.0,0.0,0.0,0.0,0.0,0.0,0.0,0.0,0.0,0.0,0.0,0.0,0.0,0.0,0.0,0.0,8.3009,8.2048,8.3555,8.4065,8.3191,8.3068,8.2691,8.1905,8.181,8.181,8.181,8.181,8.181,8.181,8.181,8.3102,8.5385,8.4526,8.5585,8.7888,8.7888,8.84,8.9278,9.0231,9.0552,9.0631,9.1472,9.184,9.2097,9.3675,9.4263,9.4556,9.6135,9.6649,9.6649,9.6685,9.6685,9.6685,9.6685,9.6685,9.6685,9.6685,9.6685,9.6685,9.6685,9.6685,9.6685,9.6685,9.6685,9.6685,9.6685,9.6685,9.7676,10.0686,10.1274,10.1274,10.1274,10.1274,10.1274,10.1494,10.1494,10.1494,10.1494,10.1494,10.1494,10.1494,10.1494,10.1494,10.1494,10.1494,10.1494,10.1494,10.1494,10.1494,10.1494,10.1494,10.1494,10.1494,10.1494,10.1494,10.1494,10.1494,10.1574,4.4098,4.889,5.4054,6.0147,6.5608,7.04,7.3892,7.7013,7.9688,0.0,0.0,0.0,0.0,0.0,0.0,0.0,0.0,0.0,0.0,0.0,0.0,0.0,0.0,0.0,0.0,0.0,0.0,0.0,0.0,0.0,8.0359,8.1909,8.2418,8.1505,8.1539,8.1598,8.181,8.181,8.181,8.181,8.181,8.181,8.181,8.181,8.2795,8.4431,8.4177,8.574,8.8579,8.8579,8.8757,8.9106,8.9449,8.9618,8.9618,8.995,9.0799,9.1817,9.2436,9.3659,9.518,9.5731,9.6282,9.6685,9.6685,9.6685,9.6685,9.6685,9.6685,9.6685,9.6685,9.7199,9.7676,9.7493,9.7089,9.6979,9.8007,9.9035,9.9769,9.9769,9.9769,10.0099,10.1274,10.1494,10.1494,10.1494,10.1494,10.1494,10.1494,10.1494,10.1494,10.1494,10.1494,10.1494,10.1494,10.1494,10.1494,10.1494,10.1494,10.1494,10.1494,10.1494,10.1494,10.1494,10.1494,10.1494,10.1494,10.1494,10.1494,10.1494,10.1494,10.1538,4.1423,4.5769,5.1082,5.684,6.0964,6.5274,7.1552,7.4673,7.7162,0.0,0.0,0.0,0.0,0.0,0.0,0.0,0.0,0.0,0.0,0.0,0.0,0.0,0.0,0.0,0.0,0.0,0.0,0.0,0.0,0.0,7.9879,8.0901,8.1179,8.0603,8.0879,8.1259,8.181,8.181,8.181,8.181,8.181,8.181,8.181,8.181,8.2604,8.4018,8.4018,8.5585,8.8164,8.8164,8.8164,8.8219,8.849,8.8668,8.8668,8.9019,8.995,9.1258,9.1876,9.3376,9.5089,9.5728,9.6282,9.6685,9.6685,9.6685,9.6685,9.6685,9.6685,9.6685,9.6685,9.764,9.8521,9.8337,9.7493,9.6979,9.808,9.9989,10.1494,10.1494,10.1494,10.1494,10.1494,10.1494,10.1494,10.1494,10.1494,10.1494,10.1494,10.1494,10.1494,10.1494,10.1494,10.1494,10.1494,10.1494,10.1494,10.1494,10.1494,10.1494,10.1494,10.1494,10.1494,10.1494,10.1494,10.1494,10.1494,10.1494,10.1494,10.1494,10.1494,10.1538,0.0,0.0,0.0,0.0,5.5391,5.8846,6.9323,0.0,7.3261,0.0,0.0,0.0,0.0,0.0,0.0,0.0,0.0,0.0,0.0,0.0,0.0,0.0,0.0,0.0,0.0,0.0,0.0,0.0,0.0,7.9776,8.05,8.0569,8.0569,8.0603,8.1362,8.1776,8.181,8.181,8.181,8.181,8.181,8.181,8.181,8.181,8.2604,8.4018,8.4018,8.488,8.6294,8.6294,8.6294,8.6394,8.7266,8.7609,8.7796,8.8668,8.9519,9.0443,9.2171,9.3334,9.425,9.6045,9.6608,9.6608,9.6608,9.6685,9.6685,9.6685,9.6685,9.6722,9.6832,9.8007,9.9181,9.9181,9.797,9.6832,9.6722,9.9218,10.1494,10.1494,10.1494,10.1494,10.1494,10.1494,10.1494,10.1494,10.1494,10.1494,10.1494,10.1494,10.1494,10.1494,10.1494,10.1494,10.1494,10.1494,10.1494,10.1494,10.1494,10.1494,10.1494,10.1494,10.1494,10.1494,10.1494,10.1494,10.1494,10.1494,10.1494,10.1494,10.1494,10.1574,3.8859,0.0,0.0,0.0,0.0,0.0,0.0,0.0,0.0,0.0,0.0,0.0,0.0,0.0,0.0,0.0,0.0,0.0,0.0,0.0,0.0,0.0,0.0,0.0,0.0,0.0,0.0,0.0,7.8603,7.881,7.9017,7.9017,7.95,8.0603,8.0845,8.1224,8.181,8.181,8.181,8.181,8.181,8.181,8.181,8.181,8.2604,8.4018,8.4018,8.488,8.6294,8.6294,8.6294,8.6294,8.6558,8.6657,8.6755,8.7012,8.8005,8.9236,8.9781,9.1283,9.3083,9.3596,9.4151,9.4706,9.542,9.6143,9.6685,9.6685,9.6685,9.7236,9.9548,10.0503,10.0796,10.0796,10.0503,9.9512,9.7199,9.9218,10.1494,10.1494,10.1494,10.1494,10.1494,10.1494,10.1494,10.1494,10.1494,10.1494,10.1494,10.1494,10.1494,10.1494,10.1494,10.1494,10.1494,10.1494,10.1494,10.1494,10.1494,10.1494,10.1494,10.1494,10.1494,10.1494,10.1494,10.1494,10.1494,10.1494,10.1494,10.1494,10.1494,10.1457,0.0,0.0,0.0,0.0,0.0,0.0,0.0,5.8582,0.0,0.0,0.0,0.0,0.0,0.0,0.0,0.0,0.0,0.0,0.0,0.0,0.0,0.0,0.0,0.0,0.0,0.0,0.0,7.8361,7.8396,7.8396,7.8396,7.8706,7.9258,8.012,8.0465,8.1017,8.181,8.181,8.181,8.181,8.181,8.181,8.181,8.181,8.2604,8.4018,8.4018,8.488,8.6294,8.6294,8.6294,8.6294,8.6294,8.6294,8.6294,8.6294,8.735,8.8809,8.9127,9.0681,9.2552,9.2921,9.3424,9.3872,9.4495,9.5217,9.5976,9.6413,9.7575,9.9108,10.098,10.1494,10.1494,10.1494,10.1494,10.098,9.9108,10.0172,10.1494,10.1494,10.1494,10.1494,10.1494,10.1494,10.1494,10.1494,10.1494,10.1494,10.1494,10.1494,10.1494,10.1494,10.1494,10.1494,10.1494,10.1494,10.1494,10.1494,10.1494,10.1494,10.1494,10.1494,10.1494,10.1494,10.1494,10.1494,10.1494,10.1494,10.1494,10.1494,10.1494,10.1494,4.3732,4.4406,0.0,0.0,0.0,0.0,5.6904,5.7835,5.9069,0.0,0.0,0.0,0.0,0.0,0.0,0.0,0.0,0.0,0.0,0.0,0.0,0.0,0.0,0.0,0.0,7.7223,7.7534,7.8223,7.8292,7.8327,7.8396,7.8948,7.9362,7.9638,8.0189,8.0914,8.181,8.181,8.181,8.181,8.181,8.181,8.181,8.1879,8.2673,8.4018,8.4121,8.4984,8.6294,8.6294,8.6294,8.6294,8.6294,8.6294,8.6329,8.6398,8.7363,8.8673,8.964,9.0878,9.2302,9.3226,9.3506,9.3506,9.3598,9.4088,9.4731,9.5826,9.8223,10.0673,10.1303,10.1494,10.1494,10.1494,10.1494,10.1494,10.1494,10.1494,10.1413,10.0892,10.1213,10.1413,10.0929,10.0808,10.1012,10.1376,10.1494,10.1494,10.1494,10.1494,10.1494,10.1494,10.1494,10.1494,10.1494,10.1494,10.1494,10.1494,10.1494,10.1494,10.1494,10.1494,10.1494,10.1494,10.1494,10.1494,10.1494,10.1494,10.1494,10.1494,10.1494,10.1494,4.686,4.7305,4.7787,0.0,0.0,0.0,0.0,4.9416,5.2863,0.0,0.0,0.0,0.0,0.0,0.0,0.0,0.0,0.0,0.0,0.0,0.0,0.0,0.0,0.0,7.7154,7.7223,7.7292,7.743,7.7465,7.7741,7.8361,7.7948,7.8499,8.0362,7.9948,8.0396,8.1776,8.181,8.181,8.181,8.181,8.181,8.181,8.2431,8.319,8.4052,8.4673,8.5466,8.6294,8.6294,8.6294,8.6294,8.6294,8.6294,8.6363,8.6984,8.7812,8.8674,8.9432,9.033,9.1092,9.1367,9.1367,9.1572,9.24,9.3079,9.3837,9.4454,9.4708,9.5787,10.0275,10.1494,10.1494,10.1494,10.1494,10.1494,10.1494,10.1494,10.0518,9.7208,9.9297,10.0469,9.7208,9.6625,9.7676,10.1012,10.1494,10.1494,10.1494,10.1494,10.1494,10.1494,10.1494,10.1494,10.1494,10.1494,10.1494,10.1494,10.1494,10.1494,10.1494,10.1494,10.1494,10.1494,10.1494,10.1494,10.1494,10.1494,10.1494,10.1494,10.1494,10.1494,4.9862,4.9566,4.9787,4.9381,0.0,0.0,0.0,0.0,5.0861,5.6154,5.6799,0.0,0.0,0.0,0.0,0.0,0.0,0.0,0.0,0.0,0.0,0.0,0.0,0.0,7.7189,7.7223,7.7223,7.7223,7.7223,7.7396,7.781,7.743,7.8085,8.0017,7.9707,8.0258,8.1776,8.181,8.181,8.181,8.181,8.181,8.1845,8.2569,8.3328,8.4052,8.4846,8.5639,8.6294,8.6294,8.6294,8.6294,8.6294,8.6536,8.6915,8.726,8.8157,8.9191,8.9571,9.0192,9.0812,9.0812,9.0812,9.0883,9.1367,9.2372,9.3277,9.3623,9.4494,9.5538,9.6957,9.9346,10.109,9.9475,9.7571,9.6587,9.8099,9.8456,9.7873,9.5769,9.7004,9.7775,9.5769,9.7106,9.9114,10.1213,10.1494,10.1494,10.1494,10.1494,10.1494,10.1494,10.1494,10.1494,10.1494,10.1494,10.1494,10.1494,10.1494,10.1494,10.1494,10.1494,10.1494,10.1494,10.1494,10.1494,10.1494,10.1494,10.1494,10.1494,10.1494,10.1494,0.0,0.0,0.0,0.0,0.0,5.0265,0.0,0.0,0.0,5.5332,0.0,0.0,0.0,0.0,0.0,0.0,0.0,0.0,0.0,0.0,0.0,0.0,0.0,0.0,0.0,7.6292,7.6361,7.6947,7.6464,7.6361,7.6982,7.7154,7.7913,7.9465,7.95,8.0258,8.1776,8.181,8.181,8.181,8.181,8.1879,8.2052,8.2776,8.3535,8.4294,8.5087,8.5742,8.6294,8.6294,8.6294,8.6294,8.6294,8.6674,8.7225,8.7536,8.8433,8.9536,8.9812,9.0295,9.0812,9.0812,9.0812,9.0881,9.1157,9.2019,9.2916,9.3054,9.4669,9.5886,9.3307,9.5993,9.8748,9.6203,9.3593,9.2364,9.4848,9.54,9.54,9.54,9.54,9.5695,9.645,9.9297,10.1494,10.1494,10.1494,10.1494,10.1494,10.1494,10.1494,10.1494,10.1494,10.1494,10.1494,10.1494,10.1494,10.1494,10.1494,10.1494,10.1494,10.1494,10.1494,10.1494,10.1494,10.1494,10.1494,10.1494,10.1494,10.1494,10.1494,10.1494,0.0,0.0,0.0,0.0,5.5718,0.0,0.0,0.0,5.1224,4.9086,0.0,0.0,0.0,0.0,0.0,0.0,0.0,0.0,0.0,0.0,0.0,0.0,0.0,0.0,0.0,7.2946,7.3291,7.6051,7.3705,7.3326,7.6085,7.6878,7.7913,7.9465,7.95,8.0258,8.1776,8.181,8.181,8.181,8.181,8.2155,8.2811,8.3569,8.4328,8.5121,8.5846,8.6225,8.6294,8.6294,8.6294,8.6294,8.6294,8.6363,8.6605,8.795,8.857,8.8915,9.0226,9.0743,9.0812,9.0812,9.0812,9.1054,9.2433,9.2502,9.2261,9.2916,9.3024,9.2647,9.1364,9.1577,9.1887,9.1539,9.3168,9.4951,9.5296,9.54,9.54,9.54,9.54,9.652,10.0173,10.1213,10.1494,10.1494,10.1494,10.1494,10.1494,10.1494,10.1494,10.1494,10.1494,10.1494,10.1494,10.1494,10.1494,10.1494,10.1494,10.1494,10.1494,10.1494,10.1494,10.1494,10.1494,10.1494,10.1494,10.1494,10.1494,10.1494,10.1494,10.1494,0.0,0.0,0.0,0.0,0.0,0.0,0.0,0.0,4.9265,0.0,0.0,0.0,0.0,0.0,0.0,0.0,0.0,0.0,0.0,0.0,0.0,0.0,0.0,0.0,0.0,0.0,0.0,0.0,7.2084,7.2188,7.5257,7.6154,7.7465,7.9465,7.95,8.0258,8.1776,8.181,8.181,8.181,8.181,8.219,8.2949,8.3673,8.4466,8.5225,8.5984,8.6294,8.6294,8.6294,8.657,8.6915,8.6467,8.657,8.7087,8.8191,8.8881,8.9398,9.0433,9.0812,9.0812,9.0812,9.0812,9.1088,9.264,9.2571,9.2226,9.3261,9.3192,9.2502,9.1157,9.0812,9.1261,9.3054,9.4468,9.54,9.54,9.54,9.54,9.54,9.54,9.5986,9.7676,9.7972,9.874,10.1058,10.1494,10.1494,10.1494,10.1494,10.1494,10.1494,10.1494,10.1494,10.1494,10.1494,10.1494,10.1494,10.1494,10.1494,10.1494,10.1494,10.1494,10.1494,10.1494,10.1494,10.1494,10.1494,10.1494,10.1494,10.1494,10.1494,6.0809,0.0,0.0,0.0,0.0,0.0,0.0,0.0,0.0,0.0,0.0,0.0,0.0,0.0,0.0,0.0,0.0,0.0,0.0,0.0,0.0,0.0,0.0,0.0,0.0,0.0,0.0,0.0,0.0,7.0084,7.4395,7.5361,7.6947,7.9431,7.95,8.0258,8.1776,8.181,8.181,8.181,8.2017,8.25,8.3225,8.3983,8.4777,8.5535,8.6087,8.6294,8.6294,8.6294,8.6742,8.7363,8.6811,8.7053,8.7812,8.8364,8.9053,8.9812,9.0536,9.0812,9.0812,9.0812,9.095,9.133,9.2468,9.2468,9.2295,9.3227,9.2985,9.2226,9.1088,9.1433,9.264,9.4848,9.54,9.54,9.54,9.54,9.54,9.54,9.54,9.54,9.54,9.54,9.6833,10.0929,10.1494,10.1494,10.1494,10.1494,10.1494,10.1494,10.1494,10.1494,10.1494,10.1494,10.1494,10.1494,10.1494,10.1494,10.1494,10.1494,10.1494,10.1494,10.1494,10.1494,10.1494,10.1494,10.1494,10.1494,10.1494,10.1494,0.0,0.0,0.0,0.0,0.0,0.0,0.0,0.0,5.3781,0.0,0.0,0.0,0.0,0.0,0.0,0.0,0.0,0.0,0.0,0.0,0.0,0.0,0.0,0.0,0.0,0.0,0.0,0.0,0.0,0.0,7.3429,7.4568,7.6361,7.9396,7.95,8.0258,8.1776,8.181,8.181,8.181,8.2535,8.3259,8.4018,8.4811,8.557,8.626,8.6294,8.6294,8.6294,8.6294,8.6742,8.7398,8.7398,8.7881,8.857,8.8605,8.9053,8.9812,9.0536,9.0812,9.0812,9.0812,9.133,9.195,9.2019,9.2192,9.2399,9.2433,9.1675,9.0881,9.0812,9.302,9.5262,9.5365,9.54,9.54,9.54,9.54,9.54,9.54,9.54,9.54,9.54,9.54,9.6833,10.0929,10.1494,10.1494,10.1494,10.1494,10.1494,10.1494,10.1494,10.1494,10.1494,10.1494,10.1494,10.1494,10.1494,10.1494,10.1494,10.1494,10.1494,10.1494,10.1494,10.1494,10.1494,10.1494,10.1494,10.1494,10.1494,10.1494,0.0,0.0,6.9853,6.3906,0.0,0.0,0.0,0.0,0.0,0.0,0.0,0.0,0.0,0.0,0.0,0.0,0.0,0.0,0.0,0.0,0.0,0.0,0.0,0.0,0.0,0.0,0.0,0.0,6.322,0.0,0.0,7.3464,7.5602,7.8672,7.9258,8.0258,8.1776,8.181,8.181,8.181,8.2569,8.3293,8.4052,8.4846,8.5604,8.6294,8.6294,8.6294,8.6329,8.6846,8.7501,8.8191,8.8191,8.895,9.0019,8.9502,8.9502,8.9812,9.0536,9.0812,9.0812,9.0812,9.0985,9.1295,9.1847,9.1675,9.1537,9.2571,9.1882,9.1295,9.3296,9.4606,9.54,9.54,9.54,9.54,9.54,9.54,9.54,9.54,9.54,9.54,9.54,9.54,9.5878,9.731,9.9785,10.1494,10.1494,10.1494,10.1494,10.1494,10.1494,10.1494,10.1494,10.1494,10.1494,10.1494,10.1494,10.1494,10.1494,10.1494,10.1494,10.1494,10.1494,10.1494,10.1494,10.1494,10.1494,10.1494,10.1494,10.1494,7.2679,7.3193,0.0,0.0,6.5595,0.0,0.0,0.0,0.0,0.0,0.0,0.0,0.0,0.0,0.0,0.0,0.0,0.0,0.0,0.0,0.0,0.0,0.0,0.0,0.0,0.0,5.6322,6.1289,6.0427,0.0,0.0,0.0,7.4499,7.7879,7.8982,8.0258,8.1776,8.181,8.1948,8.219,8.2949,8.3707,8.4466,8.5259,8.5846,8.6294,8.6294,8.6294,8.6363,8.7122,8.7881,8.8639,8.8881,8.9743,9.0709,8.9985,8.9881,9.0157,9.064,9.0812,9.0812,9.0812,9.1054,9.1399,9.1537,9.1606,9.1778,9.2606,9.264,9.2882,9.4882,9.54,9.54,9.54,9.54,9.54,9.54,9.54,9.54,9.54,9.54,9.54,9.54,9.54,9.54,9.54,9.7676,9.9297,9.9297,10.064,10.1494,10.1494,10.1494,10.1494,10.1494,10.1494,10.1494,10.1494,10.1494,10.1494,10.1494,10.1494,10.1494,10.1494,10.1494,10.1494,10.1494,10.1494,10.1494,10.1494,10.1494,10.1494]},{"header":{"parameterUnit":"m.s-1","parameterCategory":1,"la1":30.6,"la2":29.2853,"lo1":-89.7004,"lo2":-87.6739,"dy":0.0162,"dx":0.0183,"nx":112,"ny":82,"refTime":"2026-05-01T12:00:00:Z","depth":0,"parameterNumber":3,"parameterNumberName":"V-component_of_WINDS"},"data":[0.0,0.0,0.0,0.0,0.0,0.0,0.0,0.0,0.0,0.0,0.0,0.0,0.0,0.0,0.0,0.0,0.0,0.0,0.0,0.0,0.0,0.0,0.0,0.0,0.0,0.0,0.0,0.0,0.0,0.0,0.0,0.0,0.0,0.0,0.0,0.0,0.0,0.0,0.0,0.0,0.0,0.0,0.0,0.0,0.0,0.0,0.0,0.0,0.0,0.0,0.0,0.0,0.0,0.0,0.0,0.0,0.0,0.0,0.0,0.0,0.0,0.0,0.0,0.0,0.0,0.0,0.0,0.0,0.0,0.0,0.0,0.0,0.0,0.0,0.0,0.0,0.0,0.0,0.0,0.0,0.0,0.0,0.0,0.0,0.0,0.0,0.0,0.0,0.0,0.0,0.0,-0.3578,-0.141,0.0344,0.1018,0.4312,0.4878,0.1184,0.0,0.0,0.0,0.0,0.0,0.0,0.0,0.0,0.0,0.0,0.0,0.0,0.0,0.0,0.0,0.0,0.0,0.0,0.0,0.0,0.0,0.0,0.0,0.0,0.0,0.0,0.0,0.0,0.0,0.0,0.0,0.0,0.0,0.0,0.0,0.0,0.0,0.0,0.0,0.0,0.0,0.0,0.0,0.0,0.0,0.0,0.0,0.0,0.0,0.0,0.0,0.0,0.0,0.0,0.0,0.0,0.0,0.0,0.0,0.0,0.0,0.0,0.0,0.0,0.0,0.0,0.0,0.0,0.0,0.0,0.0,0.0,0.0,0.0,0.0,0.0,0.0,0.0,0.0,0.0,0.0,0.0,0.0,0.0,0.0,0.0,0.0,0.0,0.0,0.0,0.0,0.0,0.0,0.0,0.0,0.0,0.0,0.0,0.0,0.0,0.0,0.0,0.0,0.0,-0.0508,-0.0643,-0.0229,0.1641,0.5748,0.6342,0.6087,0.5491,0.0,0.0,0.0,0.0,0.0,0.0,0.0,0.0,0.0,0.0,0.0,0.0,0.0,0.0,0.0,0.0,0.0,0.0,0.0,0.0,0.0,0.0,0.0,0.0,0.0,0.0,0.0,0.0,0.0,0.0,0.0,0.0,0.0,0.0,0.0,0.0,0.0,0.0,0.0,0.0,0.0,0.0,0.0,0.0,0.0,0.0,0.0,0.0,0.0,0.0,0.0,0.0,0.0,0.0,0.0,0.0,0.0,0.0,0.0,0.0,0.0,0.0,0.0,0.0,0.0,0.0,0.0,0.0,0.0,0.0,0.0,0.0,0.0,0.0,0.0,0.0,0.0,0.0,0.0,0.0,0.0,0.0,0.0,0.0,0.0,0.0,0.0,0.0,0.0,0.0,0.0,0.0,0.0,0.0,0.0,0.0,0.0,0.0,0.0,0.0,0.0,0.0,0.0,-0.0588,0.0,0.0,0.0,0.1903,0.6744,0.6791,0.6432,0.6078,0.3364,0.0,0.0,0.0,0.0,0.0,0.0,0.0,0.0,0.0,0.0,0.0,0.0,0.0,0.0,0.0,0.0,0.0,0.0,0.0,0.0,0.0,0.0,0.0,0.0,0.0,0.0,0.0,0.0,0.0,0.0,0.0,0.0,0.0,0.0,0.0,0.0,0.0,0.0,0.0,0.0,0.0,0.0,0.0,0.0,0.0,0.0,0.0,0.0,0.0,0.0,0.0,0.0,0.0,0.0,0.0,0.0,0.0,0.0,0.0,0.0,0.0,0.0,0.0,0.0,0.0,0.0,0.0,0.0,0.0,0.0,0.0,0.0,0.0,0.0,0.0,0.0,0.0,0.0,0.0,0.0,0.0,0.0,0.0,0.0,0.0,0.0,0.0,0.0,0.0,0.0,0.0,0.0,0.0,0.0,0.0,0.0,0.0,0.0,0.0,0.0,0.0,0.0,0.0,0.0524,0.1728,0.1909,0.337,0.698,0.694,0.6606,0.5952,0.4518,0.0,0.0,0.0,0.0,0.0,0.0,0.0,0.0,0.0,0.0,0.0,0.0,0.0,0.0,0.0,0.0,0.0,0.0,0.0,0.0,0.0,0.0,0.0,0.0,0.0,0.0,0.0,0.0,0.0,0.0,0.0,0.0,0.0,0.0,0.0,0.0,0.0,0.0,0.0,0.0,0.0,0.0,0.0,0.0,0.0,0.0,0.0,0.0,0.0,0.0,0.0,0.0,0.0,0.0,0.0,0.0,0.0,0.0,0.0,0.0,0.0,0.0,0.0,0.0,0.0,0.0,0.0,0.0,0.0,0.0,0.0,0.0,0.0,0.0,0.0,0.0,0.0,0.0,0.0,0.0,0.0,0.0,0.0,0.0,0.0,0.0,0.0,0.0,0.0,0.0,0.0,0.0,0.0,0.0,0.0,0.0,0.0,0.0,0.0,0.0,0.0,0.0,0.0,0.1899,0.6832,0.7352,0.7327,0.7439,0.7111,0.6833,0.6507,0.5531,0.0,0.0,0.0,0.0,0.0,0.0,0.0,0.0,0.0,0.0,0.0,0.0,0.0,0.0,0.0,0.0,0.0,0.0,0.0,0.0,0.0,0.0,0.0,0.0,0.0,0.0,0.0,0.0,0.0,0.0,0.0,0.0,0.0,0.0,0.0,0.0,0.0,0.0,0.0,0.0,0.0,0.0,0.0,0.0,0.0,0.0,0.0,0.0,0.0,0.0,0.0,0.0,0.0,0.0,0.0,0.0,0.0,0.0,0.0,0.0,0.0,0.0,0.0,0.0,0.0,0.0,0.0,0.0,0.0,0.0,0.0,0.0,0.0,0.0,0.0,0.0,0.0,0.0,0.0,0.0,0.0,0.0,0.0,0.0,0.0,0.0,0.0,0.0,0.0,0.0,0.0,0.0,0.0,0.0,0.0,0.0,0.0,0.0,0.0,0.0,0.0,0.0,0.2902,0.5859,0.0,0.8022,0.8,0.813,0.7545,0.7083,0.6602,0.0,0.0,0.0,0.0,0.0,0.0,0.0,0.0,0.0,0.0,0.0,0.0,0.0,0.0,0.0,0.0,0.0,0.0,0.0,0.0,0.0,0.0,0.0,0.0,0.0,0.0,0.0,0.0,0.0,0.0,0.0,0.0,0.0,0.0,0.0,0.0,0.0,0.0,0.0,0.0,0.0,0.0,0.0,0.0,0.0,0.0,0.0,0.0,0.0,0.0,0.0,0.0,0.0,0.0,0.0,0.0,0.0,0.0,0.0,0.0,0.0,0.0,0.0,0.0,0.0,0.0,0.0,0.0,0.0,0.0,0.0,0.0,0.0,0.0,0.0,0.0,0.0,0.0,0.0,0.0,0.0,0.0,0.0,0.0,0.0,0.0,0.0,0.0,0.0,0.0,0.0,0.0,0.0,0.0,0.0,0.0,0.0,0.0,0.0,0.0,0.0,0.0,0.2289,0.5838,0.827,0.0,0.8438,0.8432,0.8629,0.8108,0.7559,0.6858,0.0,0.0,0.0,0.0,0.0,0.0,0.0,0.0,0.0,0.0,0.0,0.0,0.0,0.0,0.0,0.0,0.0,0.0,0.0,0.0,0.0,0.0,0.0,0.0,0.0,0.0,0.0,0.0,0.0,0.0,0.0,0.0,0.0,0.0,0.0,0.0,0.0,0.0,0.0,0.0,0.0,0.0,0.0,0.0,0.0,0.0,0.0,0.0,0.0,0.0,0.0,0.0,0.0,0.0,0.0,0.0,0.0,0.0,0.0,0.0,0.0,0.0,0.0,0.0,0.0,0.0,0.0,0.0,0.0,0.0,0.0,0.0,0.0,0.0,0.0,0.0,0.0,0.0,0.0,0.0,0.0,0.0,0.0,0.0,0.0,0.0,0.0,0.0,0.0,0.0,0.0,0.0,0.0,0.0,0.0,0.0,0.0,0.0,0.0,0.0,0.0,0.0,0.7208,0.831,0.8612,0.8464,0.9016,0.9293,0.8887,0.876,0.8343,0.0,0.0,0.0,0.0,0.0,0.0,0.0,0.0,0.0,0.0,0.0,0.0,0.0,0.0,0.0,0.0,0.0,0.0,0.0,0.0,0.0,0.0,0.0,0.0,0.0,0.0,0.0,0.0,0.0,0.0,0.0,0.0,0.0,0.0,0.0,0.0,0.0,0.0,0.0,0.0,0.0,0.0,0.0,0.0,0.0,0.0,0.0,0.0,0.0,0.0,0.0,0.0,0.0,0.0,0.0,0.0,0.0,0.0,0.0,0.0,0.0,0.0,0.0,0.0,0.0,0.0,0.0,0.0,0.0,0.0,0.0,0.0,0.0,0.0,0.0,0.0,0.0,0.0,0.0,0.0,0.0,0.0,0.0,0.0,0.0,0.0,0.0,0.0,0.0,0.0,0.0,0.0,0.0,0.0,0.0,0.0,0.0,0.0,0.0,0.0,0.0,0.0,0.0,0.0,0.8482,0.8747,0.9252,0.9191,0.945,0.9808,0.9284,0.8549,0.7596,0.0,0.0,0.0,0.0,0.0,0.0,0.0,0.0,0.0,0.0,0.0,0.0,0.0,0.0,0.0,0.0,0.0,0.0,0.0,0.0,0.0,0.0,0.0,0.0,0.0,0.0,0.0,0.0,0.0,0.0,0.0,0.0,0.0,0.0,0.0,0.0,0.0,0.0,0.0,0.0,0.0,0.0,0.0,0.0,0.0,0.0,0.0,0.0,0.0,0.0,0.0,0.0,0.0,0.0,0.0,0.0,0.0,0.0,0.0,0.0,0.0,0.0,0.0,0.0,0.0,0.0,0.0,0.0,0.0,0.0,0.0,0.0,0.0,0.0,0.0,0.0,0.0,0.0,0.0,0.0,0.0,0.0,0.0,0.0,0.0,0.0,0.0,0.0,0.0,0.0,0.0,0.0,0.0,0.0,0.0,0.0,0.0,0.0,0.0,0.0,0.0,0.0,0.667,0.7899,0.8747,0.9244,0.9467,0.9763,1.0172,0.9838,0.9208,0.8146,0.0,0.0,0.0,0.0,0.0,0.0,0.0,0.0,0.0,0.0,0.0,0.0,0.0,0.0,0.0,0.0,0.0,0.0,0.0,0.0,0.0,0.0,0.0,0.0,0.0,0.0,0.0,0.0,0.0,0.0,0.0,0.0,0.0,0.0,0.0,0.0,0.0,0.0,0.0,0.0,0.0,0.0,0.0,0.0,0.0,0.0,0.0,0.0,0.0,0.0,0.0,0.0,0.0,0.0,0.0,0.0,0.0,0.0,0.0,0.0,0.0,0.0,0.0,0.0,0.0,0.0,0.0,0.0,0.0,0.0,0.0,0.0,0.0,0.0,0.0,0.0,0.0,0.0,0.0,0.0,0.0,0.0,0.0,0.0,0.0,0.0,0.0,0.0,0.0,0.0,0.0,0.0,0.0,0.0,0.0,0.0,0.0,0.0,0.0,0.0,0.0,0.0,0.5239,0.7143,0.8738,0.906,0.9777,1.0272,1.0248,1.0437,1.0005,0.8804,0.0,0.0,0.0,0.0,0.0,0.0,0.0,0.0,0.0,0.0,0.0,0.0,0.0,0.0,0.0,0.0,0.0,0.0,0.0,0.0,0.0,0.0,0.0,0.0,0.0,0.0,0.0,0.0,0.0,0.0,0.0,0.0,0.0,0.0,0.0,0.0,0.0,0.0,0.0,0.0,0.0,0.0,0.0,0.0,0.0,0.0,0.0,0.0,0.0,0.0,0.0,0.0,0.0,0.0,0.0,0.0,0.0,0.0,0.0,0.0,0.6425,0.0,0.0,0.0,0.0,0.0,0.0,0.0,0.0,0.0,0.0,0.0,0.0,0.0,0.0,0.0,0.0,0.0,0.0,0.0,0.0,0.0,0.0,0.0,0.0,0.0,0.0,0.0,0.0,0.0,0.0,0.0,0.0,0.0,0.0,0.0,0.0,0.0,0.0,0.0,0.0,0.0,0.7157,0.8195,0.9194,0.9906,1.0333,1.0611,1.0955,1.0745,1.0161,0.8967,0.0,0.0,0.0,0.0,0.0,0.0,0.0,0.0,0.0,0.0,0.0,0.0,0.0,0.0,0.0,0.0,0.0,0.0,0.0,0.0,0.0,0.0,0.0,0.0,0.0,0.0,0.0,0.0,0.0,0.0,0.0,0.0,0.0,0.0,0.0,0.0,0.0,0.0,0.0,0.0,0.0,0.0,0.0,0.0,0.0,0.0,0.0,0.0,0.0,0.0,0.0,0.0,0.0,0.0,0.0,0.0,0.0,0.0,0.0,0.0,0.0,0.6138,0.0,0.0,0.0,0.0,0.0,0.0,0.0,0.0,0.0,0.0,0.0,0.0,0.0,0.0,0.0,0.0,0.0,0.0,0.0,0.0,0.0,0.0,0.0,0.0,0.0,0.0,0.0,0.0,0.0,0.0,0.0,0.0,0.0,0.0,0.0,0.0,0.0,0.0,0.0,0.0,0.7847,0.8568,0.9377,1.0031,1.0419,1.0836,1.1114,1.0967,1.0548,0.9639,0.8743,0.0,0.0,0.0,0.0,0.0,0.0,0.0,0.0,0.0,0.0,0.0,0.0,0.0,0.0,0.0,0.0,0.0,0.0,0.0,0.0,0.0,0.0,0.0,0.0,0.0,0.0,0.0,0.0,0.0,0.0,0.0,0.0,0.0,0.0,0.0,0.0,0.0,0.0,0.0,0.0,0.0,0.0,0.0,0.0,0.0,0.0,0.0,0.0,0.0,0.0,0.0,0.0,0.0,0.0,0.9077,0.6453,0.6444,0.7225,0.8468,0.7374,0.7293,0.7566,0.0,0.0,0.0,0.0,0.0,0.0,0.0,0.0,0.0,0.0,0.0,0.0,0.0,0.0,0.0,0.0,0.0,0.0,0.0,0.0,0.0,0.0,0.0,0.0,0.0,0.7505,0.6868,0.0,0.0,0.0,0.0,0.0,0.0,0.0,0.0,0.0,0.0,0.0,0.0,0.7981,0.877,0.9502,0.9976,1.0606,1.1031,1.1005,1.1208,1.0941,1.0317,0.9442,0.854,0.0,0.0,0.0,0.0,0.0,0.0,0.0,0.0,0.0,0.0,0.0,0.0,0.0,0.0,0.0,0.0,0.0,0.0,0.0,0.0,0.0,0.0,0.0,0.0,0.0,0.0,0.0,0.0,0.0,0.0,0.0,0.0,0.5372,0.4927,0.0,0.0,0.0,0.0,0.0,0.0,0.0,0.0,0.0,0.0,0.0,0.0,0.0,0.0,0.8057,0.8077,0.7481,0.618,0.8893,1.0273,1.05,1.0498,1.0704,1.0857,1.0611,0.0,0.7615,0.7762,0.0,0.0,0.0,0.0,0.0,0.0,0.0,0.0,0.0,0.0,0.0,0.0,0.0,0.0,0.0,0.0,0.0,0.0,0.0,0.0,0.0,0.0,0.7584,0.7624,0.7757,0.7665,0.0,0.6691,0.643,0.6505,0.0,0.0,0.0,0.0,0.0,0.0,0.0,0.0,0.8131,0.8903,0.9846,1.0718,1.09,1.1136,1.1288,1.1382,1.105,1.0324,1.0025,0.9469,0.8574,0.7821,0.0,0.0,0.0,0.0,0.0,0.0,0.0,0.0,0.0,0.0,0.0,0.0,0.0,0.0,0.0,0.0,0.0,0.0,0.0,0.0,0.0,0.0,0.0,0.0,0.0,0.0,0.0,0.0,0.0,0.1474,0.3593,0.5789,0.4362,0.2336,0.0,0.0,0.0,0.0,0.0,0.0,0.0,0.0,0.0,0.2726,0.3043,0.462,0.7557,0.8844,0.9342,0.8852,1.0064,1.077,1.1114,1.1321,1.153,1.1605,1.1518,1.0889,0.9856,0.9029,0.8237,0.7469,0.0,0.0,0.0,0.0,0.0,0.7769,0.784,0.0,0.0,0.0,0.0,0.0,0.0,0.0,0.0,0.0,0.0,0.0,0.0,0.0,0.0,0.8046,0.8193,0.8242,0.8127,0.7881,0.75,0.0,0.6675,0.6056,0.5192,0.0,0.0,0.0,0.0,0.0,0.84,0.9371,1.0354,1.0862,1.1188,1.1449,1.1525,1.1443,1.1212,1.0806,1.0473,1.0012,0.9361,0.8621,0.7868,0.0,0.0,0.0,0.0,0.0,0.0,0.0,0.0,0.0,0.0,0.0,0.0,0.0,0.0,0.0,0.0,0.0,0.0,0.0,0.0,0.0,0.0,0.0,0.0,0.0,0.0,0.0,0.0,0.0,0.1204,0.4355,0.5541,0.4959,0.0,0.0,0.0,0.0,0.0,0.0,0.7369,0.868,0.8365,0.6341,0.68,0.7304,0.7585,0.9269,1.0637,1.1365,1.1253,1.1312,1.1544,1.1737,1.1959,1.206,1.206,1.204,1.1911,1.0054,0.9555,0.9747,0.8298,0.8307,0.9071,0.899,0.9422,1.0192,1.0225,1.0225,1.0088,0.9721,0.0,0.9553,0.9797,0.0,0.0,0.0,0.0,0.8406,0.8641,0.0,0.8919,0.887,0.8884,0.8923,0.8706,0.859,0.8265,0.0,0.7299,0.6978,0.6126,0.0,0.0,0.0,0.0,0.8026,0.8986,0.9908,1.0783,1.1149,1.1476,1.1619,1.1619,1.1477,1.1307,1.1118,1.0792,1.0405,0.9958,0.9334,0.8662,0.0,0.0,0.0,0.0,0.0,0.0,0.0,0.0,0.0,0.0,0.0,0.0,0.0,0.0,0.0,0.0,0.0,0.0,0.0,0.0,0.0,0.0,0.0,0.0,0.0,0.0,0.0,0.0,0.0,0.0,0.0283,0.4347,0.0,0.0,0.0,0.0,0.4097,0.4273,0.4569,0.4865,0.7663,0.9757,1.0586,1.0689,1.0766,1.1116,1.1485,1.1606,1.1644,1.1773,1.1991,1.2461,1.261,1.2678,1.2684,1.2684,1.2603,1.2406,1.1633,1.1138,1.0705,1.013,0.9843,0.9627,0.9771,0.9745,0.9804,1.0365,1.0378,1.0331,1.0738,1.025,0.9519,0.9961,0.9264,0.0,0.0,0.9586,0.9633,0.9682,0.9606,0.9692,0.9967,1.0034,0.9902,0.9481,0.9377,0.8955,0.0,0.7976,0.7962,0.7528,0.0,0.7755,0.8072,0.8323,0.8871,1.0083,1.0541,1.1012,1.1456,1.1619,1.1619,1.1619,1.1477,1.1267,1.0975,1.0941,1.0724,1.0276,0.9944,0.9483,0.8879,0.7848,0.0,0.0,0.0,0.0,0.0,0.0,0.0,0.0,0.0,0.0,0.0,0.0,0.0,0.0,0.0,0.0,0.0,0.0,0.0,0.0,0.0,0.0,0.0,0.0,0.0,0.0,0.0,0.0,0.5546,0.5402,0.0,0.0,0.7062,0.6734,0.7039,0.7469,0.7601,0.7626,0.9274,1.029,1.045,1.1161,1.1515,1.1965,1.1953,1.22,1.2568,1.2298,1.2318,1.28,1.2854,1.2881,1.2881,1.2881,1.2847,1.2779,1.2508,1.2054,1.1497,1.1154,1.102,1.0933,1.098,1.1027,1.1074,1.1314,1.1321,1.1274,1.124,1.0989,1.0663,1.0658,1.0263,0.9942,1.0196,1.0174,1.0163,0.9961,1.004,1.0199,1.029,1.0382,1.0419,1.0191,1.007,0.9883,0.9424,0.8733,0.8284,0.8101,0.8135,0.8396,0.858,0.9142,0.9793,1.0535,1.0955,1.1308,1.1606,1.1619,1.1619,1.1619,1.1389,1.1199,1.109,1.0907,1.0643,1.0297,1.008,0.9734,0.9232,0.8472,0.7645,0.0,0.0,0.0,0.0,0.0,0.0,0.0,0.0,0.0,0.0,0.0,0.0,0.0,0.0,0.0,0.0,0.0,0.0,0.0,0.0,0.0,0.0,0.0,0.0,0.0,0.0,0.8852,0.8719,0.7179,0.6653,0.8295,0.8488,0.8643,0.8904,0.9308,0.966,0.9906,1.0462,1.0853,1.0908,1.1509,1.2141,1.2489,1.2589,1.2688,1.3112,1.288,1.2926,1.3261,1.3261,1.3261,1.3254,1.3207,1.3159,1.3105,1.3057,1.2712,1.2196,1.2054,1.1965,1.1918,1.1918,1.1979,1.2047,1.1999,1.1952,1.1877,1.1681,1.1511,1.1369,1.1274,1.1138,1.1056,1.0922,1.0822,1.0855,1.0722,1.0894,1.1034,1.1034,1.1104,1.1148,1.0907,1.0819,1.0581,1.0352,0.9692,0.9168,0.9118,0.9172,0.93,0.9405,0.9929,1.0502,1.0928,1.1235,1.1525,1.1674,1.1647,1.1619,1.1619,1.1294,1.109,1.109,1.0765,1.046,1.0215,1.0005,0.9713,0.9313,0.8567,0.7814,0.7068,0.0,0.0,0.0,0.0,0.0,0.0,0.0,0.0,0.0,0.0,0.0,0.0,0.0,0.0,0.0,0.0,0.0,0.0,0.0,0.0,0.0,0.0,0.0,0.8571,0.905,0.9169,0.896,0.9319,0.9341,0.8834,0.9128,0.9388,0.966,0.9763,1.031,1.1021,1.1287,1.1654,1.2266,1.2256,1.2494,1.2983,1.3268,1.3417,1.3417,1.3702,1.3838,1.3838,1.3838,1.3838,1.3831,1.3695,1.3553,1.3403,1.3254,1.3112,1.2969,1.28,1.2644,1.2515,1.2515,1.2515,1.2494,1.2359,1.2216,1.2088,1.2088,1.1986,1.1857,1.185,1.1755,1.1667,1.1803,1.1837,1.187,1.202,1.2067,1.2067,1.2067,1.2067,1.2067,1.1619,1.1469,1.1463,1.1014,1.0731,1.0586,1.0438,1.0522,1.0659,1.0658,1.0849,0.0,1.1409,1.1545,1.1687,1.1816,1.1708,1.1626,1.1619,1.1212,1.0955,1.0948,1.0534,1.0215,1.0059,0.9774,0.9476,0.9164,0.8153,0.7414,0.6953,0.0,0.0,0.0,0.0,0.0,0.0,0.0,0.0,0.0,0.0,0.0,0.0,0.0,0.0,0.0,0.0,0.0,0.0,0.0,0.0,0.0,0.0,0.9082,0.9131,0.9065,0.905,0.9115,0.9478,0.9695,0.9573,1.0037,1.0354,1.0639,1.0739,1.1115,1.1293,1.1786,1.2103,1.2398,1.2873,1.3164,1.3444,1.3627,1.3722,1.3722,1.3804,1.3838,1.3838,1.3838,1.3838,1.3838,1.3797,1.3756,1.3715,1.3675,1.3634,1.3553,1.3085,1.2874,1.2834,1.2834,1.2834,1.2827,1.2793,1.2752,1.2712,1.2712,1.261,1.2461,1.2352,1.2216,1.2088,1.202,1.1999,1.2006,1.2054,1.2142,1.223,1.223,1.223,1.223,1.2079,1.1992,1.1911,1.1762,1.1777,1.1444,1.0909,1.0722,1.0796,1.1208,0.0,0.0,1.185,1.1911,1.1911,1.1837,1.1796,1.1728,1.1626,1.2271,1.2142,0.0,1.1534,1.1329,1.0059,0.9971,0.9734,0.9327,0.8716,0.8126,0.0,0.0,0.0,0.0,0.0,0.0,0.0,0.0,0.0,0.0,0.0,0.0,0.0,0.0,0.0,0.0,0.0,0.0,0.0,0.0,0.0,0.0,0.8176,0.9307,0.9678,0.9538,0.9528,0.9521,1.0072,1.0444,1.0476,1.0865,1.1296,1.1497,1.166,1.1836,1.2359,1.2605,1.2913,1.3111,1.3372,1.3627,1.3715,1.3865,1.3939,1.3939,1.4,1.4374,1.5233,1.4374,1.4374,0.0,1.4305,1.3939,1.3933,1.3865,1.3838,0.0,0.0,0.0,0.0,0.0,1.32,1.3139,1.3071,1.301,1.2963,1.2963,1.2901,1.2813,1.2718,1.2637,1.2556,1.2461,1.244,1.244,1.244,1.2501,1.2569,1.2569,1.2569,1.2556,1.2488,1.2406,1.2325,1.2257,0.0,0.0,1.1636,1.1411,1.1292,1.1687,1.1762,1.187,0.0,1.206,1.2054,1.2026,1.1965,1.2185,1.2823,1.3287,0.0,0.0,0.0,1.1814,0.9883,0.0,0.0,0.0,0.0,0.0,0.0,0.0,0.0,0.0,0.751,0.7483,0.0,0.0,0.0,0.0,0.0,0.0,0.0,0.0,0.0,0.0,0.0,0.0,0.0,0.0,0.0,0.0,0.7316,0.9294,1.0203,1.0455,1.0426,1.0064,1.0903,1.1466,1.1417,1.1765,1.22,1.2321,1.2353,1.2644,1.341,0.0,0.0,0.0,0.0,1.3865,1.3865,1.4034,1.4122,1.4122,1.4448,1.558,1.7153,1.5749,1.5918,1.7288,1.5563,1.4799,1.4778,1.4629,1.4572,1.4393,1.4194,1.418,1.4166,1.4203,1.3902,0.0,0.0,0.0,0.0,1.3044,1.3037,1.303,1.2996,1.2983,1.2983,1.2969,1.3116,1.3276,1.3276,1.3436,1.3596,1.3596,1.3596,1.3554,1.3411,1.3225,1.3026,1.2887,1.2601,1.2366,1.2366,1.2196,1.202,1.1898,1.1999,0.0,1.2407,1.2258,1.2306,1.2726,0.0,0.0,1.4712,1.4525,1.4692,1.57,1.3928,1.1917,1.0116,0.9573,0.9245,0.9117,0.9225,0.9347,0.9483,0.9618,0.9693,0.968,0.8431,0.8275,0.0,0.0,0.0,0.0,0.0,0.0,0.0,0.0,0.0,0.0,0.0,0.0,0.0,0.0,0.0,0.8094,0.9228,1.0046,1.006,1.0822,1.1352,1.0944,1.1396,1.1869,1.1886,1.2483,1.2782,1.2956,1.3083,1.3231,1.3573,1.3695,0.0,1.3838,1.396,1.4027,1.4027,1.4292,1.4428,1.4428,0.0,0.0,1.7698,1.8945,1.9569,1.9591,1.9193,1.8918,1.8766,1.873,1.8712,1.8512,1.6828,1.6034,1.6196,1.7678,1.6301,1.3919,1.5394,1.4865,1.3654,1.3539,1.3498,1.3451,1.3207,1.3132,0.0,1.299,1.4069,1.517,1.517,1.6115,1.7223,1.7223,1.7223,1.7214,1.7178,1.6064,1.5106,1.5074,1.3785,1.2834,1.2834,1.2406,1.2094,1.2189,1.223,1.274,1.4221,1.3173,1.3442,1.6037,1.4952,1.4877,1.6333,1.7221,1.7298,1.6067,1.4121,1.2824,1.2298,1.0962,1.0222,1.0188,1.0107,1.008,1.0107,1.0134,1.0209,1.0304,0.968,0.9483,0.0,0.0,0.0,0.0,0.0,0.0,0.0,0.0,0.0,0.0,0.0,0.6142,0.6359,0.0,0.9243,0.9185,0.9877,1.0531,1.0718,1.1454,1.1779,1.1472,1.1908,1.239,1.2609,1.2929,1.3241,1.339,1.3539,1.3688,1.3844,1.3919,1.3994,1.4068,1.4143,1.4217,1.4292,1.5497,1.5973,1.6062,1.8296,1.959,2.0488,2.0667,2.1145,2.1747,2.0754,2.0352,2.0343,2.0247,2.0492,2.1068,1.9981,1.9038,1.8343,1.9259,1.8372,1.6836,1.7756,1.7383,1.6527,1.6438,1.6582,1.6549,1.6361,1.6246,1.6155,1.6073,1.6461,1.7029,1.7029,1.7673,1.8474,1.8474,1.8474,1.8446,1.8341,1.7677,1.7013,1.6924,1.6282,1.5647,1.5647,1.5343,1.4523,1.2922,1.3396,1.4345,1.5204,1.4594,1.5023,1.7395,1.6925,1.7005,1.8451,1.9501,1.936,1.771,1.6333,1.4916,1.3344,1.2383,1.1468,1.0609,1.0609,1.0616,1.0616,1.069,1.0758,1.0826,1.0677,1.0527,0.0,0.0,0.0,0.0,0.0,0.0,0.0,0.0,0.6774,0.7903,0.833,0.8493,0.8678,0.9336,0.9927,0.9789,1.0311,1.0995,1.1669,1.1991,1.2102,1.2155,1.2581,1.2908,1.3152,1.3336,1.3498,1.362,1.379,1.3939,1.4061,1.4102,1.4359,1.4864,1.4871,1.5113,1.5621,1.7258,1.8245,1.8397,2.0411,2.204,2.3483,2.2409,2.2747,2.3941,2.2278,2.158,2.172,2.155,2.2256,2.3314,2.3314,2.2436,2.1005,2.0908,2.0304,1.9761,1.9929,1.9861,1.9523,1.9475,1.9466,1.9456,1.9418,1.9256,1.8928,1.8928,1.9106,1.9105,1.9105,1.944,1.9602,1.9602,1.9602,1.9553,1.9534,1.9203,1.9013,1.8808,1.8481,1.8341,1.8293,1.861,1.7631,1.4556,1.517,1.6273,1.659,1.6273,1.6898,1.8956,1.8799,1.9199,2.0715,2.13,2.1089,1.9692,1.8942,1.7333,1.4795,1.3925,1.283,1.1518,1.1207,1.1131,1.1165,1.128,1.1335,1.1341,1.1463,1.1362,0.5235,0.5208,0.5415,0.5855,0.5975,0.6241,0.0,0.0,0.7536,0.8027,0.8661,0.908,0.9139,0.9745,1.0217,1.04,1.1051,1.1669,1.1837,1.2298,1.2641,1.3064,1.3112,1.3132,1.3166,1.3437,1.3614,1.3627,1.3885,1.4055,1.4068,1.4197,1.5219,1.7137,1.7145,1.8118,1.9913,2.0278,2.0561,2.0589,2.2779,2.3796,2.3978,2.5638,2.6257,2.6211,2.5749,2.5478,2.5501,2.5466,2.5618,2.577,2.577,2.5595,2.536,2.4879,2.2611,2.0009,2.1718,2.1181,1.977,1.9581,1.9514,1.9477,1.9456,1.9256,1.8928,1.8928,1.9925,2.0899,2.0899,2.2039,2.3187,2.3187,2.3187,2.3187,2.3152,2.2184,2.1111,2.0867,1.9845,1.8768,1.8588,1.9846,2.0196,1.791,1.7854,1.8484,1.9907,1.8799,1.9113,2.2257,2.1157,2.099,2.2686,2.2488,2.2162,2.1977,2.014,1.8972,1.8651,1.5705,1.4091,1.4091,1.251,1.1803,1.1938,1.1952,1.1959,1.1959,1.1979,1.183,0.6127,0.6165,0.6317,0.0,0.6975,0.7293,0.801,0.829,0.8386,0.8945,0.9395,0.9799,0.995,1.0463,1.1027,0.0,1.1828,1.2185,1.2574,1.2661,1.2908,1.3037,1.3119,1.3241,1.3417,1.3627,1.379,1.3878,1.4082,1.4766,1.608,1.6148,1.7145,1.9285,1.9285,1.9922,2.0848,2.2021,2.2676,2.281,2.4763,2.573,2.573,2.6664,2.6882,2.6641,2.6677,2.6508,2.623,2.6399,2.6363,2.6218,2.6218,2.6218,2.6194,2.5977,2.4743,2.338,2.4258,2.381,2.3159,2.3049,2.3016,2.2994,2.2895,2.2697,2.251,2.251,2.283,2.3131,2.3131,2.3797,2.4299,2.4299,2.4299,2.4299,2.4299,2.3728,2.3257,2.3154,2.2718,2.2212,2.197,2.2414,2.2624,2.1634,2.0612,2.0134,2.0931,2.0293,2.0931,2.3186,2.2741,2.249,2.3285,2.2935,2.2718,2.2718,2.1883,2.0932,1.9886,1.8458,1.6684,1.472,1.3808,1.3022,1.206,1.206,1.2108,1.2196,1.2277,1.2298,0.6692,0.6978,0.0,0.763,0.7999,0.8329,0.8828,0.9115,0.9276,0.9771,1.0147,1.037,1.0568,1.1186,1.1567,1.1926,1.236,1.2671,1.2976,1.3465,1.3611,1.3653,1.4194,1.4519,1.4855,1.4238,1.4057,1.4686,1.5096,1.6164,1.8228,1.8288,1.9285,2.1462,2.1641,2.1931,2.2525,2.3987,2.48,2.499,2.6288,2.7027,2.7027,2.7027,2.693,2.6761,2.6954,2.681,2.646,2.6665,2.6629,2.6447,2.6447,2.6447,2.6447,2.6447,2.623,2.594,2.594,2.5808,2.5651,2.5651,2.5602,2.5542,2.5542,2.5313,2.5047,2.5047,2.4842,2.4625,2.4625,2.4625,2.4625,2.4625,2.4625,2.4625,2.4625,2.4685,2.4721,2.4637,2.4685,2.4661,2.4383,2.4347,2.4275,2.4094,2.2901,2.2022,2.1889,2.1933,2.2463,2.3788,2.378,2.3635,2.3562,2.3309,2.3152,2.3152,2.308,2.2484,2.1209,2.0572,1.8714,1.5811,1.5076,1.396,1.2311,1.2311,1.2366,1.2481,1.2583,1.2691,0.6654,0.727,0.8137,0.84,0.901,0.9633,0.9771,0.9936,1.0077,1.0217,1.0643,1.1031,1.1044,1.1563,1.2108,1.2271,1.2535,1.2827,1.3125,1.4486,1.5393,1.5554,1.6854,1.7845,0.0,1.5501,1.4515,1.6382,1.7039,1.8228,2.0176,2.0543,2.1641,2.3677,2.3677,2.4721,2.6833,2.6833,2.6845,2.6845,2.7027,2.7027,2.7027,2.7027,2.7027,2.7015,2.7027,2.7015,2.7003,2.7015,2.7015,2.7003,2.7003,2.7003,2.7003,2.7003,2.6665,2.6206,2.6206,2.6206,2.6194,2.6194,2.6025,2.582,2.582,2.5458,2.5047,2.5047,2.4842,2.4625,2.4625,2.4625,2.4625,2.4625,2.4625,2.4625,2.4625,2.4842,2.4951,2.4673,2.4842,2.4939,2.4661,2.4613,2.4613,2.4601,2.4601,2.4256,2.3752,2.3908,2.4064,2.4226,2.4214,2.4106,2.3852,2.3587,2.3442,2.3442,2.3188,2.3043,2.3031,2.1457,1.9719,1.7974,1.6397,1.4661,1.2935,1.2935,1.2935,1.2942,1.2942,1.2949,0.7692,0.8432,0.9111,0.9516,0.9954,1.0333,1.0894,1.0925,1.0906,1.124,1.1206,1.1235,1.1435,1.1476,1.1796,1.2338,1.2596,1.2868,1.3268,1.4906,1.5772,1.5433,1.7164,0.0,0.0,0.0,0.0,1.839,1.8912,2.0091,2.2319,2.2547,2.3688,2.5774,2.5966,2.6194,2.7027,2.7027,2.7027,2.7027,2.7027,2.7027,2.7039,2.7208,2.7292,2.7304,2.7473,2.7546,2.7546,2.7349,2.7349,2.7337,2.7145,2.7085,2.7085,2.728,2.7063,2.6737,2.6556,2.6375,2.6218,2.6218,2.6158,2.6061,2.588,2.582,2.5784,2.5615,2.5494,2.5421,2.5421,2.5289,2.5168,2.5168,2.5168,2.5168,2.5168,2.524,2.5277,2.518,2.524,2.5216,2.4951,2.4902,2.4842,2.4661,2.4625,2.4564,2.4383,2.4444,2.4492,2.4492,2.4492,2.4456,2.4371,2.4287,2.4226,2.4226,2.4142,2.4021,2.384,2.3182,2.1885,1.9968,1.8078,1.6432,1.4692,1.3596,1.3064,1.3254,1.3254,1.3356,0.8676,0.946,1.0009,1.0555,1.0938,1.1231,1.1573,1.1649,1.1524,1.1623,1.1396,1.1145,1.1341,1.1212,1.1348,1.2203,1.2474,1.2944,1.421,1.5891,1.706,1.7458,1.9193,2.0366,0.0,0.0,0.0,2.0418,2.0885,2.2143,2.423,2.4744,2.5558,2.7027,2.7123,2.7123,2.7027,2.722,2.7304,2.7304,2.7304,2.7304,2.7317,2.7486,2.7558,2.757,2.7739,2.7811,2.7811,2.7799,2.7613,2.7589,2.7223,2.7152,2.6955,2.7361,2.7449,2.728,2.7015,2.6737,2.6508,2.6508,2.6447,2.6315,2.6049,2.6085,2.6158,2.5904,2.5892,2.5965,2.5965,2.5844,2.5723,2.5723,2.5723,2.5687,2.5602,2.5578,2.5542,2.5458,2.5433,2.5385,2.5216,2.5192,2.512,2.4939,2.4914,2.4878,2.4794,2.477,2.477,2.477,2.477,2.4733,2.4637,2.4625,2.4625,2.4625,2.4625,2.4552,2.4383,2.4214,2.3225,2.1427,2.0138,1.8285,1.6024,1.4891,1.4024,1.3559,1.3559,1.3661,0.9552,1.0295,1.107,1.1345,1.1676,1.2088,1.2088,1.1952,1.1789,1.164,1.1233,1.09,0.0,0.0,1.0819,1.1857,1.234,1.3389,1.5972,1.7625,1.9307,0.0,0.0,0.0,0.0,0.0,0.0,2.231,0.0,2.4241,2.6066,2.6749,2.7051,2.7051,2.7304,2.7317,2.7075,2.757,2.7811,2.7811,2.7811,2.7811,2.7811,2.7824,2.7836,2.7836,2.7848,2.786,2.786,2.786,2.7848,2.7649,2.7637,2.7414,2.7203,2.7426,2.7824,2.7998,2.7546,2.728,2.7051,2.7051,2.687,2.6604,2.6327,2.6254,2.6206,2.594,2.6049,2.6242,2.6242,2.623,2.6218,2.6218,2.6218,2.6146,2.5904,2.5844,2.5771,2.553,2.5482,2.5482,2.5482,2.5482,2.547,2.5458,2.547,2.5373,2.5108,2.5071,2.5071,2.5071,2.5071,2.4963,2.4685,2.4673,2.4673,2.4673,2.4673,2.4661,2.4649,2.4649,2.3797,2.211,2.211,2.0249,1.6875,1.6705,1.5701,1.4022,1.3858,1.3871,1.0477,1.1233,1.1791,1.1978,1.2284,1.2386,1.2386,1.2101,1.1755,1.1504,1.0826,1.0243,0.0,0.0,0.0,1.143,1.3342,0.0,1.6178,1.9323,0.0,2.1534,0.0,2.4794,2.4456,2.5035,0.0,0.0,2.5067,2.5571,2.6508,2.7039,2.7317,2.7317,2.757,2.7679,2.7618,2.7751,2.7811,2.7811,2.7811,2.7811,2.7824,2.8017,2.8101,2.8113,2.8331,2.8415,2.8415,2.8415,2.8415,2.8391,2.7972,2.79,2.8113,2.7888,2.7968,2.8047,2.818,2.7901,2.7317,2.7317,2.7148,2.6882,2.6616,2.6665,2.6761,2.6508,2.6484,2.6532,2.6532,2.6375,2.6218,2.6218,2.6218,2.6194,2.6134,2.6122,2.6097,2.6037,2.6025,2.6025,2.6025,2.6025,2.5953,2.5759,2.5892,2.5856,2.5397,2.5337,2.5337,2.5337,2.5337,2.5313,2.524,2.5228,2.5228,2.5228,2.5228,2.5144,2.4951,2.4939,2.4675,2.3962,2.261,2.1599,2.0584,1.7891,1.6446,1.6066,1.4821,1.4238,1.1391,1.1965,1.2461,1.2481,1.2542,1.2494,1.2101,1.1769,1.1362,1.0738,1.01,0.0,0.9374,0.9639,0.0,0.0,0.0,0.0,1.8302,2.0813,2.2583,0.0,2.4479,0.0,2.5168,2.5663,2.6049,0.0,2.6182,2.6363,2.6785,2.7196,2.7473,2.7594,2.7848,2.8041,2.8162,2.8041,2.8041,2.8174,2.8174,2.8174,2.8174,2.8318,2.8391,2.8391,0.0,2.862,2.862,2.862,2.862,2.8608,2.8236,2.8318,2.8613,2.821,2.8041,2.8035,2.8193,2.8047,2.7594,2.7594,2.7498,2.7329,2.7063,2.7172,2.7317,2.7051,2.6979,2.6979,2.6979,2.6785,2.658,2.658,2.658,2.6544,2.6423,2.6399,2.6363,2.6242,2.6218,2.6218,2.6218,2.6218,2.617,2.6025,2.6122,2.6109,2.582,2.5687,2.5615,2.5615,2.5615,2.5615,2.5615,2.5711,2.5784,2.5784,2.5784,2.5711,2.5566,2.5566,2.5482,2.5325,2.4291,2.3425,2.2557,2.0643,1.915,1.8567,1.7629,1.6666,1.2325,1.2664,1.3082,1.3082,1.3026,1.2776,1.1872,1.1504,1.1052,0.9761,0.0,0.8954,0.8703,0.9035,1.0249,1.28,0.0,1.6907,2.11,2.2219,2.3472,2.5287,2.5554,2.5687,2.5916,2.617,2.6447,2.6725,2.6749,2.6846,2.7075,2.7365,2.7642,2.7908,2.8137,2.8379,2.862,2.8379,2.8379,2.862,2.862,2.862,2.862,2.862,2.862,2.862,0.0,0.0,2.862,2.862,2.862,2.862,2.862,2.8679,2.8674,2.846,2.8113,2.7908,2.7932,2.7932,2.7908,2.7836,2.7811,2.7775,2.7546,2.763,2.7763,2.7534,2.7473,2.7473,2.7473,2.7304,2.7123,2.7087,2.7087,2.7015,2.6749,2.6689,2.6616,2.6375,2.6327,2.6327,2.6327,2.6327,2.6315,2.6278,2.6303,2.6315,2.6278,2.6037,2.588,2.588,2.588,2.588,2.588,2.6085,2.6218,2.6218,2.6218,2.6218,2.6218,2.6218,2.6218,2.6218,2.6218,2.5325,2.3709,2.3521,2.2632,2.1025,2.0507,1.9446,1.2739,1.2901,1.3241,1.4484,1.4648,1.4302,1.3539,1.2998,0.0,0.0,0.8804,0.8411,0.8357,0.8811,1.0155,1.307,1.5666,1.8335,2.1488,2.3664,2.5116,0.0,0.0,0.0,0.0,0.0,0.0,0.0,0.0,0.0,2.7353,2.7811,2.8198,2.8475,2.8524,2.8572,2.862,2.8572,2.8572,2.862,2.862,2.862,2.862,2.862,2.862,2.862,0.0,0.0,2.862,2.862,2.862,2.862,2.862,2.8596,2.8548,2.7698,2.7471,2.7842,2.7854,2.8069,2.8403,2.7956,2.7811,2.7799,2.7751,2.7775,2.7799,2.7751,2.7739,2.7739,2.7739,2.7715,2.7618,2.7401,2.7353,2.728,2.7015,2.6966,2.6954,2.6894,2.6894,2.6894,2.6894,2.6894,2.6822,2.6592,2.6749,2.681,2.6592,2.6327,2.6146,2.6146,2.6146,2.6146,2.6146,2.6194,2.6218,2.6218,2.6218,2.6218,2.6218,2.6218,2.6218,2.6218,2.6218,2.6042,2.5678,2.4241,2.3165,2.281,1.9753,1.9105,1.4396,1.3774,1.3774,1.6055,1.5613,1.4594,1.4179,0.0,0.0,0.0,0.8514,0.7896,0.7814,0.8418,0.9971,1.3161,1.5262,1.7826,2.1862,2.3572,0.0,2.5904,2.6387,0.0,0.0,0.0,0.0,0.0,0.0,0.0,2.7618,2.7993,2.8331,2.8608,2.862,2.862,2.862,2.862,2.862,2.862,2.862,2.862,2.862,2.862,2.862,2.862,2.862,0.0,2.862,2.862,2.862,2.862,2.862,2.8536,2.8606,2.7986,2.7914,2.821,2.821,2.8294,2.8355,2.8101,2.8017,2.7993,2.786,2.7811,2.7836,2.798,2.7824,2.7667,2.7944,2.7715,2.7437,2.7594,2.7618,2.7594,2.7461,2.7437,2.7437,2.7437,2.7437,2.7389,2.7256,2.7232,2.7148,2.6882,2.6954,2.6979,2.6858,2.6725,2.6592,2.6447,2.6435,2.6435,2.6435,2.6568,2.6641,2.6641,2.6641,2.6701,2.6834,2.6846,2.6846,2.6846,2.6979,2.6979,2.6846,2.606,2.5753,2.5571,2.3825,2.2953,1.5803,1.5264,1.5162,1.7799,1.7071,1.5511,1.489,1.3361,0.0,0.9589,0.8288,0.7482,0.7434,0.8244,0.9931,1.3202,1.4819,1.7265,2.1995,2.3212,2.4263,0.0,2.6568,0.0,0.0,0.0,0.0,0.0,0.0,0.0,2.7896,2.8149,2.8367,2.8524,2.8596,2.862,2.862,2.862,2.862,2.862,2.862,2.862,2.862,2.862,2.862,2.862,2.862,0.0,0.0,2.862,2.8656,2.8693,2.8644,2.8536,2.8581,2.8533,2.8588,2.8617,2.8617,2.8338,2.8282,2.8222,2.8246,2.8258,2.8053,2.7993,2.8029,2.8234,2.7993,2.7775,2.8186,2.7836,2.7461,2.7811,2.786,2.7811,2.7811,2.7811,2.7811,2.7811,2.7811,2.7751,2.7546,2.751,2.7437,2.7232,2.7196,2.7196,2.7196,2.7196,2.7123,2.6918,2.6785,2.6725,2.6725,2.6918,2.7027,2.7027,2.7087,2.7208,2.7413,2.7473,2.751,2.751,2.7703,2.7715,2.751,2.7715,2.7811,2.7811,2.7438,2.649,1.609,1.7138,1.8758,1.9895,1.9695,1.8738,1.6957,0.0,1.2567,0.9723,0.8094,0.7265,0.7529,0.8631,1.0484,1.3441,1.5533,1.8028,2.2133,2.3526,2.4673,2.6061,0.0,0.0,2.7051,0.0,0.0,0.0,0.0,0.0,0.0,2.8427,2.8475,2.8246,2.8487,2.862,2.862,2.862,2.862,2.862,2.862,2.862,2.862,2.862,2.862,2.862,0.0,0.0,0.0,2.862,2.856,2.8533,2.8512,2.8548,2.8692,2.8669,2.8572,2.856,2.856,2.8572,2.8536,2.8282,2.8379,2.8584,2.856,2.8548,2.856,2.8572,2.8548,2.8524,2.8572,2.8536,2.8427,2.821,2.798,2.7811,2.7811,2.7811,2.7811,2.7811,2.7811,2.7799,2.7775,2.7775,2.7763,2.7739,2.7739,2.7739,2.7739,2.7739,2.7727,2.7703,2.728,2.6991,2.6991,2.7015,2.7027,2.7027,2.7256,2.7389,2.7425,2.7655,2.7775,2.7775,2.7799,2.7799,2.7775,2.7799,2.7811,2.7811,2.5915,2.6103,1.8866,1.8942,1.9307,2.1648,2.0669,1.8875,1.8104,1.5948,1.3541,1.1397,0.9768,0.8907,0.9284,0.9844,1.1002,1.3491,1.4457,1.6149,1.9987,2.1148,2.2464,2.4758,2.588,0.0,0.0,0.0,0.0,0.0,0.0,0.0,0.0,2.8306,2.8391,2.8451,2.856,2.862,2.862,2.862,2.862,2.862,2.862,2.862,2.862,2.862,2.862,2.862,0.0,0.0,0.0,2.862,2.8681,2.8572,2.9307,2.9127,2.856,2.8656,2.862,2.862,2.862,2.862,2.8608,2.85,2.8536,2.856,2.8234,2.8137,2.8174,2.8331,2.8258,2.821,2.8536,2.862,2.8548,2.827,2.8258,2.8294,2.8294,2.8294,2.8294,2.8294,2.8294,2.8246,2.8077,2.8041,2.7993,2.7836,2.7811,2.7811,2.7811,2.7811,2.7811,2.7811,2.763,2.7498,2.7498,2.7498,2.7498,2.7498,2.7594,2.7727,2.7884,2.7993,2.8041,2.8041,2.821,2.8222,2.8041,2.8222,2.8294,2.8294,2.7533,2.7533,2.0678,2.0632,2.0758,2.2788,2.1464,1.9368,1.8744,1.6414,1.3997,1.2487,1.103,1.013,1.0581,1.0881,1.1667,1.334,1.4057,1.5384,1.85,1.9627,2.1028,2.3478,0.0,0.0,0.0,0.0,0.0,0.0,0.0,0.0,0.0,2.8331,2.8379,2.85,2.8584,2.862,2.862,2.862,2.862,2.862,2.862,2.862,2.862,2.862,2.862,2.862,0.0,0.0,0.0,2.862,2.8669,2.8729,2.9499,2.9307,2.8524,2.8644,2.862,2.862,2.862,2.862,2.862,2.862,2.862,2.856,2.8258,2.8162,2.8186,2.8294,2.8198,2.8137,2.8524,2.862,2.8572,2.8379,2.8475,2.862,2.862,2.862,2.862,2.862,2.862,2.856,2.8367,2.8331,2.8258,2.8077,2.8053,2.8077,2.8162,2.8162,2.8198,2.827,2.8282,2.8162,2.7836,2.7811,2.7811,2.7811,2.7884,2.8005,2.8198,2.8282,2.8331,2.8331,2.8524,2.8524,2.8331,2.8608,2.8693,2.862,2.8777,2.885,2.0241,2.2145,2.4045,2.3249,2.2247,2.0895,1.8782,1.6148,1.3832,1.2682,1.1273,1.04,1.061,1.1662,1.2563,1.2909,1.4781,1.6839,1.8456,1.982,2.116,0.0,0.0,0.0,0.0,0.0,0.0,0.0,0.0,0.0,0.0,2.862,2.85,2.821,2.8475,2.862,2.862,2.862,2.862,2.862,2.862,2.862,2.862,2.862,2.862,0.0,0.0,0.0,0.0,2.862,2.8572,2.8557,2.8524,2.8572,2.8557,2.8512,2.862,2.862,2.862,2.862,2.862,2.862,2.862,2.8669,2.8922,2.9006,2.8946,2.8693,2.862,2.862,2.862,2.862,2.862,2.862,2.862,2.862,2.862,2.862,2.862,2.862,2.862,2.862,2.862,2.862,2.862,2.862,2.8608,2.8705,2.897,2.9006,2.9103,2.9357,2.9393,2.8958,2.7908,2.7811,2.7811,2.7811,2.8053,2.8198,2.8198,2.8475,2.862,2.862,2.862,2.862,2.862,2.8886,2.8874,2.8632,2.9151,2.9393,1.9356,2.0556,2.1378,2.075,2.0074,1.9193,1.7793,1.622,1.4777,1.3648,1.2974,1.2552,1.2881,1.3193,1.387,1.5294,1.6077,1.7068,1.8481,1.9977,0.0,2.2271,2.4456,0.0,0.0,0.0,0.0,0.0,0.0,0.0,0.0,2.862,2.8584,2.85,2.8572,2.862,2.862,2.862,2.862,2.862,2.862,2.862,2.862,2.862,0.0,0.0,0.0,0.0,0.0,2.862,2.8669,2.8536,2.8656,2.8669,2.8536,2.8644,2.862,2.862,2.862,2.8753,2.9104,2.8898,2.8886,2.891,2.8982,2.9019,2.8994,2.891,2.8886,2.885,2.8669,2.862,2.862,2.862,2.862,2.862,2.862,2.862,2.862,2.862,2.8765,2.8886,2.8886,2.9043,2.9163,2.9163,2.9163,2.9188,2.9272,2.9284,2.9308,2.9393,2.9405,2.9272,2.8934,2.8898,2.8825,2.8644,2.8717,2.8681,2.85,2.8572,2.862,2.862,2.8801,2.8886,2.8886,2.9151,2.9236,2.9163,2.9332,2.9405,1.8387,1.9483,1.9893,1.9555,1.8915,1.8131,1.7165,1.6042,1.498,1.4208,1.3845,1.3737,1.4002,1.4051,1.4437,1.5608,1.6127,1.6791,1.7925,1.9543,0.0,2.2681,0.0,0.0,0.0,0.0,0.0,0.0,0.0,0.0,0.0,0.0,2.862,2.862,2.862,2.862,2.862,2.862,2.862,2.862,2.862,2.862,2.862,2.862,0.0,0.0,0.0,0.0,0.0,2.862,2.862,2.862,2.862,2.8681,2.8777,2.8572,2.862,2.8716,2.8922,2.9238,2.9383,2.9163,2.9224,2.9308,2.9308,2.9103,2.891,2.9103,2.9019,2.8825,2.8669,2.862,2.862,2.862,2.862,2.862,2.862,2.862,2.862,2.862,2.8753,2.8862,2.8862,2.9079,2.926,2.926,2.926,2.9296,2.9393,2.9405,2.9441,2.9538,2.9646,2.9707,2.9906,2.9724,2.9332,2.9175,2.9163,2.9091,2.8922,2.8922,2.8922,2.8922,2.9079,2.9163,2.9163,2.9332,2.9513,2.9707,2.9598,2.961,0.0,1.8565,1.9169,1.9132,1.8396,1.7479,1.673,1.5608,0.0,1.4352,1.4099,1.4014,1.4304,1.4328,1.434,1.4497,1.5378,1.632,1.7141,1.8927,0.0,0.0,0.0,0.0,0.0,0.0,0.0,0.0,0.0,0.0,0.0,0.0,2.862,2.862,2.862,2.862,2.862,2.862,2.862,2.862,2.862,2.862,2.862,2.862,0.0,0.0,0.0,0.0,0.0,2.862,2.862,2.862,2.8644,2.8801,2.9019,2.8824,2.898,2.9183,2.9405,2.9627,2.9663,2.9441,2.9598,2.9791,2.9791,2.9296,2.8837,2.9296,2.9079,2.8705,2.8681,2.8681,2.8681,2.8681,2.8681,2.8681,2.8681,2.8681,2.8681,2.8681,2.8693,2.8705,2.8705,2.8922,2.9103,2.9103,2.9103,2.9188,2.9429,2.9465,2.9748,3.0003,3.0258,3.0619,3.1012,3.0142,2.9453,2.9639,2.9429,2.9429,2.9405,2.9405,2.9405,2.9405,2.9429,2.9441,2.9465,2.9465,2.9719,3.0214,2.9948,2.9972,1.4628,0.0,1.6332,1.5934,1.5789,1.5656,0.0,1.4944,1.463,1.4352,1.4244,1.4352,1.4823,1.4582,1.4835,1.6465,1.7117,1.7756,1.877,0.0,0.0,0.0,0.0,0.0,0.0,0.0,0.0,0.0,0.0,0.0,0.0,0.0,2.862,2.862,2.862,2.862,2.862,2.862,2.862,2.862,2.862,2.862,2.862,2.862,0.0,0.0,0.0,0.0,2.862,2.862,2.862,2.8644,2.885,2.897,2.925,2.9665,2.9799,2.9848,3.0058,2.9983,3.013,2.9707,2.9743,2.9791,2.9791,2.9815,2.9827,2.9731,2.9622,2.9477,2.9272,2.9224,2.9224,2.9224,2.9224,2.9224,2.9224,2.9224,2.9224,2.9224,2.9381,2.9513,2.9513,2.9743,2.9936,2.9936,3.0325,3.0551,3.0612,3.1014,3.124,3.1303,3.1378,3.1416,3.1617,3.0698,3.0338,3.0913,3.0516,3.0218,2.9997,2.9984,2.9787,2.9405,2.9598,2.9815,3.002,3.002,3.0093,3.0214,3.0153,3.0153,1.3797,1.469,1.5463,1.5294,1.527,1.5246,1.5113,1.4787,1.4485,1.4328,1.4292,1.4425,1.4847,1.4787,1.5125,1.6525,1.7286,1.8456,0.0,0.0,0.0,0.0,0.0,0.0,0.0,0.0,0.0,0.0,0.0,0.0,0.0,0.0,2.862,2.862,2.862,2.862,2.862,2.862,2.862,2.862,2.862,2.862,2.862,2.862,0.0,0.0,0.0,0.0,2.8632,2.8753,2.8801,2.8825,2.9091,2.9272,2.9393,2.976,3.0105,3.0215,3.0215,3.01,3.021,2.9996,2.9984,2.9984,2.9984,3.0093,3.0153,2.9876,2.9707,2.9586,2.9441,2.9405,2.9405,2.9405,2.9405,2.9405,2.9405,2.9405,2.9405,2.9405,2.9513,2.9622,2.9622,2.9839,3.002,3.0436,3.0637,3.0826,3.1227,3.1542,3.1819,3.1819,3.2048,3.2405,3.2596,3.1792,3.1426,3.1616,3.139,3.1127,3.0964,3.0765,3.0366,2.9779,2.9912,3.0069,3.0214,3.0214,3.0214,3.0214,3.0214,3.0214,1.387,1.4811,1.562,1.5644,1.5547,1.5415,1.533,1.4787,1.4292,1.4292,1.4328,1.4473,1.4835,1.5113,0.0,1.6199,1.7322,0.0,0.0,0.0,0.0,0.0,0.0,0.0,0.0,0.0,0.0,0.0,0.0,0.0,0.0,0.0,0.0,2.862,2.862,2.862,2.8812,2.8812,2.8812,2.8812,2.8812,2.8812,2.8812,2.862,2.862,0.0,0.0,0.0,2.8705,2.8922,2.9031,2.9103,2.9369,2.9598,2.9803,2.9839,3.0008,3.0214,3.0214,3.0214,3.0214,3.0214,3.0214,3.0214,3.0214,3.0214,3.0165,2.9924,2.9707,2.9526,2.9526,2.9526,2.9526,2.9526,2.9526,2.9526,2.9526,2.9526,2.9526,2.9526,2.9526,2.9526,2.9724,2.9906,3.0264,3.0677,3.0877,3.1064,3.1463,3.188,3.2222,3.2222,3.2443,3.293,3.3547,3.3175,3.2571,3.2046,3.2059,3.2059,3.2021,3.1416,3.0809,3.0416,3.0416,3.0416,3.0416,3.025,3.0274,3.0274,3.0322,3.0334,1.4328,1.5354,1.5897,1.4811,1.4859,1.504,1.4582,1.4389,1.4292,1.4292,1.4485,1.4871,1.5584,1.5922,1.6573,0.0,0.0,0.0,0.0,0.0,0.0,0.0,0.0,0.0,0.0,0.0,0.0,0.0,0.0,0.0,0.0,0.0,0.0,2.862,2.862,2.8812,2.9196,2.9196,2.9196,2.9196,2.9196,2.9196,2.9184,2.8812,2.862,0.0,0.0,2.8753,2.8958,2.8994,2.9139,2.9369,2.9634,2.9755,2.9827,3.0057,3.0177,3.0214,3.0214,3.0214,3.0214,3.0214,3.0214,3.0214,3.0214,3.0214,3.0202,3.0165,3.0117,3.0093,3.0093,3.0093,3.0093,3.0093,3.0093,3.0093,3.0093,3.0093,3.0093,3.0093,3.0093,3.0295,3.0686,3.0723,3.095,3.1554,3.1957,3.2346,3.2346,3.2786,3.3213,3.3213,3.3293,3.3346,3.3346,3.3585,3.3598,3.3227,3.3048,3.2872,3.2423,3.2008,3.1617,3.1617,3.1012,3.0822,3.0822,3.0635,3.0552,3.0552,3.0769,3.0877,1.3857,1.463,1.5197,1.5161,1.5885,1.6465,1.5934,1.5584,1.5366,1.5366,1.5354,1.5547,1.6211,0.0,0.0,0.0,0.0,0.0,0.0,0.0,0.0,0.0,0.0,0.0,0.0,0.0,0.0,0.0,0.0,0.0,0.0,0.0,0.0,0.0,2.9004,2.9184,2.9746,3.014,2.9949,2.9375,2.9375,2.9196,2.9004,2.862,2.862,2.862,0.0,2.8777,2.9019,2.9163,2.9381,2.9646,2.9912,3.002,3.0033,3.0165,3.0214,3.0214,3.0214,3.0214,3.0214,3.0214,3.0214,3.0214,3.0214,3.0214,3.0214,3.0214,3.0214,3.0214,3.0214,3.0214,3.025,3.0395,3.0322,3.025,3.0395,3.0322,3.0214,3.0214,3.0214,3.0416,3.0809,3.1012,3.1214,3.2008,3.241,3.2611,3.3013,3.3359,3.3668,3.3668,3.3814,3.3975,3.4122,3.4282,3.4162,3.3694,3.3598,3.3409,3.2859,3.2644,3.2518,3.2264,3.1513,3.1235,3.1235,3.089,3.0745,3.0612,3.0877,3.0998,1.3688,1.4183,1.4739,1.5813,1.6706,1.7322,1.737,1.6899,1.6537,1.6791,1.6682,1.667,1.7092,1.8239,0.0,0.0,0.0,0.0,0.0,0.0,0.0,0.0,0.0,0.0,0.0,0.0,0.0,0.0,0.0,0.0,0.0,0.0,0.0,0.0,2.9567,2.9758,3.0319,3.0713,3.0535,2.9758,2.9567,2.9375,2.9004,2.862,2.862,2.862,2.8693,2.8862,2.9127,2.9393,2.9646,2.9912,3.0129,3.0214,3.0214,3.0214,3.0214,3.0214,3.0214,3.0214,3.0214,3.0214,3.0214,3.0214,3.0214,3.0214,3.0214,3.0214,3.0262,3.0298,3.0238,3.0214,3.0262,3.0467,3.0407,3.0358,3.0564,3.0491,3.0395,3.0599,3.0395,3.0599,3.1401,3.1401,3.1807,3.282,3.3022,3.3224,3.3627,3.3841,3.3988,3.3988,3.4189,3.4442,3.4736,3.4696,3.4496,3.4108,3.4095,3.3824,3.3258,3.3258,3.3159,3.2969,3.2136,3.165,3.1725,3.1377,3.0986,3.0793,3.1059,3.1191,1.4642,1.5016,1.5306,1.638,1.6151,1.6115,1.7817,1.7599,1.731,1.8312,1.8493,0.0,0.0,2.0231,0.0,0.0,0.0,0.0,0.0,0.0,0.0,0.0,0.0,0.0,0.0,0.0,0.0,0.0,0.0,0.0,0.0,0.0,0.0,0.0,0.0,3.0319,3.0916,3.0916,3.0916,3.0726,3.0319,2.9937,2.9937,2.9004,2.862,2.8632,2.8886,2.9139,2.9393,2.9658,2.9936,3.0189,3.0214,3.0214,3.0214,3.0214,3.0214,3.0214,3.0214,3.0214,3.0214,3.0214,3.0214,3.0214,3.0214,3.0214,3.0214,3.0214,3.0395,3.0527,3.0274,3.0214,3.0214,3.0238,3.0419,3.0588,3.06,3.0781,3.1145,3.156,3.1353,3.1353,3.2995,3.2995,3.3008,3.405,3.4255,3.4255,3.4255,3.4269,3.4282,3.4282,3.4309,3.4442,3.4736,3.4509,3.4456,3.4683,3.4696,3.4456,3.3908,3.3881,3.3895,3.3718,3.266,3.2353,3.262,3.1856,3.1348,3.1336,3.1626,3.1747,1.3942,1.4485,1.5197,1.6598,1.6839,1.7129,1.8674,1.9048,1.9374,2.0448,2.0521,0.0,0.0,0.0,0.0,0.0,0.0,0.0,0.0,0.0,0.0,0.0,0.0,0.0,0.0,0.0,0.0,0.0,0.0,0.0,0.0,0.0,0.0,0.0,0.0,3.0903,3.1487,3.1474,3.1474,3.1487,3.0903,3.0331,3.0128,2.9746,2.9462,2.9442,2.9541,2.964,2.9658,2.9755,2.996,3.0214,3.0214,3.0214,3.0214,3.0214,3.0214,3.0214,3.0214,3.0214,3.0214,3.0214,3.0214,3.0214,3.0214,3.0214,3.025,3.0419,3.0527,3.0588,3.0491,3.0576,3.0745,3.0902,3.0902,3.089,3.1059,3.1046,3.1206,3.161,3.161,3.1817,3.3266,3.3266,3.3472,3.4116,3.4322,3.4322,3.4322,3.4322,3.4322,3.4322,3.4482,3.4643,3.475,3.483,3.491,3.5017,3.4857,3.467,3.4442,3.4429,3.4523,3.4696,3.3681,3.3227,3.29,3.235,3.1977,3.1397,3.1674,3.1807,1.3713,1.4232,1.5077,1.6585,1.7358,1.8179,1.9845,2.0509,2.116,2.2464,2.2392,2.2114,2.2223,0.0,0.0,0.0,0.0,0.0,0.0,0.0,0.0,0.0,0.0,0.0,0.0,0.0,0.0,0.0,0.0,0.0,0.0,0.0,0.0,0.0,0.0,3.1297,3.1664,3.1664,3.1664,3.1664,3.1297,3.0903,3.0331,3.0217,3.0177,2.9979,3.0153,3.0255,3.0003,3.0088,3.0234,3.0214,3.0214,3.0214,3.0214,3.0214,3.0214,3.0214,3.0214,3.0214,3.0214,3.0214,3.0214,3.0214,3.0214,3.0274,3.0371,3.0564,3.0733,3.0853,3.0853,3.0926,3.1046,3.1228,3.1191,3.1167,3.1348,3.1312,3.1461,3.2299,3.2077,3.2495,3.3746,3.3954,3.3954,3.4589,3.4603,3.4603,3.4603,3.4603,3.4603,3.4603,3.4776,3.4897,3.4897,3.5084,3.5191,3.5191,3.5004,3.4857,3.4763,3.4763,3.4857,3.5057,3.4229,3.3745,3.3416,3.2973,3.2336,3.1729,3.1722,3.1807,1.4292,1.4509,1.5052,1.638,1.7515,1.8939,2.1341,2.1885,2.2416,2.4263,2.4021,2.3393,2.3116,0.0,0.0,0.0,0.0,0.0,0.0,0.0,0.0,0.0,0.0,0.0,0.0,0.0,0.0,0.0,0.0,0.0,0.0,0.0,0.0,0.0,0.0,0.0,3.1664,3.1664,3.1664,3.1664,3.1664,3.1474,3.0916,3.0613,3.0547,3.0586,3.1145,3.1001,3.064,3.09,3.0607,3.0214,3.0214,3.0214,3.0214,3.0214,3.0214,3.0214,3.0214,3.0214,3.0214,3.0214,3.0214,3.0214,3.0214,3.0407,3.0612,3.0612,3.0986,3.1384,3.1397,3.1203,3.101,3.101,3.1203,3.1397,3.1397,3.1614,3.2234,3.3286,3.3073,3.3073,3.498,3.4768,3.4557,3.5191,3.5191,3.5191,3.5191,3.5191,3.5191,3.5191,3.5191,3.5191,3.5191,3.5191,3.5191,3.5191,3.5191,3.507,3.4776,3.4763,3.4763,3.4763,3.4137,3.4059,3.4346,3.3073,3.2648,3.2648,3.202,3.1807,1.3906,1.463,1.5861,1.7189,1.8758,2.0593,2.2983,2.3393,2.3731,2.5397,2.5264,2.477,2.4504,0.0,0.0,0.0,0.0,0.0,0.0,0.0,0.0,0.0,0.0,0.0,0.0,0.0,0.0,0.0,0.0,0.0,0.0,0.0,0.0,0.0,0.0,0.0,3.1664,3.1664,3.1664,3.1664,3.1664,3.1664,3.1487,3.1376,3.1435,3.1438,3.162,3.1522,3.1504,3.158,3.1416,3.1416,3.1416,3.1012,3.0822,3.0822,3.0619,3.0214,3.0214,3.0214,3.0214,3.0214,3.0214,3.025,3.0431,3.0539,3.0684,3.1059,3.1264,3.1433,3.1638,3.1626,3.1566,3.1566,3.1626,3.1686,3.1686,3.196,3.2648,3.3286,3.371,3.4134,3.498,3.498,3.498,3.5191,3.5191,3.5191,3.5191,3.5191,3.5191,3.5191,3.5191,3.5191,3.5191,3.5191,3.5191,3.5191,3.5191,3.5151,3.507,3.507,3.507,3.507,3.486,3.4689,3.4346,3.3922,3.3286,3.2648,3.2435,3.2234,1.4666,1.5632,1.702,1.8469,1.9989,2.18,2.4299,0.0,0.0,0.0,0.0,2.5699,0.0,0.0,0.0,0.0,0.0,0.0,0.0,0.0,0.0,0.0,0.0,0.0,0.0,0.0,0.0,0.0,0.0,0.0,0.0,0.0,0.0,0.0,3.1664,3.1664,3.1664,3.1664,3.1664,3.1664,3.1664,3.1664,3.1677,3.1784,3.1845,3.1789,3.1829,3.1996,3.2008,3.1819,3.1819,3.1819,3.1819,3.1617,3.1416,3.1416,3.1012,3.0809,3.0619,3.0619,3.0619,3.0619,3.0416,3.025,3.0599,3.0998,3.1231,3.1561,3.1806,3.2225,3.2398,3.2447,3.2447,3.1807,3.1807,3.1807,3.1807,3.2234,3.286,3.3286,3.3922,3.4557,3.5191,3.5191,3.5191,3.5191,3.5191,3.5191,3.5191,3.5191,3.5191,3.5191,3.5191,3.5191,3.5191,3.5191,3.5191,3.5191,3.5191,3.5191,3.5191,3.5191,3.5191,3.5191,3.5191,3.498,3.4557,3.4346,3.3922,3.3286,3.286,3.2435,1.6042,1.7068,1.8336,1.9977,2.1317,0.0,2.5337,2.6303,2.6749,2.6979,0.0,0.0,0.0,0.0,0.0,0.0,0.0,0.0,0.0,0.0,0.0,0.0,0.0,0.0,0.0,0.0,0.0,0.0,0.0,0.0,0.0,0.0,0.0,0.0,3.1664,3.1664,3.1664,3.169,3.169,0.0,3.169,3.188,3.2056,3.1944,3.2091,3.2171,3.2156,3.2351,3.2611,3.2209,3.2021,3.2021,3.2021,3.2021,3.1806,3.1806,3.1806,3.1819,3.1214,3.1012,3.1012,3.1012,3.0834,3.0453,3.1086,3.1445,3.1854,3.1892,3.2684,3.3498,3.3498,3.3498,3.3286,3.2234,3.202,3.202,3.202,3.2447,3.286,3.3498,3.3922,3.4557,3.5191,3.5191,3.5191,3.5191,3.5191,3.5191,3.5191,3.5191,3.5191,3.5191,3.5191,3.5191,3.5191,3.5191,3.5191,3.5191,3.5297,3.5311,3.5204,3.5191,3.5191,3.5191,3.5191,3.5191,3.5191,3.4557,3.4346,3.4346,3.3286,3.266,1.562,1.7068,1.8951,2.0762,2.3116,2.524,2.6242,2.6713,2.6966,2.7015,0.0,0.0,0.0,0.0,0.0,0.0,0.0,0.0,0.0,0.0,0.0,0.0,0.0,0.0,0.0,0.0,0.0,0.0,0.0,0.0,0.0,0.0,0.0,3.1664,3.1664,3.1664,3.1664,3.1891,3.1891,0.0,3.1904,3.2627,3.3887,3.2476,3.2011,3.2465,3.2826,3.2948,3.3213,3.3013,3.3013,3.3013,3.3013,3.2812,3.241,3.241,3.2209,3.1819,3.1617,3.1617,3.1617,3.1617,3.1769,3.1984,3.2199,3.2502,3.2805,3.3045,3.3409,3.3498,3.3498,3.3498,3.3498,3.3286,3.3073,3.3073,3.3073,3.3498,3.3922,3.4134,3.4557,3.498,3.5191,3.5191,3.5191,3.5191,3.5191,3.5191,3.5191,3.5191,3.5191,3.5191,3.5191,3.5191,3.5191,3.5191,3.5191,3.5191,3.6059,3.6153,3.5231,3.5191,3.5191,3.5191,3.5191,3.5191,3.5191,3.498,3.4768,3.4346,3.371,3.3199,1.6175,1.7829,1.9833,2.2198,2.442,2.6085,2.6375,2.6749,2.7027,2.7027,0.0,0.0,0.0,0.0,0.0,0.0,0.0,0.0,0.0,0.0,0.0,0.0,0.0,0.0,0.0,0.0,0.0,0.0,0.0,0.0,0.0,3.1664,3.1664,3.1664,3.2597,3.3149,3.3149,3.4233,3.4609,3.4449,3.4609,3.5158,3.5911,3.4995,3.442,3.4073,3.4241,3.4366,3.4784,3.38,3.4,3.4784,3.38,3.3213,3.3013,3.3013,3.2812,3.2611,3.2209,3.2209,3.2235,3.2377,3.2315,3.2494,3.2969,3.3265,3.3523,3.3677,3.403,3.4346,3.4346,3.4346,3.4346,3.4346,3.3922,3.3498,3.3286,3.371,3.4134,3.3922,3.4557,3.5191,3.5191,3.5191,3.5191,3.5191,3.5191,3.5404,3.5952,3.6032,3.6032,3.6032,3.6032,3.6032,3.6032,3.6032,3.6032,3.6032,3.6607,3.6647,3.6059,3.6032,3.5859,3.5485,3.5565,3.5618,3.5618,3.5618,3.5405,3.5191,3.4536,3.3981,1.6501,1.8553,2.0822,2.3611,2.5228,2.6182,2.6266,2.6641,2.6991,2.7075,0.0,0.0,0.0,0.0,0.0,0.0,0.0,0.0,0.0,0.0,0.0,0.0,0.0,0.0,0.0,0.0,0.0,0.0,0.0,0.0,3.2219,3.1853,3.1853,3.2219,3.3699,3.4809,3.5182,3.69,3.7639,3.7575,3.7943,3.8127,3.8127,3.851,3.7584,3.5957,3.5957,3.6133,3.6356,3.4585,3.4784,3.5777,3.4,3.3414,3.3414,3.3414,3.3414,3.3414,3.2878,3.2891,3.2943,3.3232,3.2955,3.284,3.3472,3.3967,3.4203,3.4203,3.4584,3.5191,3.5191,3.5191,3.5191,3.5191,3.4557,3.371,3.3286,3.371,3.4134,3.3922,3.4557,3.5191,3.5191,3.5191,3.5191,3.5191,3.5364,3.5845,3.6834,3.6941,3.6941,3.6941,3.6941,3.6941,3.6941,3.6941,3.6941,3.6941,3.6941,3.6941,3.6941,3.6941,3.6647,3.5992,3.6046,3.6072,3.6072,3.6072,3.6072,3.6072,3.5423,3.5002,1.4883,1.8106,2.18,2.4021,2.5228,2.6001,2.6472,0.0,2.6822,0.0,0.0,0.0,0.0,0.0,0.0,0.0,0.0,0.0,0.0,0.0,0.0,0.0,0.0,0.0,0.0,0.0,0.0,0.0,0.0,0.0,3.406,3.2597,3.2408,3.4075,3.4435,3.5368,3.7207,3.7692,3.7877,3.7575,3.9242,4.0152,4.0152,4.2012,4.1126,3.8229,3.8229,3.747,3.6553,3.6158,3.5182,3.38,3.3614,3.3414,3.3414,3.3414,3.3414,3.3454,3.3734,3.3828,3.3665,3.3957,3.4223,3.4448,3.4683,3.4897,3.4926,3.4926,3.5164,3.5191,3.5191,3.5191,3.5191,3.5191,3.498,3.4993,3.498,3.498,3.498,3.498,3.5204,3.5191,3.5191,3.5191,3.5191,3.5191,3.6059,3.6754,3.6901,3.6941,3.6941,3.6941,3.6941,3.6941,3.6941,3.6941,3.6941,3.6941,3.6941,3.6941,3.6941,3.6941,3.6901,3.6794,3.6313,3.6072,3.6072,3.6072,3.6072,3.6072,3.5423,3.4888,1.6042,1.9048,2.1933,2.3913,2.5011,2.5747,2.6278,2.652,2.6749,2.7123,0.0,0.0,0.0,0.0,0.0,0.0,0.0,0.0,0.0,0.0,0.0,0.0,0.0,0.0,0.0,0.0,0.0,0.0,0.0,3.3815,3.5822,3.4347,3.4248,3.6282,3.7391,3.831,3.9242,4.0504,4.1067,4.0912,4.1814,4.2192,4.2192,4.3124,4.1692,3.8608,3.8608,3.7678,3.6356,3.5182,3.4983,3.4983,3.38,3.3414,3.3414,3.3414,3.3521,3.3694,3.3841,3.4002,3.4175,3.4469,3.4656,3.479,3.4963,3.5097,3.5191,3.5191,3.5191,3.5191,3.5191,3.5191,3.5191,3.5191,3.5191,3.5191,3.5191,3.5191,3.5191,3.5191,3.5191,3.5191,3.5191,3.5191,3.5191,3.5191,3.5631,3.6193,3.6861,3.6941,3.6941,3.6941,3.6941,3.6941,3.6941,3.6941,3.6941,3.6941,3.6941,3.6941,3.6941,3.6941,3.6941,3.6941,3.6687,3.654,3.654,3.654,3.654,3.654,3.6321,3.5974,1.6585,1.8927,2.0834,2.2911,2.4238,2.5192,2.5784,0.0,2.6604,0.0,0.0,0.0,0.0,0.0,0.0,0.0,0.0,0.0,0.0,0.0,0.0,0.0,0.0,0.0,0.0,0.0,0.0,0.0,0.0,3.5608,3.7611,3.6282,3.6282,3.831,3.9789,4.0713,4.1273,4.2748,4.3499,4.3499,4.3499,4.3499,4.3499,4.3499,4.1874,3.938,3.9944,3.9403,3.7915,3.6341,3.6356,3.7145,3.4983,3.42,3.42,3.3614,3.3561,3.3788,3.3948,3.4135,3.4389,3.475,3.487,3.491,3.5137,3.5191,3.5191,3.5191,3.5191,3.5191,3.5191,3.5191,3.5191,3.5191,3.5191,3.5191,3.5191,3.5191,3.5191,3.5191,3.5191,3.5284,3.5591,3.5645,3.5645,3.5645,3.5645,3.5952,3.6834,3.6941,3.6941,3.6941,3.6941,3.6941,3.6941,3.6941,3.6941,3.6941,3.6941,3.6941,3.6941,3.6941,3.6941,3.6941,3.6941,3.6941,3.6941,3.6941,3.6941,3.6941,3.6941,3.6719,1.4908,1.6465,1.795,2.0569,2.2585,2.413,2.4927,0.0,0.0,0.0,0.0,0.0,0.0,0.0,0.0,0.0,0.0,0.0,0.0,0.0,0.0,0.0,0.0,0.0,0.0,0.0,0.0,0.0,0.0,3.7611,3.9575,3.8298,3.831,4.0351,4.0515,4.1454,4.3321,4.3499,4.3499,4.3499,4.3499,4.3499,4.3499,4.3499,4.28,4.1645,4.3534,4.3608,4.2392,4.2392,4.1222,3.9283,3.7145,3.6356,3.6158,3.42,3.3427,3.3521,3.4095,3.4309,3.4416,3.499,3.5177,3.5177,3.5191,3.5191,3.5191,3.5191,3.5191,3.5191,3.5191,3.5191,3.5191,3.5191,3.5191,3.5191,3.5191,3.5191,3.5191,3.5191,3.5191,3.5551,3.6647,3.6861,3.6861,3.6861,3.6861,3.6861,3.6941,3.6941,3.6941,3.6941,3.6941,3.6941,3.6941,3.6941,3.6941,3.6941,3.6941,3.6941,3.6941,3.6941,3.6941,3.6941,3.6941,3.6941,3.6941,3.6941,3.6941,3.6941,3.6941,3.6719,1.4328,1.5885,1.7563,1.9543,2.1317,2.2874,2.4009,2.5023,2.5892,0.0,0.0,0.0,0.0,0.0,0.0,0.0,0.0,0.0,0.0,0.0,0.0,0.0,0.0,0.0,0.0,0.0,0.0,0.0,0.0,0.0,4.1387,3.995,3.9976,4.1978,4.1996,4.2477,4.3499,4.3499,4.3499,4.3499,4.3499,4.3499,4.3499,4.3499,4.356,4.3718,4.4288,4.3216,4.0836,4.0836,4.0449,3.9673,3.8894,3.8503,3.8503,3.7719,3.6685,3.5706,3.5946,3.5484,3.4643,3.4843,3.5044,3.5191,3.5191,3.5191,3.5191,3.5191,3.5191,3.5191,3.5191,3.5378,3.5551,3.5485,3.5338,3.5297,3.5672,3.6046,3.6313,3.6313,3.6313,3.6433,3.6861,3.6941,3.6941,3.6941,3.6941,3.6941,3.6941,3.6941,3.6941,3.6941,3.6941,3.6941,3.6941,3.6941,3.6941,3.6941,3.6941,3.6941,3.6941,3.6941,3.6941,3.6941,3.6941,3.6941,3.6941,3.6941,3.6941,3.6941,3.6941,3.6706,1.3459,1.4871,1.6598,1.8469,1.9808,2.1209,2.3249,2.4263,2.5071,0.0,0.0,0.0,0.0,0.0,0.0,0.0,0.0,0.0,0.0,0.0,0.0,0.0,0.0,0.0,0.0,0.0,0.0,0.0,0.0,0.0,4.2472,4.1444,4.1586,4.2858,4.3004,4.3206,4.3499,4.3499,4.3499,4.3499,4.3499,4.3499,4.3499,4.3499,4.3921,4.4673,4.4673,4.3608,4.1816,4.1816,4.1816,4.1607,4.1029,4.0642,4.0642,3.9867,3.9112,3.8034,3.7354,3.6547,3.5789,3.5079,3.5044,3.5191,3.5191,3.5191,3.5191,3.5191,3.5191,3.5191,3.5191,3.5538,3.5859,3.5792,3.5485,3.5297,3.5698,3.6393,3.6941,3.6941,3.6941,3.6941,3.6941,3.6941,3.6941,3.6941,3.6941,3.6941,3.6941,3.6941,3.6941,3.6941,3.6941,3.6941,3.6941,3.6941,3.6941,3.6941,3.6941,3.6941,3.6941,3.6941,3.6941,3.6941,3.6941,3.6941,3.6941,3.6941,3.6941,3.6941,3.6941,3.6706,0.0,0.0,0.0,0.0,1.7998,1.912,2.2524,0.0,2.3804,0.0,0.0,0.0,0.0,0.0,0.0,0.0,0.0,0.0,0.0,0.0,0.0,0.0,0.0,0.0,0.0,0.0,0.0,0.0,0.0,4.2417,4.2803,4.2839,4.2839,4.2858,4.3261,4.3481,4.3499,4.3499,4.3499,4.3499,4.3499,4.3499,4.3499,4.3499,4.3921,4.4673,4.4673,4.5132,4.5883,4.5883,4.5883,4.5695,4.3747,4.2967,4.2584,4.0642,4.009,4.0031,3.8179,3.7709,3.784,3.591,3.5401,3.5401,3.5401,3.5191,3.5191,3.5191,3.5191,3.5204,3.5244,3.5672,3.6099,3.6099,3.5658,3.5244,3.5204,3.6112,3.6941,3.6941,3.6941,3.6941,3.6941,3.6941,3.6941,3.6941,3.6941,3.6941,3.6941,3.6941,3.6941,3.6941,3.6941,3.6941,3.6941,3.6941,3.6941,3.6941,3.6941,3.6941,3.6941,3.6941,3.6941,3.6941,3.6941,3.6941,3.6941,3.6941,3.6941,3.6941,3.6941,3.6719,1.2626,0.0,0.0,0.0,0.0,0.0,0.0,0.0,0.0,0.0,0.0,0.0,0.0,0.0,0.0,0.0,0.0,0.0,0.0,0.0,0.0,0.0,0.0,0.0,0.0,0.0,0.0,0.0,4.1794,4.1904,4.2014,4.2014,4.2271,4.2858,4.2986,4.3188,4.3499,4.3499,4.3499,4.3499,4.3499,4.3499,4.3499,4.3499,4.3921,4.4673,4.4673,4.5132,4.5883,4.5883,4.5883,4.5883,4.53,4.5111,4.4921,4.4335,4.3399,4.2563,4.1866,4.112,4.0233,3.9729,3.9722,3.9713,3.8069,3.6425,3.5191,3.5191,3.5191,3.5391,3.6233,3.658,3.6687,3.6687,3.658,3.6219,3.5378,3.6112,3.6941,3.6941,3.6941,3.6941,3.6941,3.6941,3.6941,3.6941,3.6941,3.6941,3.6941,3.6941,3.6941,3.6941,3.6941,3.6941,3.6941,3.6941,3.6941,3.6941,3.6941,3.6941,3.6941,3.6941,3.6941,3.6941,3.6941,3.6941,3.6941,3.6941,3.6941,3.6941,3.6941,3.6927,0.0,0.0,0.0,0.0,0.0,0.0,0.0,1.9176,0.0,0.0,0.0,0.0,0.0,0.0,0.0,0.0,0.0,0.0,0.0,0.0,0.0,0.0,0.0,0.0,0.0,0.0,0.0,4.1666,4.1684,4.1684,4.1684,4.1849,4.2142,4.2601,4.2784,4.3078,4.3499,4.3499,4.3499,4.3499,4.3499,4.3499,4.3499,4.3499,4.3921,4.4673,4.4673,4.5132,4.5883,4.5883,4.5883,4.5883,4.5883,4.5883,4.5883,4.5883,4.5471,4.4764,4.3952,4.3253,4.2667,4.1858,4.1595,4.1549,4.0111,3.847,3.7082,3.7251,3.6725,3.6072,3.6754,3.6941,3.6941,3.6941,3.6941,3.6754,3.6072,3.646,3.6941,3.6941,3.6941,3.6941,3.6941,3.6941,3.6941,3.6941,3.6941,3.6941,3.6941,3.6941,3.6941,3.6941,3.6941,3.6941,3.6941,3.6941,3.6941,3.6941,3.6941,3.6941,3.6941,3.6941,3.6941,3.6941,3.6941,3.6941,3.6941,3.6941,3.6941,3.6941,3.6941,3.6941,1.4315,1.4643,0.0,0.0,0.0,0.0,1.8902,1.9071,1.9193,0.0,0.0,0.0,0.0,0.0,0.0,0.0,0.0,0.0,0.0,0.0,0.0,0.0,0.0,0.0,0.0,4.106,4.1225,4.1592,4.1629,4.1647,4.1684,4.1977,4.2197,4.2344,4.2637,4.3023,4.3499,4.3499,4.3499,4.3499,4.3499,4.3499,4.3499,4.3536,4.3958,4.4673,4.4728,4.5187,4.5883,4.5883,4.5883,4.5883,4.5883,4.5883,4.5902,4.5938,4.6452,4.69,4.4937,4.4816,4.5019,4.2978,4.2367,4.2367,4.2163,4.1155,4.0455,4.0676,3.9685,3.8142,3.7122,3.6941,3.6941,3.6941,3.6941,3.6941,3.6941,3.6941,3.7162,3.8225,3.7591,3.7162,3.8238,3.8445,3.8018,3.7149,3.6941,3.6941,3.6941,3.6941,3.6941,3.6941,3.6941,3.6941,3.6941,3.6941,3.6941,3.6941,3.6941,3.6941,3.6941,3.6941,3.6941,3.6941,3.6941,3.6941,3.6941,3.6941,3.6941,3.6941,3.6941,3.6941,1.5679,1.5828,1.5989,0.0,0.0,0.0,0.0,1.6535,1.756,0.0,0.0,0.0,0.0,0.0,0.0,0.0,0.0,0.0,0.0,0.0,0.0,0.0,0.0,0.0,4.1024,4.106,4.1097,4.117,4.1189,4.1335,4.1666,4.1445,4.1739,4.2729,4.2509,4.2747,4.3481,4.3499,4.3499,4.3499,4.3499,4.3499,4.3499,4.3829,4.4233,4.4691,4.5021,4.5443,4.5883,4.5883,4.5883,4.5883,4.5883,4.5883,4.592,4.625,4.669,4.7149,4.7052,4.7274,4.7672,4.7057,4.7057,4.6658,4.4817,4.4396,4.4256,4.4045,4.5427,4.5432,3.8743,3.6941,3.6941,3.6941,3.6941,3.6941,3.6941,3.6941,3.9089,4.6627,4.1894,3.9323,4.6627,4.7912,4.5547,3.8018,3.6941,3.6941,3.6941,3.6941,3.6941,3.6941,3.6941,3.6941,3.6941,3.6941,3.6941,3.6941,3.6941,3.6941,3.6941,3.6941,3.6941,3.6941,3.6941,3.6941,3.6941,3.6941,3.6941,3.6941,3.6941,3.6941,1.6926,1.6946,1.7143,1.6883,0.0,0.0,0.0,0.0,1.7141,1.8925,1.9696,0.0,0.0,0.0,0.0,0.0,0.0,0.0,0.0,0.0,0.0,0.0,0.0,0.0,4.1042,4.106,4.106,4.106,4.106,4.1152,4.1372,4.117,4.1519,4.2546,4.2381,4.2674,4.3481,4.3499,4.3499,4.3499,4.3499,4.3499,4.3518,4.3903,4.4306,4.4691,4.5113,4.5535,4.5883,4.5883,4.5883,4.5883,4.5883,4.6012,4.6213,4.6397,4.6874,4.7424,4.7626,4.7956,4.8286,4.8286,4.8286,4.8069,4.7057,4.7066,4.7527,4.719,4.7371,4.7114,4.3931,4.0138,3.6794,3.6206,3.9421,4.2751,4.3676,4.3835,4.512,4.9854,4.705,4.5334,4.9854,4.6839,4.2327,3.7591,3.6941,3.6941,3.6941,3.6941,3.6941,3.6941,3.6941,3.6941,3.6941,3.6941,3.6941,3.6941,3.6941,3.6941,3.6941,3.6941,3.6941,3.6941,3.6941,3.6941,3.6941,3.6941,3.6941,3.6941,3.6941,3.6941,0.0,0.0,0.0,0.0,0.0,1.7553,0.0,0.0,0.0,1.8917,0.0,0.0,0.0,0.0,0.0,0.0,0.0,0.0,0.0,0.0,0.0,0.0,0.0,0.0,0.0,4.0565,4.0602,4.0914,4.0657,4.0602,4.0932,4.1024,4.1427,4.2252,4.2271,4.2674,4.3481,4.3499,4.3499,4.3499,4.3499,4.3536,4.3628,4.4013,4.4416,4.482,4.5242,4.559,4.5883,4.5883,4.5883,4.5883,4.5883,4.6085,4.6379,4.6544,4.702,4.7607,4.7754,4.8011,4.8286,4.8286,4.8286,4.8322,4.8469,4.8928,4.9404,4.9478,4.8236,4.7026,4.8831,4.4254,3.8898,3.7896,4.3395,4.9111,5.0431,5.0725,5.0725,5.0725,5.0725,5.0081,4.8351,4.1894,3.6941,3.6941,3.6941,3.6941,3.6941,3.6941,3.6941,3.6941,3.6941,3.6941,3.6941,3.6941,3.6941,3.6941,3.6941,3.6941,3.6941,3.6941,3.6941,3.6941,3.6941,3.6941,3.6941,3.6941,3.6941,3.6941,3.6941,3.6941,0.0,0.0,0.0,0.0,1.9594,0.0,0.0,0.0,1.7888,1.6902,0.0,0.0,0.0,0.0,0.0,0.0,0.0,0.0,0.0,0.0,0.0,0.0,0.0,0.0,0.0,3.8786,3.897,4.0437,3.919,3.8988,4.0455,4.0877,4.1427,4.2252,4.2271,4.2674,4.3481,4.3499,4.3499,4.3499,4.3499,4.3683,4.4031,4.4435,4.4838,4.526,4.5645,4.5847,4.5883,4.5883,4.5883,4.5883,4.5883,4.592,4.6048,4.6764,4.7094,4.7277,4.7974,4.8249,4.8286,4.8286,4.8286,4.8414,4.9148,4.9184,4.9056,4.9404,4.9202,4.8744,4.8579,4.7672,4.7071,4.6893,4.8759,5.0486,5.067,5.0725,5.0725,5.0725,5.0725,4.8123,3.9965,3.7591,3.6941,3.6941,3.6941,3.6941,3.6941,3.6941,3.6941,3.6941,3.6941,3.6941,3.6941,3.6941,3.6941,3.6941,3.6941,3.6941,3.6941,3.6941,3.6941,3.6941,3.6941,3.6941,3.6941,3.6941,3.6941,3.6941,3.6941,3.6941,0.0,0.0,0.0,0.0,0.0,0.0,0.0,0.0,1.7688,0.0,0.0,0.0,0.0,0.0,0.0,0.0,0.0,0.0,0.0,0.0,0.0,0.0,0.0,0.0,0.0,0.0,0.0,0.0,3.8328,3.8383,4.0015,4.0492,4.1189,4.2252,4.2271,4.2674,4.3481,4.3499,4.3499,4.3499,4.3499,4.3701,4.4105,4.449,4.4911,4.5315,4.5718,4.5883,4.5883,4.5883,4.603,4.6213,4.5975,4.603,4.6305,4.6892,4.7259,4.7534,4.8084,4.8286,4.8286,4.8286,4.8286,4.8432,4.9258,4.9221,4.9038,4.9588,4.9551,4.9184,4.8469,4.8286,4.8524,4.9478,5.023,5.0725,5.0725,5.0725,5.0725,5.0725,5.0725,4.9436,4.5547,4.4907,4.319,3.7784,3.6941,3.6941,3.6941,3.6941,3.6941,3.6941,3.6941,3.6941,3.6941,3.6941,3.6941,3.6941,3.6941,3.6941,3.6941,3.6941,3.6941,3.6941,3.6941,3.6941,3.6941,3.6941,3.6941,3.6941,3.6941,3.6941,2.1833,0.0,0.0,0.0,0.0,0.0,0.0,0.0,0.0,0.0,0.0,0.0,0.0,0.0,0.0,0.0,0.0,0.0,0.0,0.0,0.0,0.0,0.0,0.0,0.0,0.0,0.0,0.0,0.0,3.7264,3.9557,4.007,4.0914,4.2234,4.2271,4.2674,4.3481,4.3499,4.3499,4.3499,4.3609,4.3866,4.4251,4.4655,4.5077,4.548,4.5773,4.5883,4.5883,4.5883,4.6122,4.6452,4.6158,4.6287,4.669,4.6984,4.7351,4.7754,4.8139,4.8286,4.8286,4.8286,4.8359,4.8561,4.9166,4.9166,4.9074,4.9569,4.9441,4.9038,4.8432,4.8616,4.9258,5.0431,5.0725,5.0725,5.0725,5.0725,5.0725,5.0725,5.0725,5.0725,5.0725,5.0725,4.749,3.8238,3.6941,3.6941,3.6941,3.6941,3.6941,3.6941,3.6941,3.6941,3.6941,3.6941,3.6941,3.6941,3.6941,3.6941,3.6941,3.6941,3.6941,3.6941,3.6941,3.6941,3.6941,3.6941,3.6941,3.6941,3.6941,3.6941,0.0,0.0,0.0,0.0,0.0,0.0,0.0,0.0,1.9442,0.0,0.0,0.0,0.0,0.0,0.0,0.0,0.0,0.0,0.0,0.0,0.0,0.0,0.0,0.0,0.0,0.0,0.0,0.0,0.0,0.0,3.9043,3.9648,4.0602,4.2216,4.2271,4.2674,4.3481,4.3499,4.3499,4.3499,4.3884,4.427,4.4673,4.5095,4.5498,4.5865,4.5883,4.5883,4.5883,4.5883,4.6122,4.647,4.647,4.6727,4.7094,4.7112,4.7351,4.7754,4.8139,4.8286,4.8286,4.8286,4.8561,4.8891,4.8928,4.9019,4.9129,4.9148,4.8744,4.8322,4.8286,4.9459,5.0651,5.0706,5.0725,5.0725,5.0725,5.0725,5.0725,5.0725,5.0725,5.0725,5.0725,5.0725,4.749,3.8238,3.6941,3.6941,3.6941,3.6941,3.6941,3.6941,3.6941,3.6941,3.6941,3.6941,3.6941,3.6941,3.6941,3.6941,3.6941,3.6941,3.6941,3.6941,3.6941,3.6941,3.6941,3.6941,3.6941,3.6941,3.6941,3.6941,0.0,0.0,2.5424,2.326,0.0,0.0,0.0,0.0,0.0,0.0,0.0,0.0,0.0,0.0,0.0,0.0,0.0,0.0,0.0,0.0,0.0,0.0,0.0,0.0,0.0,0.0,0.0,0.0,3.3615,0.0,0.0,3.9061,4.0198,4.1831,4.2142,4.2674,4.3481,4.3499,4.3499,4.3499,4.3903,4.4288,4.4691,4.5113,4.5517,4.5883,4.5883,4.5883,4.5902,4.6177,4.6525,4.6892,4.6892,4.7295,4.7864,4.7589,4.7589,4.7754,4.8139,4.8286,4.8286,4.8286,4.8377,4.8543,4.8836,4.8744,4.8671,4.9221,4.8854,4.8543,4.9606,5.0303,5.0725,5.0725,5.0725,5.0725,5.0725,5.0725,5.0725,5.0725,5.0725,5.0725,5.0725,5.0725,4.9645,4.6414,4.0823,3.6941,3.6941,3.6941,3.6941,3.6941,3.6941,3.6941,3.6941,3.6941,3.6941,3.6941,3.6941,3.6941,3.6941,3.6941,3.6941,3.6941,3.6941,3.6941,3.6941,3.6941,3.6941,3.6941,3.6941,3.6941,2.6453,2.664,0.0,0.0,2.3875,0.0,0.0,0.0,0.0,0.0,0.0,0.0,0.0,0.0,0.0,0.0,0.0,0.0,0.0,0.0,0.0,0.0,0.0,0.0,0.0,0.0,2.9947,3.2588,3.2129,0.0,0.0,0.0,3.9612,4.1409,4.1996,4.2674,4.3481,4.3499,4.3573,4.3701,4.4105,4.4508,4.4911,4.5333,4.5645,4.5883,4.5883,4.5883,4.592,4.6324,4.6727,4.713,4.7259,4.7717,4.8231,4.7846,4.7791,4.7937,4.8194,4.8286,4.8286,4.8286,4.8414,4.8598,4.8671,4.8708,4.8799,4.9239,4.9258,4.9386,5.045,5.0725,5.0725,5.0725,5.0725,5.0725,5.0725,5.0725,5.0725,5.0725,5.0725,5.0725,5.0725,5.0725,5.0725,5.0725,4.5547,4.1894,4.1894,3.8884,3.6941,3.6941,3.6941,3.6941,3.6941,3.6941,3.6941,3.6941,3.6941,3.6941,3.6941,3.6941,3.6941,3.6941,3.6941,3.6941,3.6941,3.6941,3.6941,3.6941,3.6941,3.6941]}]]